[[{"header":{"parameterUnit":"m.s-1","parameterCategory":1,"la1":30.6,"la2":29.2853,"lo1":-89.7004,"lo2":-87.6739,"dy":0.0162,"dx":0.0183,"nx":112,"ny":82,"refTime":"2024-09-04T06:00:00:Z","depth":0,"parameterNumber":2,"parameterNumberName":"U-component_of_WINDS"},"data":[0.0,0.0,0.0,0.0,0.0,0.0,0.0,0.0,0.0,0.0,0.0,0.0,0.0,0.0,0.0,0.0,0.0,0.0,0.0,0.0,0.0,0.0,0.0,0.0,0.0,0.0,0.0,0.0,0.0,0.0,0.0,0.0,0.0,0.0,0.0,0.0,0.0,0.0,0.0,0.0,0.0,0.0,0.0,0.0,0.0,0.0,0.0,0.0,0.0,0.0,0.0,0.0,0.0,0.0,0.0,0.0,0.0,0.0,0.0,0.0,0.0,0.0,0.0,0.0,0.0,0.0,0.0,0.0,0.0,0.0,0.0,0.0,0.0,0.0,0.0,0.0,0.0,0.0,0.0,0.0,0.0,0.0,0.0,0.0,0.0,0.0,0.0,0.0,0.0,0.0,1.907,2.1614,2.3253,2.3859,2.3059,2.295,2.1559,1.8374,0.0,0.0,0.0,0.0,0.0,0.0,0.0,0.0,0.0,0.0,0.0,0.0,0.0,0.0,0.0,0.0,0.0,0.0,0.0,0.0,0.0,0.0,0.0,0.0,0.0,0.0,0.0,0.0,0.0,0.0,0.0,0.0,0.0,0.0,0.0,0.0,0.0,0.0,0.0,0.0,0.0,0.0,0.0,0.0,0.0,0.0,0.0,0.0,0.0,0.0,0.0,0.0,0.0,0.0,0.0,0.0,0.0,0.0,0.0,0.0,0.0,0.0,0.0,0.0,0.0,0.0,0.0,0.0,0.0,0.0,0.0,0.0,0.0,0.0,0.0,0.0,0.0,0.0,0.0,0.0,0.0,0.0,0.0,0.0,0.0,0.0,0.0,0.0,0.0,0.0,0.0,0.0,0.0,0.0,0.0,0.0,0.0,0.0,0.0,0.0,0.0,0.0,0.0,0.0,1.9271,2.2382,2.3602,2.3969,2.3444,2.3096,2.1668,1.8815,0.0,0.0,0.0,0.0,0.0,0.0,0.0,0.0,0.0,0.0,0.0,0.0,0.0,0.0,0.0,0.0,0.0,0.0,0.0,0.0,0.0,0.0,0.0,0.0,0.0,0.0,0.0,0.0,0.0,0.0,0.0,0.0,0.0,0.0,0.0,0.0,0.0,0.0,0.0,0.0,0.0,0.0,0.0,0.0,0.0,0.0,0.0,0.0,0.0,0.0,0.0,0.0,0.0,0.0,0.0,0.0,0.0,0.0,0.0,0.0,0.0,0.0,0.0,0.0,0.0,0.0,0.0,0.0,0.0,0.0,0.0,0.0,0.0,0.0,0.0,0.0,0.0,0.0,0.0,0.0,0.0,0.0,0.0,0.0,0.0,0.0,0.0,0.0,0.0,0.0,0.0,0.0,0.0,0.0,0.0,0.0,0.0,0.0,0.0,0.0,0.0,0.0,0.0,1.8905,2.0296,2.2657,2.3474,2.3749,2.3517,2.3133,2.1705,1.8889,1.7568,0.0,0.0,0.0,0.0,0.0,0.0,0.0,0.0,0.0,0.0,0.0,0.0,0.0,0.0,0.0,0.0,0.0,0.0,0.0,0.0,0.0,0.0,0.0,0.0,0.0,0.0,0.0,0.0,0.0,0.0,0.0,0.0,0.0,0.0,0.0,0.0,0.0,0.0,0.0,0.0,0.0,0.0,0.0,0.0,0.0,0.0,0.0,0.0,0.0,0.0,0.0,0.0,0.0,0.0,0.0,0.0,0.0,0.0,0.0,0.0,0.0,0.0,0.0,0.0,0.0,0.0,0.0,0.0,0.0,0.0,0.0,0.0,0.0,0.0,0.0,0.0,0.0,0.0,0.0,0.0,0.0,0.0,0.0,0.0,0.0,0.0,0.0,0.0,0.0,0.0,0.0,0.0,0.0,0.0,0.0,0.0,0.0,0.0,0.0,0.0,0.0,0.0,2.0387,2.1522,2.2767,2.3352,2.3608,2.3499,2.2785,2.1248,1.8742,1.7165,0.0,0.0,0.0,0.0,0.0,0.0,0.0,0.0,0.0,0.0,0.0,0.0,0.0,0.0,0.0,0.0,0.0,0.0,0.0,0.0,0.0,0.0,0.0,0.0,0.0,0.0,0.0,0.0,0.0,0.0,0.0,0.0,0.0,0.0,0.0,0.0,0.0,0.0,0.0,0.0,0.0,0.0,0.0,0.0,0.0,0.0,0.0,0.0,0.0,0.0,0.0,0.0,0.0,0.0,0.0,0.0,0.0,0.0,0.0,0.0,0.0,0.0,0.0,0.0,0.0,0.0,0.0,0.0,0.0,0.0,0.0,0.0,0.0,0.0,0.0,0.0,0.0,0.0,0.0,0.0,0.0,0.0,0.0,0.0,0.0,0.0,0.0,0.0,0.0,0.0,0.0,0.0,0.0,0.0,0.0,0.0,0.0,0.0,0.0,0.0,0.0,0.0,2.0863,2.2785,2.2895,2.3639,2.395,2.3535,2.1742,1.993,1.8228,1.5973,0.0,0.0,0.0,0.0,0.0,0.0,0.0,0.0,0.0,0.0,0.0,0.0,0.0,0.0,0.0,0.0,0.0,0.0,0.0,0.0,0.0,0.0,0.0,0.0,0.0,0.0,0.0,0.0,0.0,0.0,0.0,0.0,0.0,0.0,0.0,0.0,0.0,0.0,0.0,0.0,0.0,0.0,0.0,0.0,0.0,0.0,0.0,0.0,0.0,0.0,0.0,0.0,0.0,0.0,0.0,0.0,0.0,0.0,0.0,0.0,0.0,0.0,0.0,0.0,0.0,0.0,0.0,0.0,0.0,0.0,0.0,0.0,0.0,0.0,0.0,0.0,0.0,0.0,0.0,0.0,0.0,0.0,0.0,0.0,0.0,0.0,0.0,0.0,0.0,0.0,0.0,0.0,0.0,0.0,0.0,0.0,0.0,0.0,0.0,0.0,0.0,0.0,2.0168,2.187,0.0,2.3584,2.3712,2.3499,2.2327,2.0589,1.8228,0.0,0.0,0.0,0.0,0.0,0.0,0.0,0.0,0.0,0.0,0.0,0.0,0.0,0.0,0.0,0.0,0.0,0.0,0.0,0.0,0.0,0.0,0.0,0.0,0.0,0.0,0.0,0.0,0.0,0.0,0.0,0.0,0.0,0.0,0.0,0.0,0.0,0.0,0.0,0.0,0.0,0.0,0.0,0.0,0.0,0.0,0.0,0.0,0.0,0.0,0.0,0.0,0.0,0.0,0.0,0.0,0.0,0.0,0.0,0.0,0.0,0.0,0.0,0.0,0.0,0.0,0.0,0.0,0.0,0.0,0.0,0.0,0.0,0.0,0.0,0.0,0.0,0.0,0.0,0.0,0.0,0.0,0.0,0.0,0.0,0.0,0.0,0.0,0.0,0.0,0.0,0.0,0.0,0.0,0.0,0.0,0.0,0.0,0.0,0.0,0.0,0.0,1.8467,2.0228,2.1833,0.0,2.3608,2.3639,2.3334,2.2199,2.0466,1.7899,0.0,0.0,0.0,0.0,0.0,0.0,0.0,0.0,0.0,0.0,0.0,0.0,0.0,0.0,0.0,0.0,0.0,0.0,0.0,0.0,0.0,0.0,0.0,0.0,0.0,0.0,0.0,0.0,0.0,0.0,0.0,0.0,0.0,0.0,0.0,0.0,0.0,0.0,0.0,0.0,0.0,0.0,0.0,0.0,0.0,0.0,0.0,0.0,0.0,0.0,0.0,0.0,0.0,0.0,0.0,0.0,0.0,0.0,0.0,0.0,0.0,0.0,0.0,0.0,0.0,0.0,0.0,0.0,0.0,0.0,0.0,0.0,0.0,0.0,0.0,0.0,0.0,0.0,0.0,0.0,0.0,0.0,0.0,0.0,0.0,0.0,0.0,0.0,0.0,0.0,0.0,0.0,0.0,0.0,0.0,0.0,0.0,0.0,0.0,0.0,0.0,0.0,1.8614,2.1156,2.3059,2.3462,2.3914,2.3822,2.2968,2.1065,1.9051,0.0,0.0,0.0,0.0,0.0,0.0,0.0,0.0,0.0,0.0,0.0,0.0,0.0,0.0,0.0,0.0,0.0,0.0,0.0,0.0,0.0,0.0,0.0,0.0,0.0,0.0,0.0,0.0,0.0,0.0,0.0,0.0,0.0,0.0,0.0,0.0,0.0,0.0,0.0,0.0,0.0,0.0,0.0,0.0,0.0,0.0,0.0,0.0,0.0,0.0,0.0,0.0,0.0,0.0,0.0,0.0,0.0,0.0,0.0,0.0,0.0,0.0,0.0,0.0,0.0,0.0,0.0,0.0,0.0,0.0,0.0,0.0,0.0,0.0,0.0,0.0,0.0,0.0,0.0,0.0,0.0,0.0,0.0,0.0,0.0,0.0,0.0,0.0,0.0,0.0,0.0,0.0,0.0,0.0,0.0,0.0,0.0,0.0,0.0,0.0,0.0,0.0,0.0,1.8944,2.1321,2.3169,2.3895,2.4128,2.3822,2.2968,2.1833,1.993,1.7092,0.0,0.0,0.0,0.0,0.0,0.0,0.0,0.0,0.0,0.0,0.0,0.0,0.0,0.0,0.0,0.0,0.0,0.0,0.0,0.0,0.0,0.0,0.0,0.0,0.0,0.0,0.0,0.0,0.0,0.0,0.0,0.0,0.0,0.0,0.0,0.0,0.0,0.0,0.0,0.0,0.0,0.0,0.0,0.0,0.0,0.0,0.0,0.0,0.0,0.0,0.0,0.0,0.0,0.0,0.0,0.0,0.0,0.0,0.0,0.0,0.0,0.0,0.0,0.0,0.0,0.0,0.0,0.0,0.0,0.0,0.0,0.0,0.0,0.0,0.0,0.0,0.0,0.0,0.0,0.0,0.0,0.0,0.0,0.0,0.0,0.0,0.0,0.0,0.0,0.0,0.0,0.0,0.0,0.0,0.0,0.0,0.0,0.0,0.0,0.0,0.0,0.0,1.9091,2.1394,2.3224,2.411,2.4202,2.3822,2.2968,2.2309,2.0625,1.7587,0.0,0.0,0.0,0.0,0.0,0.0,0.0,0.0,0.0,0.0,0.0,0.0,0.0,0.0,0.0,0.0,0.0,0.0,0.0,0.0,0.0,0.0,0.0,0.0,0.0,0.0,0.0,0.0,0.0,0.0,0.0,0.0,0.0,0.0,0.0,0.0,0.0,0.0,0.0,0.0,0.0,0.0,0.0,0.0,0.0,0.0,0.0,0.0,0.0,0.0,0.0,0.0,0.0,0.0,0.0,0.0,0.0,0.0,0.0,0.0,0.0,0.0,0.0,0.0,0.0,0.0,0.0,0.0,0.0,0.0,0.0,0.0,0.0,0.0,0.0,0.0,0.0,0.0,0.0,0.0,0.0,0.0,0.0,0.0,0.0,0.0,0.0,0.0,0.0,0.0,0.0,0.0,0.0,0.0,0.0,0.0,0.0,0.0,0.0,0.0,0.0,0.0,1.9146,2.1412,2.3224,2.411,2.4202,2.3822,2.2968,2.2529,2.1101,1.8319,0.0,0.0,0.0,0.0,0.0,0.0,0.0,0.0,0.0,0.0,0.0,0.0,0.0,0.0,0.0,0.0,0.0,0.0,0.0,0.0,0.0,0.0,0.0,0.0,0.0,0.0,0.0,0.0,0.0,0.0,0.0,0.0,0.0,0.0,0.0,0.0,0.0,0.0,0.0,0.0,0.0,0.0,0.0,0.0,0.0,0.0,0.0,0.0,0.0,0.0,0.0,0.0,0.0,0.0,0.0,0.0,0.0,0.0,0.0,0.0,1.7568,0.0,0.0,0.0,0.0,0.0,0.0,0.0,0.0,0.0,0.0,0.0,0.0,0.0,0.0,0.0,0.0,0.0,0.0,0.0,0.0,0.0,0.0,0.0,0.0,0.0,0.0,0.0,0.0,0.0,0.0,0.0,0.0,0.0,0.0,0.0,0.0,0.0,0.0,0.0,0.0,0.0,1.9546,2.1595,2.3224,2.411,2.4202,2.3822,2.2968,2.2529,2.1211,1.8742,1.7734,0.0,0.0,0.0,0.0,0.0,0.0,0.0,0.0,0.0,0.0,0.0,0.0,0.0,0.0,0.0,0.0,0.0,0.0,0.0,0.0,0.0,0.0,0.0,0.0,0.0,0.0,0.0,0.0,0.0,0.0,0.0,0.0,0.0,0.0,0.0,0.0,0.0,0.0,0.0,0.0,0.0,0.0,0.0,0.0,0.0,0.0,0.0,0.0,0.0,0.0,0.0,0.0,0.0,0.0,0.0,0.0,0.0,0.0,0.0,0.0,1.9036,0.0,0.0,0.0,0.0,0.0,0.0,0.0,0.0,0.0,0.0,0.0,0.0,0.0,0.0,0.0,0.0,0.0,0.0,0.0,0.0,0.0,0.0,0.0,0.0,0.0,0.0,0.0,0.0,0.0,0.0,0.0,0.0,0.0,0.0,0.0,0.0,0.0,0.0,0.0,0.0,1.9966,2.1943,2.3474,2.4128,2.4202,2.3914,2.3242,2.2821,2.1797,1.9971,1.8926,0.0,0.0,0.0,0.0,0.0,0.0,0.0,0.0,0.0,0.0,0.0,0.0,0.0,0.0,0.0,0.0,0.0,0.0,0.0,0.0,0.0,0.0,0.0,0.0,0.0,0.0,0.0,0.0,0.0,0.0,0.0,0.0,0.0,0.0,0.0,0.0,0.0,0.0,0.0,0.0,0.0,0.0,0.0,0.0,0.0,0.0,0.0,0.0,0.0,0.0,0.0,0.0,0.0,2.3517,2.4134,2.4845,2.4845,2.5029,2.5179,2.3162,2.219,2.1888,2.0448,0.0,0.0,0.0,0.0,0.0,0.0,0.0,0.0,0.0,0.0,0.0,0.0,0.0,0.0,0.0,0.0,0.0,0.0,0.0,0.0,0.0,0.0,0.0,0.0,2.1126,2.1401,1.865,0.0,0.0,0.0,0.0,0.0,0.0,0.0,0.0,0.0,0.0,0.0,2.0497,2.2327,2.3694,2.4165,2.4202,2.3987,2.3535,2.3133,2.2419,2.1291,2.0136,1.9036,0.0,0.0,0.0,0.0,0.0,0.0,0.0,0.0,0.0,0.0,0.0,0.0,0.0,0.0,0.0,0.0,0.0,0.0,0.0,0.0,0.0,0.0,0.0,0.0,0.0,0.0,0.0,0.0,0.0,0.0,0.0,0.0,1.8357,1.8926,0.0,0.0,0.0,0.0,0.0,0.0,0.0,0.0,0.0,0.0,0.0,0.0,0.0,2.3078,2.4134,2.4977,2.5619,2.6041,2.6774,2.7196,2.7344,2.7344,2.7381,2.7417,2.7087,0.0,2.3187,2.2254,0.0,0.0,0.0,0.0,0.0,0.0,0.0,0.0,0.0,0.0,0.0,0.0,0.0,0.0,0.0,0.0,0.0,0.0,0.0,0.0,0.0,0.0,2.395,2.3114,2.3419,2.362,0.0,2.101,1.9308,1.8485,1.8082,0.0,0.0,0.0,0.0,0.0,0.0,0.0,2.1376,2.2675,2.3694,2.4165,2.4202,2.3987,2.3535,2.3133,2.2529,2.1668,2.0833,2.0136,1.9582,1.8155,0.0,0.0,0.0,0.0,0.0,0.0,0.0,0.0,0.0,0.0,0.0,0.0,0.0,0.0,0.0,0.0,0.0,0.0,0.0,0.0,0.0,0.0,0.0,0.0,0.0,0.0,0.0,0.0,0.0,1.843,1.9838,1.9247,1.9576,1.9593,0.0,0.0,0.0,0.0,0.0,0.0,0.0,0.0,0.0,2.4611,2.5087,2.5693,2.6499,2.7251,2.7856,2.8278,2.8608,2.8902,2.9122,2.8883,2.8832,2.8814,2.8315,2.7288,2.5821,2.4556,2.3345,2.2226,0.0,0.0,0.0,0.0,2.1614,2.2016,2.2758,2.2978,2.2868,2.2144,0.0,0.0,0.0,0.0,0.0,0.0,0.0,2.198,0.0,0.0,2.4684,2.4317,2.4556,2.49,2.4886,2.3895,2.2612,0.0,2.0918,2.0186,1.832,0.0,0.0,0.0,0.0,2.1266,2.2254,2.3444,2.4207,2.4202,2.4202,2.4128,2.3895,2.3462,2.2986,2.2419,2.1815,2.1255,2.0613,1.9696,1.8687,0.0,0.0,0.0,0.0,0.0,0.0,0.0,0.0,0.0,0.0,0.0,0.0,0.0,0.0,0.0,0.0,0.0,0.0,0.0,0.0,0.0,0.0,0.0,0.0,0.0,0.0,0.0,0.0,2.0139,2.1193,1.9729,2.0451,2.0754,0.0,0.0,0.0,0.0,0.0,0.0,2.4389,2.5261,2.5899,2.6351,2.7302,2.7985,2.8388,2.8993,2.9434,2.9727,2.9727,2.9892,3.0185,2.9874,2.9727,2.9709,2.9122,2.8682,2.8242,2.6426,2.5304,2.4587,2.384,2.3517,2.3553,2.3895,2.4152,2.4445,2.5362,2.5672,2.5399,2.4702,2.4139,2.3535,2.2061,0.0,0.0,0.0,0.0,2.3608,2.406,2.4702,2.5216,2.5106,2.5359,2.5653,2.5947,2.5782,2.5142,0.0,2.3444,2.273,2.0741,0.0,0.0,0.0,0.0,2.2612,2.3279,2.4299,2.4826,2.4404,2.4367,2.4312,2.422,2.3694,2.3224,2.2931,2.2419,2.1896,2.1291,2.0888,2.0021,1.8722,0.0,0.0,0.0,0.0,0.0,0.0,0.0,0.0,0.0,0.0,0.0,0.0,0.0,0.0,0.0,0.0,0.0,0.0,0.0,0.0,0.0,0.0,0.0,0.0,0.0,0.0,0.0,0.0,0.0,2.1026,2.2264,0.0,0.0,0.0,0.0,2.4491,2.5693,2.599,2.5025,2.7061,2.7984,2.7459,2.8749,2.9654,3.0075,3.0112,3.0149,3.0167,3.0167,3.0185,3.0204,3.0185,3.0167,3.0167,3.013,3.0094,2.9892,2.7508,2.6261,2.5874,2.547,2.5252,2.5304,2.5271,2.5766,2.6444,2.6499,2.6261,2.6094,2.6756,2.5968,2.4702,2.4592,2.4024,0.0,0.0,2.4661,2.5396,2.5782,2.6169,2.6389,2.6039,2.5966,2.5984,2.6002,2.6002,2.5837,0.0,2.4941,2.4409,2.3444,0.0,2.3279,2.3279,2.373,2.4238,2.4629,2.5069,2.5249,2.4794,2.4757,2.4643,2.4238,2.3437,2.2931,2.2913,2.2163,2.1705,2.1668,2.1291,2.0869,2.0411,1.8449,0.0,0.0,0.0,0.0,0.0,0.0,0.0,0.0,0.0,0.0,0.0,0.0,0.0,0.0,0.0,0.0,0.0,0.0,0.0,0.0,0.0,0.0,0.0,0.0,0.0,0.0,0.0,0.0,2.0678,2.1563,0.0,2.1102,2.1561,2.2589,2.4244,2.497,2.5462,2.5549,2.6335,2.6661,2.6484,2.8123,2.9088,2.9228,3.0384,3.051,2.9661,3.0574,3.051,2.9643,3.0302,3.0589,3.0571,3.0314,3.0204,3.013,2.9269,2.8517,2.7838,2.7178,2.6976,2.6976,2.6976,2.7142,2.7343,2.7343,2.7307,2.7179,2.716,2.6793,2.6279,2.6023,2.5729,2.5527,2.5674,2.5931,2.6188,2.6334,2.6481,2.6554,2.6408,2.6371,2.6371,2.6371,2.6371,2.6316,2.6188,2.5874,2.5289,2.4482,2.4335,2.4244,2.3987,2.45,2.5047,2.5194,2.5561,2.5543,2.4849,2.4776,2.4661,2.4238,2.3657,2.3187,2.2931,2.2144,2.1577,2.1302,2.1181,2.0796,2.0113,1.9421,1.8284,0.0,0.0,0.0,0.0,0.0,0.0,0.0,0.0,0.0,0.0,0.0,0.0,0.0,0.0,0.0,0.0,0.0,0.0,0.0,0.0,0.0,0.0,0.0,0.0,0.0,2.0798,2.1656,2.0696,2.1685,2.2122,2.1452,2.19,2.2943,2.4594,2.5062,2.539,2.5513,2.6109,2.6283,2.5947,2.7507,2.831,2.831,2.9392,2.9509,2.8592,2.9509,2.953,2.8776,2.9319,2.9877,3.0388,3.0058,3.0149,3.0589,3.0461,3.0075,2.9525,2.8847,2.8498,2.8428,2.8428,2.8355,2.8208,2.8022,2.7967,2.7911,2.7508,2.738,2.7362,2.6903,2.6793,2.6756,2.6628,2.6683,2.6756,2.6628,2.6683,2.6756,2.6628,2.6591,2.6591,2.6591,2.6591,2.6591,2.6591,2.6371,2.6058,2.5491,2.5399,2.5307,2.5065,2.5488,2.5784,2.5784,2.6058,2.5858,2.5069,2.4977,2.4808,2.4257,2.3657,2.3187,2.2931,2.2144,2.1559,2.1328,2.1181,2.0869,2.0338,1.9934,1.896,1.7513,0.0,0.0,0.0,0.0,0.0,0.0,0.0,0.0,0.0,0.0,0.0,0.0,0.0,0.0,0.0,0.0,0.0,0.0,0.0,0.0,0.0,0.0,0.0,1.9584,2.1957,2.2997,2.1263,2.2744,2.3577,2.2693,2.3417,2.4491,2.5767,2.6194,2.5947,2.482,2.6488,2.6962,2.5889,2.6977,2.7557,2.7557,2.7261,2.7086,2.7086,2.7086,2.7276,2.7541,2.7245,2.8078,2.9612,2.9387,3.0035,3.1313,3.0929,3.0764,3.0791,3.0369,2.9947,2.9641,2.958,2.9324,2.892,2.8535,2.8407,2.8333,2.793,2.784,2.7767,2.7306,2.7196,2.7105,2.6719,2.6885,2.7086,2.6701,2.6903,2.7105,2.6701,2.6609,2.6609,2.6609,2.6591,2.6591,2.6591,2.6591,2.6591,2.6591,2.6591,2.6591,2.6591,2.6591,0.0,2.6591,2.6591,2.6279,2.5472,2.5433,2.5102,2.4293,2.3419,2.2913,2.2913,2.2126,2.1668,2.1687,2.1346,2.1126,2.1145,1.9971,1.9164,1.8702,0.0,0.0,0.0,0.0,0.0,0.0,0.0,0.0,0.0,0.0,0.0,0.0,0.0,0.0,0.0,0.0,0.0,0.0,0.0,0.0,0.0,1.8865,1.9685,2.0024,2.1064,2.1846,2.2025,2.2517,2.2818,2.2844,2.3215,2.3639,2.3967,2.4316,2.44,2.4063,2.4567,2.4721,2.4394,2.5691,2.6384,2.6384,2.7261,2.7199,2.625,2.7267,2.7261,2.6384,2.7314,2.8016,2.8454,2.8426,2.9192,3.0589,3.0139,3.0657,3.1579,3.0589,3.013,2.9984,2.969,2.9324,2.8975,2.8865,2.8828,2.8755,2.8352,2.8223,2.815,2.7785,2.7454,2.7215,2.7454,2.7306,2.7141,2.705,2.7306,2.7508,2.7105,2.7013,2.7013,2.7013,2.6793,2.6591,2.6591,2.6591,2.6591,2.6591,2.6591,2.6591,2.6591,2.6591,0.0,2.6591,2.6591,2.6389,2.5911,2.5598,2.5212,2.4698,2.3584,2.2913,2.2913,2.1851,2.142,2.1687,2.1577,2.165,2.1943,2.1071,2.0117,0.0,0.0,0.0,0.0,0.0,0.0,0.0,0.0,0.0,0.0,0.0,0.0,0.0,0.0,0.0,0.0,0.0,0.0,0.0,0.0,0.0,0.0,2.0388,2.1243,2.1496,2.171,2.2031,2.2539,2.2832,2.3046,2.322,2.3407,2.3514,2.3514,2.3674,2.3821,2.3941,2.3955,2.4008,2.4128,2.4856,2.52,2.52,2.5906,2.5848,2.5003,2.5848,2.5836,2.52,2.5906,2.6608,2.7275,2.7137,2.7978,2.9338,2.9055,2.9429,0.0,0.0,0.0,0.0,0.0,2.9434,2.9214,2.9048,2.8975,2.8938,2.8718,2.8645,2.8572,2.815,2.7875,2.7691,2.7803,2.7728,2.7655,2.7528,2.7728,2.793,2.7583,2.7416,2.7416,2.7416,2.7123,2.683,2.683,2.6701,0.0,2.6591,2.6591,2.6591,2.6591,2.6591,2.6591,2.6591,2.6591,2.6426,2.6058,2.58,2.5451,2.4831,2.3969,0.0,0.0,0.0,2.1671,2.1273,2.0863,0.0,0.0,0.0,0.0,0.0,0.0,0.0,0.0,2.0673,2.1032,0.0,0.0,0.0,0.0,0.0,0.0,0.0,0.0,0.0,0.0,0.0,0.0,0.0,0.0,0.0,0.0,2.1804,2.2766,2.33,2.3193,2.3046,2.3035,2.3434,2.3768,2.3768,2.3794,2.3821,2.3821,2.3848,2.3981,2.4235,2.4249,0.0,0.0,0.0,2.4249,2.4176,2.3995,2.3875,2.379,2.3875,2.3995,2.4249,2.3981,2.4699,2.6128,2.5854,2.6568,2.7811,2.7779,2.763,2.7761,3.0009,3.0673,3.0239,2.9534,2.9227,2.9155,2.8751,0.0,0.0,2.881,2.8833,2.8801,2.8454,2.825,2.8082,2.7812,2.79,2.8122,2.7815,2.8034,2.8293,2.793,2.7895,2.7895,2.7895,2.7526,2.7233,2.7196,2.6885,2.6646,2.6591,2.6591,2.6591,2.6591,2.6591,2.6591,2.6591,2.6591,2.6444,2.6131,2.6039,0.0,2.4977,2.4382,2.3863,2.345,2.2961,2.2108,2.0779,1.9878,1.9507,1.9659,1.9706,2.0175,2.0991,2.1471,2.1689,2.1527,2.0271,2.0451,0.0,0.0,0.0,0.0,0.0,0.0,0.0,0.0,0.0,0.0,0.0,0.0,0.0,0.0,0.0,2.1617,2.2726,2.3554,2.3674,2.4035,2.4115,2.3647,2.3701,2.3768,2.3768,2.3981,2.4115,2.4115,2.4342,2.4489,2.4556,2.4556,2.4583,2.4636,2.4583,2.4409,2.4027,2.4282,2.4242,2.3948,0.0,0.0,2.4556,2.4489,2.4636,2.491,2.4842,2.5531,2.6576,2.6299,2.6487,2.7031,2.7694,2.7703,2.7312,2.7165,2.6872,2.6612,2.6547,2.7102,2.7791,2.7791,2.7965,2.8182,2.811,2.7445,0.0,2.7063,2.696,2.687,2.7387,2.7789,2.8104,2.8253,2.8278,2.8278,2.8278,2.7948,2.762,2.7233,2.7123,2.6958,2.6646,2.6591,2.6591,2.6591,2.6591,2.6591,2.6591,2.6591,2.6554,2.6481,2.6223,2.5947,2.58,2.4225,2.322,2.3082,2.2076,2.1325,2.104,2.117,2.1113,2.0789,2.116,2.0986,2.0214,2.0844,2.0816,2.0219,2.1496,2.2261,0.0,0.0,0.0,0.0,0.0,0.0,0.0,0.0,0.0,0.0,0.0,1.9573,2.0321,0.0,2.2458,2.3193,2.3713,2.4256,2.4623,2.4385,2.4119,2.3989,2.4115,2.4209,2.4209,2.4329,2.4349,2.4129,2.4261,2.4258,2.4165,2.4048,2.4184,2.4477,2.4184,2.397,2.397,2.397,2.3896,2.3674,2.3896,2.397,2.397,2.397,2.397,2.397,2.397,2.4327,2.4804,2.4493,2.4566,2.4873,2.4833,2.5476,2.6408,2.6067,2.5835,2.56,2.543,2.5707,2.6134,2.6134,2.6143,2.622,2.622,2.5729,2.5242,2.542,2.5339,2.5254,2.5616,2.6489,2.7091,2.6405,2.685,2.7285,2.6594,2.6126,2.5863,2.5809,2.5622,2.5383,2.5064,2.4996,2.5168,2.5659,2.619,2.6354,2.5806,2.5679,2.5679,2.5679,2.4991,2.4401,2.4213,2.3098,2.2412,2.2412,2.1283,2.0589,2.0589,2.0338,2.0099,1.999,2.0419,2.0386,1.9918,2.0378,2.0388,2.0013,2.118,2.1758,0.0,0.0,0.0,0.0,0.0,0.0,0.0,1.7836,1.8544,1.9492,2.0535,2.1496,2.2205,2.299,2.3758,2.4462,2.4485,2.4607,2.5172,2.4468,2.3982,2.4069,2.4309,2.4367,2.442,2.442,2.4298,2.4052,2.4052,2.4006,2.3846,2.3656,2.378,2.4313,2.3868,2.3678,2.3903,2.3678,2.3503,2.3378,2.3453,2.3415,2.3364,2.3364,2.3364,2.3364,2.3302,2.3302,2.3277,2.2989,2.2888,2.2863,2.2598,2.3732,2.5495,2.4973,2.476,2.4672,2.4356,2.4355,2.4491,2.4491,2.4351,2.4212,2.4212,2.3923,2.3606,2.3606,2.3606,2.3668,2.3777,2.484,2.5529,2.4271,2.5024,2.5696,2.464,2.4131,2.3975,2.4275,2.4055,2.3756,2.3526,2.3415,2.3657,2.4329,2.5293,2.5569,2.4556,2.4445,2.4445,2.4445,2.3592,2.2751,2.2229,2.1853,2.1589,2.137,2.0494,1.9943,1.9943,1.9194,1.8851,1.9092,1.9386,1.9653,1.988,2.0174,2.0321,2.0321,2.0628,2.0735,1.5458,1.6233,1.7152,1.7943,1.8196,1.8784,0.0,2.1015,2.1042,2.2191,2.2953,2.346,2.3554,2.3997,2.4305,2.4397,2.4559,2.4597,2.438,2.4316,2.4112,2.3883,2.3653,2.3615,2.3857,2.3883,2.3985,2.415,2.4176,2.4189,2.4137,2.4112,2.4112,2.4214,2.4112,2.3946,2.3639,2.3946,2.382,2.3203,2.3581,2.3605,2.3364,2.3364,2.3364,2.3364,2.3079,2.293,2.293,2.2521,2.236,2.2335,2.208,2.2166,2.2431,2.2493,2.2397,2.2177,2.2151,2.2687,2.3444,2.3444,2.3508,2.3608,2.3608,2.3024,2.2292,2.2292,2.2292,2.2466,2.3076,2.3325,2.3559,2.39,2.4147,2.4271,2.4086,2.3993,2.4009,2.396,2.3927,2.3863,2.3771,2.3573,2.3371,2.3191,2.3311,2.3368,2.3199,2.3199,2.3199,2.3199,2.3087,2.2564,2.14,2.1314,2.0787,1.9713,1.9554,1.9496,1.9496,1.9578,1.9666,1.9706,1.9987,2.0147,2.0187,2.0481,2.0628,2.0641,2.0922,2.0922,1.7542,1.8156,1.8707,1.9546,2.0147,2.0775,2.1764,2.2058,2.2365,2.322,2.3728,2.4109,2.4393,2.455,2.475,2.4778,2.4721,2.4585,2.4708,2.4093,2.3562,2.3517,2.3092,2.303,2.3757,2.3782,2.382,2.3855,2.388,2.3801,2.3741,2.3593,2.3736,2.4053,2.3748,2.3572,2.3572,2.3572,2.3446,2.3105,2.3175,2.3127,2.3004,2.2855,2.2781,2.2781,2.2804,2.2704,2.2558,2.2334,2.2334,2.2321,2.2212,2.2005,2.1873,2.1613,2.1472,2.1361,2.12,2.1408,2.1774,2.1774,2.1706,2.1608,2.1437,2.0994,2.0554,2.0387,2.0335,2.0399,2.0703,2.151,2.2013,2.1308,2.1874,2.2375,2.1622,2.1434,2.1469,2.1659,2.1707,2.161,2.1427,2.1334,2.1138,2.0816,2.2027,2.2749,2.2029,2.1972,2.1687,2.1002,2.0888,2.073,2.0213,2.0155,2.0007,1.9658,1.9466,1.9519,1.9853,1.9826,1.988,2.0054,2.0347,2.0494,2.0494,2.0788,2.0922,2.0935,2.1056,2.1042,1.8771,1.9367,1.986,2.0722,2.1643,2.2378,2.2458,2.2873,2.338,2.3758,2.409,2.4341,2.4594,2.4675,2.4687,2.4781,2.4522,2.4412,2.4731,2.3712,2.304,2.3236,2.2629,2.2507,2.3442,2.348,2.3541,2.3516,2.354,2.3507,2.355,2.3369,2.3514,2.3945,2.3526,2.3417,2.3651,2.3417,2.3225,2.3152,2.2959,2.2826,2.283,2.2564,2.2443,2.2455,2.2564,2.2515,2.2334,2.2334,2.2334,2.2334,2.2334,2.2138,2.1921,2.145,2.1256,2.1098,2.0917,2.0726,2.0665,2.0665,2.0496,2.0243,2.005,1.9748,1.9487,1.9229,1.9132,1.9072,1.9072,2.0017,2.0576,1.9392,2.0017,2.0639,1.9635,1.9456,1.9584,1.9903,1.9979,1.9916,1.9839,1.975,1.9623,1.9394,2.083,2.1654,2.0741,2.0612,2.0181,1.9256,1.9127,1.9127,1.9127,1.9264,1.9455,1.9654,1.962,1.9786,2.0153,2.0107,2.0147,2.0347,2.0641,2.0802,2.0802,2.1002,2.1109,2.1109,2.0982,2.0982,1.8448,1.9383,2.049,2.1376,2.2418,2.3367,2.3647,2.3941,2.4103,2.4027,2.424,2.4373,2.4022,2.4007,2.4137,2.4149,2.3989,2.384,2.384,2.3164,2.283,2.3084,2.243,2.2164,2.2673,2.2733,2.2951,2.3406,2.3442,2.355,2.3736,2.3748,2.3828,2.3828,2.3828,2.3816,2.3816,2.3816,2.3616,2.3363,2.3351,2.3285,2.3097,2.283,2.2721,2.2697,2.2455,2.2346,2.2334,2.2334,2.2334,2.2334,2.2334,2.2334,2.2211,2.1945,2.1583,2.1135,2.1122,2.0953,2.0665,2.0665,2.0496,2.0279,2.0267,1.9893,1.9524,1.9524,1.9265,1.9072,1.9072,1.9136,1.9136,1.9136,1.9136,1.9136,1.9136,1.9136,1.92,1.9571,1.9647,1.9711,2.003,1.9877,1.9687,1.9687,1.9481,1.9277,1.9277,1.9047,1.8779,1.8453,1.8415,1.8415,1.8415,1.8952,1.9285,1.9298,1.9873,2.0153,2.0167,2.0508,2.0655,2.0655,2.0949,2.1096,2.1096,2.1109,2.1109,2.1109,2.0792,2.0602,1.9959,2.067,2.1209,2.2575,2.304,2.3189,2.3473,2.3603,2.3581,2.3404,2.3314,2.3092,2.28,2.2892,2.3041,2.3169,2.352,2.376,2.376,2.3768,2.3478,2.2927,2.2782,2.2588,2.2162,2.237,2.2681,2.3315,2.3285,2.3454,2.4069,2.4106,2.4106,2.4106,2.4106,2.4021,2.3772,2.376,2.3724,2.3628,2.3459,2.3309,2.3121,2.314,2.2983,2.2733,2.2818,2.2661,2.2334,2.2334,2.2334,2.2334,2.2334,2.2334,2.2321,2.2162,2.1909,2.1547,2.1185,2.1074,2.0965,2.0795,2.0605,2.0509,2.0327,2.0146,1.9929,1.9633,1.9475,1.9289,1.912,1.9072,1.9072,1.9072,1.9072,1.9072,1.9072,1.9072,1.9136,1.9264,1.9264,1.9328,1.9392,1.9382,1.9271,1.9086,1.9124,1.9181,1.9181,1.9105,1.9003,1.8914,1.8902,1.8902,1.8902,1.9111,1.9312,1.9566,1.955,1.9727,2.0114,2.005,2.0089,2.0269,2.0373,2.0425,2.0425,2.0425,2.0425,2.0425,2.0297,2.0297,2.0644,2.1267,2.1596,2.3065,2.3254,2.3123,2.3199,2.3298,2.3111,2.2671,2.243,2.2137,2.1682,2.182,2.2153,2.2491,2.3104,2.3659,2.3949,2.3468,2.2901,2.2333,2.2252,2.1811,2.0635,2.119,2.2053,2.3195,2.2678,2.2811,2.3977,2.4178,2.419,2.4094,2.419,2.4106,2.3772,2.376,2.376,2.376,2.3592,2.3502,2.3333,2.3418,2.3261,2.2947,2.3084,2.2879,2.2479,2.2479,2.2418,2.2334,2.2334,2.2334,2.2334,2.2334,2.215,2.1945,2.1571,2.1292,2.1098,2.0929,2.0807,2.0641,2.0472,2.0352,2.0207,1.9857,1.9688,1.9579,1.941,1.9289,1.9217,1.9217,1.9145,1.9072,1.9072,1.9072,1.9072,1.9072,1.9072,1.9072,1.9072,1.9072,1.9012,1.8855,1.905,1.91,1.8913,1.8975,1.8988,1.89,1.8888,1.8888,1.8888,1.9098,1.9298,1.9487,1.9536,1.9725,2.0094,1.9941,1.9928,2.0106,2.0106,2.0106,2.0106,2.0106,2.0106,2.0106,1.9979,1.9915,2.0583,2.1089,2.1632,2.2721,2.3174,2.3275,2.2996,2.292,2.2671,2.1807,2.1612,2.1373,2.065,2.0798,2.134,2.2128,2.2681,2.3267,2.3968,2.2333,2.1129,2.132,2.0958,1.9964,1.8253,1.9352,2.0889,2.2704,2.1457,2.1464,2.3475,2.3794,2.3899,2.3752,2.3968,2.3968,2.3784,2.3772,2.376,2.376,2.376,2.376,2.376,2.3507,2.3387,2.3363,2.3176,2.2988,2.2733,2.2733,2.2576,2.2334,2.2334,2.2334,2.2334,2.2334,2.2334,2.2223,2.1981,2.1535,2.1147,2.1135,2.0953,2.0665,2.0665,2.0496,2.0291,2.0279,2.0098,1.9905,1.9893,1.9688,1.9548,1.947,1.9277,1.9096,1.9084,1.9072,1.9072,1.9072,1.9072,1.9072,1.9072,1.9072,1.9072,1.9072,1.9072,1.8891,1.8396,1.8553,1.8613,1.836,1.8336,1.8336,1.8336,1.8864,1.9199,1.9199,1.9701,2.0043,2.0043,2.0043,2.0043,1.9915,2.0043,2.0043,1.9915,2.0043,2.0043,2.0043,1.9711,1.9571,2.1401,2.1869,2.2239,2.303,2.2732,2.2191,2.1921,2.1701,2.1285,2.0264,2.0069,1.9735,1.8809,1.9627,2.0605,2.1003,2.1364,2.1742,2.2118,2.1065,1.9995,1.9483,1.9473,1.9211,1.8335,1.7583,1.7964,1.9672,1.9025,1.9162,2.0531,2.048,2.1149,2.2626,2.2588,2.2988,2.4061,2.3856,2.376,2.376,2.376,2.376,2.376,2.37,2.3556,2.3375,2.3381,2.308,2.2733,2.2733,2.2576,2.2334,2.2334,2.2334,2.2334,2.2334,2.2334,2.2321,2.2186,2.1812,2.1341,2.1124,2.0953,2.0665,2.0665,2.0617,2.0533,2.0327,2.0231,2.0134,1.9941,1.9833,1.9724,1.9584,1.9475,1.9314,1.912,1.9072,1.9072,1.9072,1.9072,1.9072,1.9072,1.9072,1.9072,1.9072,1.9072,1.9024,1.8891,1.8939,1.8951,1.8879,1.8879,1.8879,1.8879,1.9066,1.9103,1.9103,1.9291,1.9328,1.9328,1.9328,1.8868,1.7818,1.8804,1.8804,1.7765,1.8804,1.9328,1.9328,1.9264,1.92,2.1701,2.2166,2.237,2.2741,2.2312,2.1571,2.1064,2.0641,2.0062,1.8988,1.8833,1.8553,1.7829,1.8734,1.9784,2.04,2.0478,2.0676,2.1409,1.9825,1.8432,1.8022,1.8169,1.7776,1.6566,1.6462,1.6519,1.6689,1.699,1.7808,1.9212,1.9307,1.9777,2.0729,2.0688,2.144,2.2901,2.3499,2.376,2.376,2.376,2.376,2.376,2.376,2.3688,2.3544,2.3544,2.3393,2.2995,2.2874,2.2745,2.2491,2.2382,2.1873,2.1187,2.1187,2.0737,2.0124,2.0124,1.9883,1.9753,2.0887,2.1064,2.0822,2.0771,2.0665,2.0641,2.0484,2.0448,2.0412,2.0267,2.0146,1.9989,1.9712,1.9621,1.9463,1.9132,1.9072,1.9072,1.9072,1.9072,1.9072,1.9072,1.8612,1.8419,1.9008,1.8033,1.7507,1.8086,1.8162,1.8162,1.8162,1.7636,1.7249,1.7249,1.7249,1.7249,1.7249,1.7249,1.7249,1.7249,1.7249,1.6861,1.6073,1.6861,1.6861,1.6073,1.7507,1.8162,1.8226,1.8816,1.9132,2.1776,2.2114,2.237,2.2223,2.1836,2.1245,2.0364,1.9748,1.9048,1.795,1.7744,1.7672,1.7334,1.7889,1.8709,1.9721,1.9332,1.9409,2.0589,1.834,1.6514,1.6721,1.6745,1.6076,1.429,1.5568,1.5907,1.4277,1.5433,1.6881,1.8394,1.87,1.8694,1.8496,1.8959,1.9678,2.0818,2.2614,2.344,2.344,2.368,2.376,2.376,2.376,2.376,2.376,2.376,2.3616,2.3351,2.32,2.3,2.2633,2.2166,2.1146,1.9736,1.9585,1.8592,1.7379,1.7379,1.7265,1.745,2.0022,2.0852,2.0721,2.0459,2.0527,2.0665,2.0665,2.0665,2.0665,2.0665,2.0496,2.0255,1.9752,1.9567,1.9434,1.894,1.8944,1.9072,1.9072,1.9072,1.9008,1.888,1.7829,1.7367,1.8419,1.6473,1.5359,1.6592,1.6721,1.6721,1.6721,1.5619,1.4912,1.4912,1.4912,1.4912,1.4912,1.4912,1.4912,1.4912,1.4912,1.4782,1.4651,1.4782,1.4782,1.4651,1.6009,1.6721,1.6721,1.7992,1.8724,2.2054,2.2455,2.2552,2.2042,2.1704,2.1148,1.9893,1.9193,1.8456,1.7165,1.708,1.7008,1.6296,1.6529,1.6959,1.7467,1.6401,1.5941,1.6956,1.5532,1.4412,1.4787,1.4822,1.4639,1.4265,1.4523,1.4611,1.4258,1.4495,1.4833,1.5089,1.5075,1.5613,1.685,1.8309,1.9037,1.9033,2.0818,2.1625,2.1706,2.3107,2.376,2.376,2.376,2.376,2.376,2.376,0.0,2.3375,2.3327,2.3092,2.2569,2.1128,2.0212,1.9661,1.829,1.7607,1.7379,1.7379,1.736,1.7341,1.7551,1.829,1.8987,1.8827,1.968,2.0665,2.0665,2.0665,2.0665,2.0665,2.0641,2.0197,1.8553,1.9032,1.9399,1.7725,1.8291,1.9072,1.9072,1.9072,1.8752,1.7571,1.7173,1.6721,1.5759,1.5238,1.4968,1.5229,1.5229,1.5229,1.5229,1.5043,1.4912,1.4912,1.4912,1.4912,1.4912,1.4912,1.4912,1.4912,1.4912,1.4324,1.321,1.4324,1.4324,1.3144,1.4577,1.5229,1.5303,1.56,1.583,2.2114,2.2527,2.2636,2.2249,2.174,2.0871,1.9398,1.8432,1.7551,1.6501,1.6272,1.6187,1.5934,1.5875,1.6007,1.6477,1.5091,1.4367,1.5553,1.4341,1.358,1.4116,1.4251,1.4299,1.4299,1.4299,1.4299,1.4299,1.4299,1.4299,1.4299,1.4156,1.4468,1.5246,1.685,1.7587,1.7386,1.9115,2.0364,2.1222,2.2039,2.2935,2.376,2.376,2.376,2.376,2.376,2.3197,2.2339,2.3107,2.2186,2.0262,2.021,1.9014,1.715,1.6389,1.5548,1.4867,1.4867,1.4867,1.481,1.4455,1.5884,1.7631,1.7298,1.7689,1.832,1.832,1.889,1.9471,1.9471,1.9471,1.923,1.8164,1.7623,1.7145,1.6145,1.6473,1.712,1.7829,1.8022,1.8022,1.8086,1.685,1.5944,1.6009,1.4119,1.2947,1.3735,1.3144,1.3013,1.3735,1.3144,1.2684,1.2684,1.2684,1.2684,1.2684,1.2684,1.2684,1.2684,1.2684,1.2421,1.1703,1.2355,1.2355,1.1703,1.317,1.3888,1.3809,1.4757,1.5231,2.1945,2.2406,2.2564,2.2174,2.1643,2.0629,1.8645,1.7446,1.6523,1.5677,1.5141,1.4931,1.5464,1.4877,1.4542,1.5156,1.3793,1.3066,1.4414,1.3706,1.3241,1.3987,1.4204,1.4299,1.4299,1.4299,1.4299,1.4299,1.4272,1.4265,1.4299,1.4156,1.4055,1.4021,1.5235,1.5824,1.556,1.7299,1.8869,2.0079,2.0807,2.1959,2.3267,2.36,2.376,2.376,2.376,2.2774,2.1281,2.2429,2.0985,1.8062,1.8852,1.7405,1.4867,1.4483,1.3568,1.2501,1.2501,1.2501,1.2461,1.2196,1.4003,1.6168,1.5765,1.5849,1.6131,1.6131,1.6987,1.791,1.791,1.791,1.7837,1.7544,1.6011,1.4684,1.4885,1.4912,1.5238,1.6333,1.6527,1.6786,1.7636,1.5944,1.4707,1.5544,1.2808,1.1115,1.2231,1.1372,1.1115,1.2231,1.1372,1.0717,1.0717,1.0717,1.0731,1.0765,1.0738,1.0731,1.0765,1.0772,1.0751,1.0717,1.0751,1.0772,1.0772,1.1911,1.2519,1.2472,1.3823,1.4523,2.1402,2.1921,2.2174,2.1679,2.1305,2.0362,1.7386,1.6171,1.542,1.4527,1.338,1.2863,1.4116,1.268,1.1512,1.2114,1.1408,1.1199,1.2561,1.2852,1.3241,1.3987,1.4204,1.4299,1.4299,1.4299,1.4299,1.4299,1.417,1.415,1.4292,1.4156,1.4007,1.3865,1.3892,1.3825,1.3666,1.5381,1.6344,1.6492,1.9674,2.1303,2.1464,2.3107,2.376,2.376,2.376,2.2774,0.0,2.1213,1.9947,1.7826,1.6364,1.5399,1.4713,1.3267,1.2656,1.2501,1.2501,1.2501,1.2474,1.2318,1.3289,1.449,1.4201,1.5008,1.6131,1.6131,1.6202,1.6343,1.6343,1.6343,1.6238,1.5835,1.4423,1.3486,1.4623,1.4912,1.4912,1.5043,1.5098,1.4707,1.3604,1.3144,1.2618,1.1439,1.0982,1.0717,1.085,1.0784,1.0717,1.085,1.0784,1.0717,1.0717,1.0717,1.0778,1.0853,1.0799,1.0778,1.0853,1.086,1.0793,1.0724,1.0793,1.086,1.086,1.0932,1.1068,1.1331,1.1489,1.165,2.1062,2.1619,2.175,2.0336,1.9758,1.8698,1.5721,1.4457,1.3714,1.3212,1.2525,1.2178,1.2955,1.1827,1.0924,1.1411,1.0582,1.0229,1.1402,1.1748,1.2257,1.3281,1.3614,1.3899,1.4265,1.4299,1.4299,1.4299,1.4245,1.4197,1.4163,1.4014,1.3946,1.398,1.3831,1.3688,1.3539,1.4194,1.5052,1.6008,1.8454,2.016,2.1303,2.3027,2.3267,2.22,2.22,2.0572,0.0,1.9131,1.767,1.4853,1.5279,1.4649,1.3421,1.2733,1.2501,1.2501,1.2501,1.2501,1.2481,1.2338,1.2634,1.2896,1.2743,1.2964,1.3381,1.3381,1.4093,1.4796,1.4796,1.4796,1.4489,1.3218,1.2407,1.2014,1.2285,1.2355,1.2618,1.3473,1.3669,1.3735,1.3997,1.3341,1.2618,1.2033,1.1247,1.0717,1.0717,1.0717,1.0717,1.0717,1.0717,1.0717,1.0717,1.0717,1.0785,1.0873,1.0826,1.0928,1.107,1.1077,1.105,1.0989,1.105,1.1077,1.1077,1.1111,1.1138,1.1165,1.1355,1.1423,1.9837,2.0415,2.035,1.8616,1.7839,1.683,1.416,1.2907,1.2275,1.1964,1.1345,1.1028,1.1738,1.0945,1.0262,1.0613,0.9975,0.9802,1.0739,1.1151,1.1694,1.2766,1.3119,1.3492,1.4048,1.4224,1.4299,1.4299,1.4217,1.4136,1.4075,1.3844,1.3783,1.3933,1.3838,1.3709,1.3559,1.3559,1.4083,1.5275,1.6992,1.8454,1.9755,2.1475,2.1556,2.0403,2.0411,1.8636,0.0,1.7154,1.5745,1.2879,1.4223,1.3774,1.2501,1.2501,1.2501,1.2501,1.2501,1.2501,1.2481,1.2338,1.2189,1.2033,1.1877,1.1735,1.1619,1.1619,1.2402,1.3246,1.3246,1.3246,1.2877,1.1511,1.1234,1.1084,1.0785,1.0717,1.0982,1.1967,1.2165,1.2487,1.3473,1.2816,1.2165,1.2165,1.1306,1.0717,1.0717,1.0717,1.0717,1.0717,1.0717,1.0717,1.0717,1.0717,1.0785,1.0873,1.084,1.0968,1.1158,1.1234,1.1234,1.1234,1.1206,1.1226,1.1233,1.1294,1.1314,1.1301,1.147,1.1518,1.7565,1.7847,1.7919,1.6451,1.5856,1.4988,1.279,1.1745,1.1114,1.0759,0.954,0.8991,1.0443,0.9754,0.8988,0.9193,0.9408,0.9924,1.0752,1.1335,1.1891,1.2644,1.2868,1.3139,1.3593,1.4041,1.4299,1.4299,1.4014,1.3912,1.4061,1.3648,1.3478,1.3627,1.3634,1.3559,1.3403,1.3403,1.3403,1.3486,1.5193,1.6008,1.609,1.7883,1.8626,1.8607,1.848,1.7539,0.0,1.551,1.438,1.3009,1.2623,1.2501,1.2501,1.2501,1.2501,1.2501,1.2501,1.2501,1.2481,1.2338,1.2189,1.2033,1.1877,1.1735,1.1619,1.1619,1.1619,1.1619,1.1619,1.1619,1.1545,1.1302,1.1234,1.1084,1.0785,1.0717,1.0717,1.0717,1.0717,1.0717,1.0717,1.0717,1.0717,1.0717,1.0717,1.0717,1.0717,1.0717,1.0717,1.0717,1.0717,1.0717,1.0717,1.0717,1.0785,1.0873,1.0806,1.0853,1.122,1.1234,1.1234,1.1234,1.1314,1.1389,1.1389,1.124,1.1321,1.1613,1.1463,1.147,1.5063,1.537,1.5319,1.3643,1.3111,1.2492,1.0431,0.9727,0.9486,0.9381,0.8881,0.868,0.9366,0.9154,0.9026,0.9537,0.9693,0.9998,1.0697,1.1179,1.1742,1.2488,1.3342,1.3933,1.4075,1.4122,1.4143,1.4143,1.3953,1.3817,1.377,1.3634,1.358,1.3627,1.3526,1.3451,1.3403,1.3403,1.3403,1.3397,1.5193,1.6008,1.6082,1.7747,1.7844,1.6713,1.6515,1.5449,1.3728,1.3764,1.3339,1.2651,1.2657,1.2589,1.2501,1.2501,1.2501,1.2501,1.2501,1.2501,1.2481,1.2338,1.2189,1.2033,1.1877,1.1735,1.1619,1.1619,1.1619,1.1619,1.1619,1.1619,1.1565,1.1369,1.124,1.1111,1.0914,1.0725,1.0717,1.0717,1.0717,1.0717,1.0717,1.0717,1.0717,1.0717,1.0717,1.0717,1.0717,1.0717,1.0717,1.0717,1.0717,1.0717,1.0717,1.0717,1.0785,1.0873,1.0995,1.1111,1.1307,1.1416,1.1477,1.1477,1.1525,1.1545,1.1545,1.1497,1.1525,1.1619,1.1572,1.1572,1.2662,1.3138,1.3026,1.1376,1.0922,1.0544,0.9175,0.8777,0.8621,0.8621,0.8547,0.856,0.8804,0.8844,0.8999,0.9429,0.9632,0.993,1.048,1.1036,1.1667,1.2413,1.3315,1.3878,1.3878,1.3939,1.3987,1.3987,1.3844,1.3722,1.3634,1.3573,1.3546,1.3546,1.3451,1.3403,1.3403,1.3403,1.3403,1.3403,1.4458,1.5028,1.5028,1.5983,1.5828,1.4769,1.462,1.3872,0.0,1.28,1.2712,1.2589,1.263,1.2583,1.2501,1.2501,1.2501,1.2501,1.2501,1.2501,1.2467,1.2271,1.206,1.1877,1.1782,1.1687,1.1619,1.1619,1.1619,1.1619,1.1619,1.1619,1.1579,1.143,1.1274,1.1124,1.0914,1.0759,1.0717,1.0717,1.0717,1.0717,1.0717,1.0717,1.0717,1.0717,1.0717,1.0744,1.0799,1.0758,1.0765,1.0873,1.0785,1.0744,1.0799,1.0751,1.0758,1.0793,1.1002,1.1151,1.1301,1.145,1.1558,1.1619,1.1619,1.1619,1.1619,1.1619,1.1619,1.1619,1.1619,1.1619,0.0,1.1045,1.0947,0.9631,0.9241,0.9105,0.8906,0.8662,0.0,0.8465,0.8465,0.852,0.871,0.8838,0.8892,0.8966,0.9388,0.9815,1.0276,1.1002,1.1762,1.2494,1.2956,1.322,1.322,1.3587,1.3824,1.3824,1.3695,1.3614,1.3614,1.3478,1.3403,1.3403,1.3403,1.3403,1.3403,1.3403,1.3403,1.3403,1.3403,1.3397,1.3376,1.3227,1.3152,0.0,1.284,1.2793,1.2908,1.2623,1.2583,1.2698,1.2556,1.2501,1.2501,1.2501,1.2501,1.2501,1.2501,1.2494,1.244,1.2142,1.185,1.1619,1.1619,1.1619,1.1619,1.1619,1.1619,1.1619,1.1619,1.1619,1.1586,1.1443,1.1294,1.1138,1.0927,1.0846,1.0731,1.0724,1.0717,1.0717,1.0717,1.0717,1.0717,1.0717,1.0717,1.0772,1.086,1.0745,1.0833,1.1131,1.0907,1.0799,1.088,1.0759,1.0738,1.0738,1.082,1.1036,1.1241,1.1328,1.147,1.1613,1.1619,1.1619,1.1619,1.1619,1.1619,1.1619,1.1619,1.1619,0.8619,0.0,0.892,0.8436,0.8418,0.8438,0.0,0.8289,0.8374,0.8374,0.8374,0.8525,0.9016,0.8893,0.9028,0.9836,1.0053,1.0317,1.088,1.1796,1.2651,1.3288,1.3553,1.3682,1.3682,1.3682,1.3682,1.3682,1.3539,1.3458,1.3458,1.3417,1.3403,1.3403,1.3403,1.3403,1.3403,1.3403,1.3403,1.3403,1.3403,1.3342,1.322,1.3078,1.2949,1.2827,1.2637,1.2576,1.2603,1.2528,1.2522,1.2556,1.2515,1.2501,1.2501,1.2501,1.2501,1.2501,1.2501,1.2433,1.2291,1.1986,1.1762,1.1619,1.1619,1.1619,1.1619,1.1619,1.1619,1.1619,1.1619,1.1619,1.1613,1.1572,1.145,1.1294,1.1145,1.0995,1.0793,1.0744,1.0717,1.0717,1.0717,1.0717,1.0717,1.0717,1.0717,1.0772,1.086,1.0745,1.0833,1.1131,1.1002,1.0955,1.1097,1.0982,1.0826,1.0826,1.1145,1.1301,1.1335,1.1484,1.1586,1.1619,1.1619,1.1619,1.1619,1.1619,1.1619,1.1619,1.1619,1.1619,0.7907,0.8194,0.8452,0.837,0.8411,0.8452,0.8364,0.8255,0.8167,0.8167,0.8275,0.8486,0.8879,0.8988,0.9225,0.9869,1.0202,1.0683,1.1558,1.2284,1.2929,1.3458,1.3593,1.3641,1.3641,1.3566,1.3526,1.3526,1.3451,1.3403,1.3403,1.3403,1.3403,1.3403,1.3403,1.3403,1.3403,1.3403,1.3403,1.3403,1.3329,1.3254,1.3166,1.2949,1.2807,1.2718,1.2569,1.2501,1.2501,1.2501,1.2501,1.2501,1.2501,1.2461,1.2413,1.2474,1.2413,1.2311,1.2379,1.2264,1.2054,1.1884,1.1735,1.1619,1.1619,1.1619,1.1619,1.1619,1.1619,1.1619,1.1619,1.1619,1.1619,1.1619,1.145,1.126,1.1248,1.0995,1.0819,1.0738,1.0717,1.0717,1.0717,1.0717,1.0717,1.0717,1.0717,1.0772,1.086,1.0745,1.0833,1.1131,1.1036,1.1009,1.1151,1.1158,1.1124,1.105,1.1199,1.1314,1.1389,1.1538,1.1619,1.1619,1.1619,1.1619,1.1619,1.1619,1.1619,1.1619,1.1619,1.1619,0.7896,0.8323,0.8757,0.8669,0.8696,0.873,0.8682,0.8377,0.8056,0.8056,0.8323,0.8581,0.8804,0.9157,0.9503,0.9768,1.029,1.1063,1.2196,1.2569,1.2895,1.3349,1.3403,1.3403,1.3403,1.3403,1.3403,1.3403,1.3403,1.3403,1.3403,1.3403,1.3403,1.3403,1.3403,1.339,1.3363,1.3363,1.3363,1.3363,1.3214,1.3125,1.3098,1.2847,1.2718,1.2684,1.2556,1.2501,1.2501,1.2501,1.2501,1.2501,1.2474,1.2393,1.2305,1.24,1.2277,1.2081,1.2182,1.2047,1.183,1.1809,1.1714,1.1619,1.1619,1.1619,1.1619,1.1619,1.1619,1.1619,1.1619,1.1619,1.1619,1.1619,1.1423,1.1219,1.1241,1.0962,1.0772,1.0731,1.0717,1.0717,1.0717,1.0717,1.0717,1.0717,1.0717,1.0772,1.086,1.0745,1.0833,1.1131,1.1036,1.1016,1.1185,1.1294,1.1321,1.124,1.1233,1.1294,1.1423,1.1552,1.1619,1.1619,1.1619,1.1619,1.1619,1.1619,1.1619,1.1619,1.1619,1.1619,0.8106,0.8688,0.9016,0.8518,0.8621,0.8832,0.8574,0.8465,0.8418,0.8418,0.8554,0.8838,0.9374,0.953,0.9829,1.055,1.1138,1.1728,1.2549,1.2705,1.2895,1.3349,1.3403,1.3403,1.3403,1.3403,1.3403,1.3403,1.3403,1.3403,1.3403,1.3403,1.3403,1.3403,1.3403,1.3342,1.3207,1.3207,1.3207,1.3207,1.3064,1.2922,1.28,1.2752,1.2657,1.2535,1.2515,1.2501,1.2501,1.2501,1.2501,1.2488,1.2372,1.2311,1.2277,1.2169,1.2176,1.2047,1.1938,1.187,1.1809,1.1694,1.164,1.1619,1.1619,1.1619,1.1619,1.1619,1.1619,1.1619,1.1619,1.1619,1.1619,1.1619,1.1586,1.1477,1.1219,1.1124,1.1023,1.0772,1.0717,1.0717,1.0717,1.0717,1.0717,1.0717,1.0717,1.0772,1.086,1.0745,1.0833,1.1131,1.1036,1.1056,1.1335,1.126,1.1301,1.1538,1.1552,1.1558,1.1586,1.1606,1.1619,1.1619,1.1619,1.1619,1.1619,1.1619,1.1619,1.1619,1.1619,1.1619,0.7855,0.8397,0.8866,0.8676,0.9089,0.9444,0.9361,0.9144,0.8967,0.8967,0.9089,0.9306,0.9659,0.9863,1.0243,1.1056,1.1491,1.1938,1.2522,1.2752,1.2963,1.3247,1.3349,1.3403,1.3403,1.3403,1.3403,1.3403,1.3403,1.3403,1.3403,1.3403,1.3363,1.3281,1.3275,1.3207,1.3057,1.2976,1.2976,1.3057,1.2908,1.28,1.2725,1.2644,1.2569,1.2501,1.2501,1.2501,1.2501,1.2501,1.2501,1.2488,1.2345,1.2237,1.2142,1.1904,1.187,1.1918,1.1769,1.1714,1.1708,1.164,1.1619,1.1619,1.1619,1.1619,1.1619,1.1619,1.1619,1.1619,1.1619,1.1619,1.1619,1.1619,1.1491,1.1335,1.1261,1.1036,1.088,1.0744,1.0717,1.0717,1.0717,1.0717,1.0717,1.0717,1.0717,1.0744,1.0752,1.0765,1.0806,1.1023,1.0989,1.107,1.1369,1.1328,1.1348,1.1491,1.1572,1.1619,1.1619,1.1619,1.1619,1.1619,1.1619,1.1619,1.1619,1.1619,1.1619,1.1619,1.1619,1.1619,0.7712,0.8174,0.8669,0.8927,0.9415,0.9815,0.9957,0.97,0.9408,0.9517,0.9659,0.9802,0.991,1.0263,1.0751,1.1389,1.1742,1.2081,1.2494,1.2759,1.2963,1.3105,1.3227,1.3295,1.3295,1.3295,1.3308,1.3342,1.3315,1.3315,1.3349,1.3315,1.3247,1.3125,1.3125,1.3057,1.2908,1.2786,1.2793,1.2908,1.2752,1.2678,1.2671,1.2556,1.2501,1.2501,1.2501,1.2501,1.2501,1.2467,1.2454,1.2433,1.225,1.2094,1.1932,1.1701,1.1687,1.1769,1.1653,1.1619,1.1619,1.1619,1.1619,1.1619,1.1619,1.1619,1.1619,1.1619,1.1619,1.1619,1.1619,1.1619,1.1619,1.1619,1.1409,1.1206,1.1241,1.0955,1.0765,1.0724,1.0751,1.0772,1.0772,1.0772,1.0772,1.0772,1.0744,1.0731,1.0772,1.0772,1.0833,1.0982,1.0995,1.1104,1.1369,1.1423,1.1443,1.1443,1.1552,1.1619,1.1619,1.1619,1.1619,1.1619,1.1619,1.1619,1.1619,1.1619,1.1619,1.1619,1.1619,1.1619,0.8031,0.8313,0.849,0.905,0.9234,0.9361,0.9862,0.97,0.9496,0.9856,1.0127,1.0236,1.0243,1.0833,1.1416,1.1748,1.206,1.2366,1.2671,1.2732,1.2807,1.2956,1.2983,1.299,1.299,1.299,1.3051,1.318,1.3064,1.3051,1.318,1.3064,1.299,1.2976,1.2976,1.2901,1.2745,1.2732,1.2732,1.2745,1.2589,1.2515,1.2515,1.2508,1.2501,1.2501,1.2501,1.2501,1.2488,1.2359,1.2305,1.2277,1.1979,1.1775,1.1647,1.1626,1.1626,1.1633,1.1619,1.1619,1.1619,1.1619,1.1619,1.1619,1.1619,1.1619,1.1619,1.1619,1.1619,1.1619,1.1619,1.1619,1.1619,1.1619,1.1497,1.1335,1.1261,1.1043,1.0826,1.0751,1.0766,1.0867,1.0867,1.0867,1.0867,1.0867,1.0812,1.0772,1.0847,1.0867,1.0989,1.1131,1.1145,1.1212,1.1375,1.1518,1.1606,1.1606,1.1613,1.1619,1.1619,1.1619,1.1619,1.1619,1.1619,1.1619,1.1619,1.1619,1.1619,1.1619,1.1619,1.1619,0.7576,0.8119,0.8499,0.892,0.9157,0.9429,0.9869,1.0134,1.029,1.0489,1.0724,1.0806,1.0711,1.1002,1.1314,1.1525,1.1891,1.2223,1.2427,1.2617,1.2752,1.2807,1.2901,1.2963,1.2963,1.2963,1.2983,1.3037,1.299,1.3024,1.3166,1.3119,1.3051,1.2963,1.2963,1.284,1.2589,1.2589,1.2589,1.2589,1.2528,1.2501,1.2501,1.2501,1.2501,1.2494,1.2406,1.2372,1.2359,1.221,1.2149,1.2128,1.1911,1.1742,1.1619,1.1619,1.1619,1.1619,1.1619,1.1619,1.1619,1.1619,1.1619,1.1619,1.1619,1.1619,1.1619,1.1619,1.1619,1.1619,1.1619,1.1619,1.1619,1.1619,1.143,1.1233,1.1241,1.0975,1.0785,1.0731,1.0765,1.0766,1.0867,1.088,1.088,1.088,1.0833,1.0813,1.0873,1.088,1.1043,1.128,1.1389,1.143,1.1396,1.1531,1.1579,1.1484,1.1565,1.1619,1.1619,1.1619,1.1619,1.1619,1.1619,1.1619,1.1619,1.1619,1.1619,1.1619,1.1619,1.1619,0.7367,0.8072,0.8499,0.8797,0.9164,0.951,1.0012,1.0358,1.0663,1.0955,1.1056,1.1077,1.1023,1.1097,1.1226,1.143,1.1803,1.2115,1.2271,1.2501,1.2657,1.2657,1.2752,1.2813,1.2813,1.2813,1.2834,1.2888,1.284,1.2881,1.3024,1.299,1.2915,1.2661,1.2655,1.2476,1.2114,1.2114,1.2114,1.2114,1.2114,1.2269,1.2501,1.2501,1.2501,1.2494,1.2352,1.2291,1.2277,1.2074,1.1965,1.1911,1.1803,1.1701,1.1619,1.1619,1.1619,1.1619,1.1619,1.1619,1.1619,1.1619,1.1619,1.1619,1.1619,1.1619,1.1619,1.1619,1.1586,1.1545,1.1545,1.1545,1.1545,1.1545,1.1314,1.1097,1.1097,1.0894,1.0717,1.0717,1.0758,1.0839,1.0989,1.0914,1.0914,1.1077,1.0941,1.0914,1.1008,1.109,1.1185,1.1436,1.1558,1.1579,1.147,1.1558,1.1572,1.147,1.1558,1.1599,1.1552,1.1592,1.1619,1.1619,1.1619,1.1619,1.1619,1.1619,1.1619,1.1619,1.1619,1.1619,0.7655,0.8153,0.8384,0.877,0.9164,0.9544,1.0148,1.0283,1.0453,1.1043,1.105,1.0995,1.1138,1.1234,1.1267,1.1565,1.1864,1.2115,1.2264,1.2406,1.2494,1.2501,1.2501,1.2501,1.2501,1.2501,1.2562,1.2718,1.2589,1.2569,1.2646,1.2583,1.2347,1.1882,1.1882,1.1727,1.1262,1.134,1.134,1.1262,1.134,1.1727,1.2501,1.2501,1.2501,1.2494,1.2352,1.2284,1.2264,1.1952,1.1748,1.1619,1.1619,1.1619,1.1619,1.1619,1.1619,1.1619,1.1619,1.1619,1.1619,1.1619,1.1619,1.1619,1.1619,1.1619,1.1619,1.1619,1.1504,1.1389,1.1389,1.1389,1.1389,1.1389,1.1165,1.088,1.088,1.0759,1.0717,1.0717,1.0846,1.0989,1.1138,1.1043,1.0981,1.1341,1.1138,1.0988,1.1355,1.1396,1.145,1.1606,1.1619,1.1619,1.1619,1.1619,1.1619,1.1619,1.1619,1.1552,1.1402,1.1538,1.1619,1.1619,1.1619,1.1619,1.1619,1.1619,1.1619,1.1619,1.1619,1.1619,0.6427,0.7636,0.8635,0.8824,0.9343,0.9924,1.0215,1.0527,1.0887,1.1382,1.1362,1.1274,1.1314,1.1321,1.1355,1.1443,1.1708,1.1918,1.1959,1.187,1.1851,1.1957,1.1664,1.1549,1.1643,1.165,1.1669,1.1713,1.1675,1.1713,1.1852,1.182,1.1723,1.1644,1.1644,1.1516,1.1262,1.117,1.117,1.134,1.117,1.133,1.165,1.165,1.1599,1.1504,1.1365,1.1245,1.1138,1.0954,1.0853,1.0815,1.0815,1.0815,1.0815,1.0815,1.0815,1.0815,1.0815,1.0815,1.0815,1.0815,1.0966,1.1116,1.0894,1.111,1.1386,1.1102,1.1137,1.1233,1.1233,1.1158,1.1104,1.1206,1.1084,1.088,1.088,1.0759,1.0717,1.0717,1.0758,1.0839,1.0989,1.0907,1.0907,1.1002,1.109,1.1172,1.1369,1.1484,1.1565,1.1613,1.1619,1.1619,1.1619,1.1619,1.1572,1.1463,1.1558,1.1599,1.1552,1.1592,1.1619,1.1619,1.1619,1.1619,1.1619,1.1619,1.1619,1.1619,1.1619,1.1619,0.6211,0.7644,0.893,0.8672,0.9338,1.0215,1.0487,1.0758,1.0988,1.145,1.1409,1.1341,1.1457,1.143,1.1339,1.1257,1.1464,1.1537,1.139,1.1299,1.127,1.1359,1.1138,1.1018,1.1097,1.1103,1.1103,1.1103,1.1158,1.1201,1.1225,1.128,1.1209,1.0999,1.0999,1.088,1.065,1.0574,1.0574,1.0644,1.0574,1.0574,1.065,1.1087,1.1115,1.0981,1.0847,1.0706,1.0644,1.0564,1.0527,1.0527,1.0527,1.0527,1.0527,1.0527,1.0527,1.0521,1.0466,1.0447,1.0441,1.0386,1.0515,1.0586,1.0367,1.0594,1.0811,1.0601,1.0568,1.0659,1.0659,1.0561,1.0557,1.0975,1.0968,1.0793,1.0793,1.0785,1.0717,1.0717,1.0717,1.0772,1.0853,1.0833,1.09,1.1016,1.1158,1.1307,1.1463,1.1511,1.1531,1.1531,1.1531,1.1531,1.1531,1.1586,1.1579,1.1491,1.1511,1.1558,1.1619,1.1619,1.1619,1.1619,1.1619,1.1619,1.1619,1.1619,1.1619,1.1619,1.1619,1.1619,0.6669,0.7929,0.9052,0.843,0.9286,1.0426,1.0766,1.086,1.0948,1.1237,1.126,1.1177,1.1453,1.1393,1.1204,1.098,1.1049,1.1059,1.0694,1.0669,1.0604,1.0622,1.0467,1.0398,1.0559,1.0565,1.064,1.079,1.0905,1.0924,1.0796,1.0911,1.0766,1.0272,1.0266,1.0047,0.9671,0.9661,0.9661,0.9671,0.9661,0.9655,0.973,1.0614,1.0899,1.0766,1.0626,1.0499,1.0383,1.0371,1.0365,1.0365,1.0353,1.0353,1.0365,1.0353,1.0353,1.0347,1.022,1.0177,1.0153,1.0031,0.9989,1.0058,0.9989,1.0046,1.004,1.004,0.9942,0.9906,0.9906,0.9814,0.9892,1.0624,1.0685,1.0591,1.0651,1.0651,1.0651,1.0717,1.0717,1.0765,1.084,1.0812,1.0819,1.1118,1.128,1.1423,1.1579,1.1477,1.1389,1.1369,1.1369,1.1369,1.1369,1.1511,1.1599,1.1599,1.147,1.1457,1.1613,1.1606,1.1606,1.1619,1.1619,1.1613,1.1599,1.1599,1.1592,1.1579,1.1592,1.1599,0.6574,0.7056,0.7806,0.909,1.0059,1.0584,1.0419,1.0372,1.045,1.0737,1.077,1.0701,1.0487,1.0398,1.0392,1.0277,1.0401,1.0494,1.0423,0.9152,0.8309,0.839,0.7063,0.6641,0.7911,0.807,0.86,0.9891,0.9994,1.0,0.9972,0.9994,0.9924,0.9822,0.9822,0.9822,0.9671,0.9574,0.9574,0.9666,0.9574,0.9525,0.953,0.9874,0.9938,0.9815,0.9686,0.9618,0.9585,0.9424,0.9385,0.9374,0.9274,0.9296,0.9374,0.9274,0.9301,0.9368,0.924,0.9201,0.9196,0.9168,0.9365,0.9573,0.9226,0.9503,0.9899,0.9558,0.9599,0.9771,0.9771,0.9752,0.9734,0.9898,0.9946,0.9994,1.0259,1.0326,1.0392,1.0651,1.0717,1.0731,1.0765,1.0744,1.0819,1.1118,1.1192,1.1267,1.1423,1.1409,1.1348,1.1226,1.1212,1.1212,1.1212,1.1355,1.1443,1.1443,1.1409,1.1457,1.1613,1.1504,1.1497,1.1619,1.1619,1.1558,1.1443,1.1443,1.1382,1.1267,1.1382,1.1443,0.6713,0.7374,0.8469,0.9806,1.0432,1.0651,1.0452,1.0326,1.0165,1.0177,1.0191,1.0254,1.0115,1.0127,1.0058,0.985,0.9277,0.882,0.8679,0.7243,0.6237,0.6246,0.5383,0.5119,0.5998,0.6082,0.6378,0.7269,0.8058,0.8513,0.8386,0.9176,0.9557,0.9497,0.9497,0.9497,0.9497,0.9432,0.9432,0.9492,0.9427,0.94,0.94,0.9465,0.9459,0.9394,0.9275,0.9226,0.9215,0.9095,0.8976,0.8971,0.8906,0.8922,0.8971,0.8906,0.8922,0.896,0.8905,0.8867,0.8856,0.8796,0.8911,0.9047,0.8843,0.9002,0.9221,0.9019,0.9041,0.9189,0.9189,0.9189,0.9189,0.9189,0.9461,0.9728,0.9927,0.9994,0.9994,1.0193,1.0193,1.0212,1.0277,1.0476,1.071,1.0862,1.1157,1.1301,1.1382,1.1328,1.1226,1.1077,1.1063,1.1063,1.1063,1.1192,1.1314,1.1389,1.126,1.128,1.1504,1.1294,1.1321,1.1613,1.1619,1.1545,1.1389,1.1389,1.1314,1.1234,1.1246,1.1321,0.6953,0.8066,0.9465,0.9945,1.0372,1.069,1.0651,1.0392,1.006,0.9661,0.9679,0.9783,0.9829,0.9853,0.971,0.9371,0.8411,0.7447,0.6823,0.5583,0.4563,0.4332,0.4053,0.3999,0.4261,0.4266,0.448,0.506,0.6359,0.7254,0.7323,0.8727,0.941,0.9307,0.9302,0.9296,0.9275,0.9275,0.9264,0.9242,0.9242,0.9242,0.9242,0.9242,0.9253,0.9269,0.9155,0.9035,0.9025,0.89,0.8852,0.8847,0.883,0.883,0.8847,0.883,0.8836,0.8905,0.878,0.8742,0.872,0.8622,0.859,0.859,0.859,0.859,0.859,0.859,0.859,0.859,0.859,0.859,0.859,0.859,0.9056,0.9528,0.9594,0.9594,0.9594,0.9661,0.9728,0.9704,0.9758,1.0147,1.0442,1.0536,1.0918,1.1201,1.1104,1.106,1.1002,1.0792,1.084,1.084,1.084,1.1043,1.1179,1.1307,1.1015,1.107,1.1341,1.109,1.1069,1.1531,1.1538,1.1463,1.1314,1.1314,1.1233,1.1084,1.1111,1.1192,0.7297,0.8247,0.9071,0.8534,0.9503,1.0489,1.0293,1.0259,0.9987,0.9316,0.9201,0.9146,0.8834,0.8767,0.8767,0.87,0.8658,0.8176,0.6804,0.5414,0.4058,0.2805,0.1475,0.1125,0.2462,0.2602,0.3724,0.6321,0.6827,0.7522,0.8728,0.912,0.9318,0.9302,0.9302,0.9258,0.916,0.9155,0.9035,0.8927,0.8927,0.8927,0.8927,0.8927,0.8987,0.915,0.896,0.8906,0.8895,0.8845,0.8796,0.8785,0.8677,0.8704,0.878,0.8677,0.8704,0.8774,0.8655,0.8611,0.8606,0.8595,0.859,0.859,0.859,0.859,0.859,0.859,0.859,0.859,0.859,0.859,0.859,0.859,0.8656,0.8856,0.9117,0.9183,0.9256,0.9661,0.9728,0.9704,0.9758,0.9863,0.9986,1.0109,1.0215,1.0247,1.0129,1.0363,1.0435,1.0305,1.0552,1.0751,1.0751,1.0887,1.0921,1.0941,1.09,1.1023,1.1185,1.1036,1.1036,1.1219,1.1226,1.1151,1.0941,1.0941,1.0928,1.0785,1.0914,1.0921,0.7719,0.8438,0.902,0.9056,0.9626,1.0176,1.0084,0.9939,0.9629,0.9166,0.8984,0.8784,0.8651,0.859,0.859,0.859,0.7282,0.6024,0.5417,0.3405,0.1716,0.1107,0.0416,0.0278,0.098,0.0981,0.154,0.2868,0.4639,0.5852,0.6489,0.8157,0.9106,0.9106,0.9106,0.9084,0.8965,0.896,0.8933,0.8884,0.8884,0.8884,0.8879,0.8878,0.8916,0.8954,0.8905,0.8851,0.884,0.872,0.8666,0.866,0.8606,0.8622,0.866,0.8606,0.8622,0.866,0.8606,0.859,0.859,0.859,0.859,0.859,0.859,0.859,0.859,0.859,0.859,0.859,0.859,0.859,0.859,0.859,0.859,0.8651,0.8784,0.8851,0.8856,0.9056,0.9113,0.9159,0.9136,0.9387,0.9617,0.9674,0.994,1.0078,0.9937,1.0054,1.0072,0.994,1.0193,1.0392,1.0392,1.0652,1.0793,1.0873,1.0799,1.0887,1.1036,1.09,1.0853,1.0914,1.1077,1.109,1.088,1.088,1.0799,1.0724,1.0785,1.0799,0.7678,0.8282,0.8703,0.9429,0.9707,0.9888,0.987,0.9728,0.9484,0.9119,0.89,0.8717,0.859,0.8318,0.8051,0.8051,0.5967,0.416,0.3825,0.1881,0.0405,0.0068,0.0,0.0,0.0,0.0,0.0139,0.0486,0.2987,0.4661,0.5008,0.7465,0.8884,0.8884,0.8884,0.8868,0.8905,0.8872,0.8793,0.8793,0.8793,0.8793,0.8856,0.8764,0.8774,0.8856,0.8764,0.8725,0.8715,0.8628,0.859,0.859,0.859,0.859,0.859,0.859,0.859,0.859,0.859,0.859,0.859,0.859,0.859,0.859,0.859,0.859,0.859,0.859,0.859,0.859,0.859,0.859,0.859,0.859,0.859,0.859,0.859,0.859,0.859,0.859,0.866,0.8704,0.8644,0.9058,0.9285,0.9189,0.9531,0.9755,0.9617,0.9667,0.963,0.9534,0.9861,1.006,1.006,1.0326,1.0505,1.0685,1.0652,1.0638,1.082,1.0778,1.0717,1.0717,1.0941,1.0995,1.0826,1.0826,1.0833,1.0717,1.0717,1.0778,0.691,0.7428,0.7882,0.871,0.9313,0.9653,0.964,0.978,0.9779,0.9074,0.897,0.8984,0.8656,0.7445,0.651,0.651,0.5299,0.3825,0.2418,0.2084,0.148,0.0135,0.0,0.0,0.0,0.0,0.0539,0.1887,0.3543,0.5074,0.6449,0.8055,0.8884,0.8884,0.8884,0.8894,0.878,0.8666,0.8606,0.8606,0.8606,0.8606,0.8606,0.86,0.86,0.8606,0.86,0.8595,0.8595,0.859,0.859,0.859,0.859,0.859,0.859,0.859,0.859,0.859,0.859,0.859,0.859,0.859,0.859,0.859,0.859,0.859,0.859,0.859,0.859,0.859,0.859,0.859,0.859,0.859,0.859,0.859,0.859,0.859,0.859,0.859,0.8595,0.8633,0.8742,0.8837,0.8848,0.8837,0.8843,0.8804,0.8678,0.8928,0.9123,0.9117,0.9455,0.9728,0.9728,0.9728,0.9861,1.0199,1.0259,1.0392,1.0731,1.0724,1.0717,1.0717,1.0738,1.0738,1.0731,1.0731,1.0724,1.0717,1.0717,1.0724,0.6573,0.7,0.7429,0.8137,0.8468,0.8605,0.869,0.8818,0.8842,0.8482,0.8534,0.8607,0.8481,0.8138,0.7512,0.6577,0.5232,0.3758,0.2286,0.1345,0.0538,0.0067,0.0,0.0336,0.1277,0.1345,0.1948,0.3423,0.4855,0.5949,0.6425,0.7878,0.872,0.872,0.872,0.8698,0.8655,0.8611,0.859,0.859,0.859,0.859,0.859,0.859,0.859,0.859,0.859,0.859,0.859,0.859,0.859,0.859,0.859,0.859,0.859,0.859,0.859,0.859,0.859,0.859,0.859,0.859,0.859,0.859,0.859,0.859,0.859,0.859,0.859,0.859,0.859,0.859,0.859,0.859,0.859,0.859,0.859,0.859,0.859,0.859,0.859,0.86,0.8644,0.8655,0.8655,0.8655,0.8655,0.8638,0.8595,0.8717,0.8784,0.8784,0.9123,0.9322,0.9322,0.9528,0.9728,0.9861,1.006,1.0259,1.0392,1.0585,1.0717,1.0717,1.0717,1.0717,1.0717,1.0717,1.0717,1.0717,1.0717,1.0717,0.624,0.6647,0.7105,0.7752,0.7862,0.7884,0.8066,0.8194,0.8162,0.8027,0.8127,0.8307,0.835,0.8416,0.7832,0.603,0.4093,0.2484,0.1546,0.0606,0.0,0.0,0.0,0.0538,0.195,0.2084,0.2687,0.416,0.5637,0.6376,0.6376,0.7784,0.859,0.859,0.859,0.859,0.859,0.859,0.859,0.859,0.859,0.859,0.859,0.859,0.859,0.859,0.859,0.859,0.859,0.859,0.859,0.859,0.859,0.859,0.859,0.859,0.859,0.859,0.859,0.859,0.859,0.859,0.859,0.859,0.859,0.859,0.859,0.859,0.859,0.859,0.859,0.859,0.859,0.859,0.859,0.859,0.859,0.859,0.859,0.859,0.859,0.859,0.859,0.859,0.859,0.859,0.859,0.859,0.859,0.859,0.859,0.859,0.8784,0.8917,0.8917,0.9189,0.9461,0.9661,0.9927,1.0127,1.0392,1.0585,1.0717,1.0717,1.0717,1.0717,1.0717,1.0717,1.0717,1.0717,1.0717,1.0717,0.0,0.0,0.0,0.759,0.7588,0.7539,0.7852,0.783,0.7721,0.7687,0.7867,0.8073,0.8198,0.8161,0.7265,0.4736,0.1946,0.0134,0.0067,0.0,0.0,0.0,0.0,0.0538,0.2017,0.2151,0.2821,0.4294,0.5704,0.6443,0.6443,0.7851,0.859,0.859,0.859,0.859,0.859,0.859,0.859,0.859,0.859,0.859,0.859,0.859,0.859,0.859,0.859,0.859,0.859,0.859,0.859,0.859,0.859,0.859,0.859,0.859,0.859,0.859,0.859,0.859,0.859,0.859,0.859,0.859,0.859,0.859,0.859,0.859,0.859,0.859,0.859,0.859,0.859,0.859,0.859,0.859,0.859,0.859,0.859,0.859,0.859,0.859,0.859,0.859,0.859,0.859,0.859,0.859,0.859,0.859,0.859,0.859,0.859,0.859,0.859,0.859,0.8923,0.9594,0.9661,0.9994,1.0651,1.0651,1.0651,1.0717,1.0717,1.0717,1.0717,1.0717,1.0717,1.0717,1.0717,1.0717,0.5901,0.0,0.0,0.0,0.0,0.0,0.0,0.6782,0.6837,0.7116,0.7372,0.7622,0.7921,0.7166,0.599,0.4415,0.3516,0.2615,0.1587,0.0596,0.0,0.0,0.0,0.0941,0.3423,0.3691,0.4696,0.0,0.7784,0.7984,0.7984,0.8384,0.859,0.859,0.859,0.859,0.859,0.859,0.859,0.859,0.859,0.859,0.859,0.859,0.859,0.859,0.859,0.859,0.859,0.859,0.859,0.859,0.859,0.859,0.859,0.859,0.859,0.859,0.859,0.859,0.859,0.859,0.859,0.859,0.859,0.859,0.859,0.859,0.859,0.859,0.859,0.859,0.859,0.859,0.859,0.859,0.859,0.859,0.859,0.859,0.859,0.859,0.859,0.859,0.859,0.859,0.859,0.859,0.859,0.859,0.859,0.859,0.859,0.859,0.859,0.859,0.8656,0.8923,0.9123,0.9316,0.9516,0.9788,1.006,1.0326,1.0326,1.0459,1.0717,1.0717,1.0717,1.0717,1.0717,1.0717,0.6146,0.6363,0.6667,0.6636,0.0,0.0,0.6514,0.6412,0.6415,0.0,0.7056,0.7269,0.7524,0.701,0.6077,0.4902,0.4283,0.3286,0.143,0.0523,0.0,0.0,0.0,0.1133,0.3991,0.4278,0.5499,0.8384,0.859,0.859,0.859,0.859,0.859,0.859,0.859,0.859,0.859,0.859,0.859,0.859,0.859,0.859,0.859,0.859,0.859,0.859,0.859,0.859,0.859,0.859,0.859,0.859,0.859,0.859,0.859,0.859,0.859,0.859,0.859,0.859,0.859,0.859,0.859,0.859,0.859,0.859,0.859,0.859,0.859,0.859,0.859,0.859,0.859,0.859,0.859,0.859,0.859,0.859,0.859,0.859,0.859,0.859,0.859,0.859,0.859,0.859,0.859,0.859,0.859,0.859,0.859,0.859,0.859,0.859,0.859,0.859,0.8656,0.8784,0.8984,0.9183,0.9322,0.9594,0.9794,0.9994,0.9994,1.006,1.0259,1.0591,1.0717,1.0717,1.0717,1.0717,0.6586,0.6756,0.6981,0.7106,0.6751,0.0,0.6696,0.6421,0.6165,0.0,0.6768,0.6893,0.71,0.7065,0.6637,0.5463,0.4331,0.2798,0.0511,0.0064,0.0,0.0,0.013,0.1313,0.3997,0.4441,0.5608,0.8347,0.8546,0.8546,0.8546,0.8546,0.8546,0.8546,0.8546,0.8546,0.8546,0.8546,0.8557,0.8568,0.8568,0.8573,0.859,0.859,0.859,0.859,0.859,0.859,0.859,0.859,0.859,0.859,0.859,0.859,0.859,0.859,0.859,0.859,0.859,0.859,0.859,0.859,0.859,0.859,0.859,0.859,0.859,0.859,0.859,0.859,0.859,0.859,0.859,0.859,0.859,0.859,0.859,0.859,0.859,0.859,0.859,0.859,0.859,0.859,0.859,0.859,0.859,0.859,0.859,0.859,0.859,0.859,0.859,0.859,0.859,0.859,0.8717,0.905,0.905,0.9189,0.9594,0.9594,0.9594,0.9661,0.9661,0.9728,0.9728,1.0326,1.0585,1.0585,1.0585,1.0585,0.7054,0.7143,0.72,0.6825,0.6631,0.0,0.6014,0.5874,0.5783,0.0,0.5917,0.6058,0.6462,0.595,0.5112,0.3999,0.3004,0.2181,0.1669,0.0692,0.0,0.0,0.097,0.2263,0.4005,0.5114,0.6481,0.8173,0.8301,0.8301,0.8301,0.8301,0.8301,0.8301,0.8301,0.8301,0.8301,0.8301,0.8356,0.8448,0.8448,0.8497,0.859,0.859,0.859,0.859,0.859,0.859,0.859,0.859,0.859,0.859,0.859,0.859,0.859,0.859,0.859,0.859,0.859,0.859,0.859,0.859,0.859,0.859,0.859,0.859,0.859,0.859,0.859,0.859,0.859,0.859,0.859,0.859,0.859,0.859,0.859,0.859,0.859,0.859,0.859,0.859,0.859,0.859,0.859,0.859,0.859,0.859,0.859,0.859,0.859,0.859,0.859,0.859,0.859,0.859,0.8651,0.8717,0.8717,0.8723,0.879,0.879,0.8923,0.9183,0.9528,0.9728,0.9728,0.9861,0.9927,0.9927,0.9927,0.9927,0.8063,0.7891,0.7643,0.7759,0.0,0.0,0.0,0.6086,0.5958,0.6097,0.5944,0.5931,0.6295,0.5956,0.528,0.4229,0.3754,0.3265,0.2578,0.1071,0.0,0.0,0.1117,0.25,0.3962,0.5259,0.6637,0.8103,0.8172,0.8172,0.8172,0.8172,0.8172,0.8172,0.8172,0.8172,0.8172,0.8172,0.8263,0.8329,0.8329,0.8356,0.8416,0.8475,0.8503,0.8508,0.8562,0.859,0.859,0.859,0.859,0.859,0.859,0.859,0.859,0.859,0.859,0.859,0.859,0.859,0.859,0.859,0.859,0.859,0.859,0.859,0.859,0.859,0.859,0.859,0.859,0.859,0.859,0.859,0.859,0.859,0.859,0.859,0.859,0.859,0.859,0.859,0.859,0.859,0.859,0.859,0.859,0.859,0.859,0.859,0.859,0.859,0.859,0.859,0.859,0.859,0.859,0.859,0.859,0.859,0.859,0.859,0.8651,0.8851,0.9056,0.9123,0.9123,0.9123,0.9328,0.9728,0.9728,0.9728,0.0,0.0,0.8021,0.0,0.0,0.7103,0.0,0.0,0.0,0.6327,0.6075,0.0,0.0,0.0,0.0,0.472,0.0,0.0,0.0,0.1541,0.0,0.029,0.1589,0.2868,0.3941,0.5327,0.6703,0.7958,0.801,0.8021,0.8127,0.8155,0.8166,0.8166,0.8166,0.8166,0.8166,0.8166,0.8176,0.8198,0.8198,0.8214,0.8172,0.8339,0.8383,0.8388,0.8503,0.8557,0.8557,0.8579,0.859,0.859,0.859,0.859,0.859,0.859,0.859,0.859,0.859,0.859,0.859,0.859,0.859,0.859,0.859,0.859,0.859,0.859,0.859,0.859,0.859,0.859,0.859,0.859,0.859,0.859,0.859,0.859,0.859,0.859,0.859,0.859,0.859,0.859,0.859,0.859,0.859,0.859,0.859,0.859,0.859,0.859,0.859,0.859,0.859,0.859,0.859,0.859,0.859,0.859,0.859,0.859,0.859,0.859,0.859,0.859,0.859,0.859,0.8923,0.9461,0.9461,0.9461,0.0,0.0,0.0,0.0,0.7602,0.0,0.0,0.0,0.5851,0.5572,0.0,0.0,0.0,0.0,0.0,0.0,0.0,0.0,0.276,0.265,0.2247,0.1371,0.3352,0.4545,0.3925,0.5768,0.7179,0.7525,0.7439,0.7535,0.7752,0.7856,0.7915,0.7915,0.7915,0.7915,0.7915,0.7915,0.7964,0.8136,0.8136,0.8133,0.8172,0.8183,0.8194,0.8199,0.8383,0.8437,0.8443,0.8546,0.859,0.859,0.859,0.859,0.859,0.859,0.859,0.859,0.859,0.859,0.859,0.859,0.859,0.859,0.859,0.859,0.859,0.859,0.859,0.859,0.859,0.859,0.859,0.859,0.859,0.859,0.859,0.859,0.859,0.859,0.859,0.859,0.859,0.859,0.859,0.859,0.859,0.859,0.859,0.859,0.859,0.859,0.859,0.859,0.859,0.859,0.859,0.859,0.859,0.859,0.859,0.859,0.859,0.859,0.859,0.859,0.859,0.859,0.8656,0.8723,0.8723,0.8723,0.0,0.0,0.0,0.0,0.0,0.0,0.6633,0.0,0.6003,0.0,0.0,0.0,0.0,0.0,0.0,0.0,0.4748,0.0,0.0,0.0,0.3723,0.1656,0.0,0.0,0.5609,0.6473,0.7051,0.729,0.7198,0.7269,0.7578,0.7709,0.7801,0.7872,0.7872,0.7872,0.7872,0.7872,0.7955,0.801,0.801,0.7975,0.8024,0.81,0.8133,0.8138,0.8258,0.835,0.8421,0.847,0.853,0.859,0.859,0.859,0.859,0.859,0.859,0.859,0.859,0.859,0.859,0.859,0.859,0.859,0.859,0.859,0.859,0.859,0.859,0.859,0.859,0.859,0.859,0.859,0.859,0.859,0.859,0.859,0.859,0.859,0.859,0.859,0.859,0.859,0.859,0.859,0.859,0.859,0.859,0.859,0.859,0.859,0.859,0.859,0.859,0.859,0.859,0.859,0.859,0.859,0.859,0.859,0.859,0.859,0.859,0.859,0.859,0.859,0.859,0.859,0.859,0.859,0.8549,0.0,0.0,0.0,0.0,0.0,0.0,0.0,0.0,0.0,0.0,0.0,0.0,0.0,0.0,0.0,0.0,0.5648,0.0,0.5523,0.0,0.0,0.0,0.0,0.0,0.6649,0.6681,0.6986,0.6872,0.6975,0.7399,0.7568,0.7703,0.7823,0.7856,0.7872,0.7872,0.7872,0.7872,0.7872,0.7872,0.7872,0.7872,0.8026,0.8065,0.807,0.8133,0.8236,0.8323,0.8356,0.8416,0.8492,0.8492,0.8492,0.8497,0.8562,0.859,0.859,0.859,0.859,0.859,0.859,0.859,0.859,0.859,0.8318,0.7984,0.7984,0.7712,0.7445,0.7445,0.7445,0.7512,0.7917,0.7984,0.7984,0.7984,0.7984,0.7984,0.7984,0.7984,0.8117,0.8523,0.859,0.859,0.859,0.859,0.859,0.859,0.859,0.859,0.859,0.859,0.859,0.859,0.859,0.859,0.859,0.859,0.859,0.859,0.859,0.859,0.859,0.859,0.859,0.859,0.859,0.859,0.859,0.859,0.859,0.0,0.0,0.0,0.6948,0.0,0.0,0.0,0.0,0.5866,0.0,0.0,0.0,0.0,0.0,0.0,0.0,0.0,0.0,0.0,0.0,0.0,0.0,0.0,0.0,0.0,0.6072,0.6127,0.66,0.642,0.6596,0.7188,0.7394,0.7578,0.7703,0.7812,0.7872,0.7872,0.7872,0.7872,0.7872,0.7872,0.7872,0.7872,0.7877,0.7877,0.7883,0.807,0.8125,0.8136,0.8193,0.8178,0.8183,0.8183,0.8183,0.8274,0.8503,0.859,0.859,0.859,0.859,0.859,0.859,0.859,0.859,0.859,0.7584,0.6443,0.6443,0.5503,0.4428,0.4428,0.4428,0.4763,0.6172,0.6443,0.6443,0.6443,0.6443,0.6443,0.6443,0.6443,0.6911,0.8384,0.859,0.859,0.859,0.859,0.859,0.859,0.859,0.859,0.859,0.859,0.859,0.859,0.859,0.859,0.859,0.859,0.859,0.859,0.859,0.859,0.859,0.859,0.859,0.859,0.859,0.859,0.859,0.859,0.859,0.0,0.0,0.7516,0.6663,0.0,0.0,0.0,0.0,0.0,0.0,0.0,0.0,0.0,0.0,0.0,0.0,0.0,0.0,0.0,0.0,0.0,0.0,0.0,0.0,0.0,0.5839,0.5926,0.6241,0.6192,0.6372,0.6893,0.7149,0.7372,0.7573,0.7698,0.7796,0.7872,0.7872,0.7872,0.7872,0.7872,0.7872,0.7872,0.7872,0.7872,0.7872,0.7977,0.8043,0.8119,0.81,0.816,0.8172,0.8172,0.8172,0.8183,0.8323,0.8405,0.8486,0.8562,0.859,0.859,0.859,0.7917,0.7111,0.7111,0.6172,0.5031,0.5031,0.4696,0.4294,0.4294,0.4294,0.4428,0.4897,0.5031,0.5031,0.5031,0.5031,0.5031,0.5031,0.577,0.6577,0.7045,0.7984,0.859,0.859,0.859,0.859,0.859,0.859,0.859,0.859,0.859,0.859,0.859,0.859,0.859,0.859,0.859,0.859,0.859,0.859,0.859,0.859,0.859,0.859,0.859,0.859,0.859,0.859,0.859,0.859,0.6686,0.6844,0.0,0.6464,0.6317,0.0,0.5958,0.0,0.5937,0.0,0.0,0.0,0.0,0.0,0.0,0.0,0.0,0.0,0.0,0.5002,0.0,0.0,0.0,0.0,0.0,0.5534,0.5648,0.6056,0.5969,0.6143,0.6709,0.6964,0.7187,0.7383,0.7551,0.7671,0.7747,0.7747,0.7747,0.7747,0.7747,0.7769,0.7812,0.7812,0.7834,0.7872,0.7872,0.7977,0.8054,0.8054,0.8035,0.8106,0.8106,0.8106,0.8117,0.8204,0.8285,0.8361,0.8437,0.8465,0.847,0.8513,0.7862,0.7,0.6569,0.5436,0.416,0.3691,0.3155,0.2752,0.2752,0.2752,0.2887,0.3423,0.349,0.349,0.349,0.349,0.349,0.349,0.423,0.5168,0.6243,0.7178,0.7984,0.8523,0.859,0.859,0.859,0.859,0.859,0.859,0.859,0.859,0.859,0.859,0.859,0.859,0.859,0.859,0.859,0.859,0.859,0.859,0.859,0.859,0.859,0.859,0.859,0.859,0.859,0.859]},{"header":{"parameterUnit":"m.s-1","parameterCategory":1,"la1":30.6,"la2":29.2853,"lo1":-89.7004,"lo2":-87.6739,"dy":0.0162,"dx":0.0183,"nx":112,"ny":82,"refTime":"2024-09-04T06:00:00:Z","depth":0,"parameterNumber":3,"parameterNumberName":"V-component_of_WINDS"},"data":[0.0,0.0,0.0,0.0,0.0,0.0,0.0,0.0,0.0,0.0,0.0,0.0,0.0,0.0,0.0,0.0,0.0,0.0,0.0,0.0,0.0,0.0,0.0,0.0,0.0,0.0,0.0,0.0,0.0,0.0,0.0,0.0,0.0,0.0,0.0,0.0,0.0,0.0,0.0,0.0,0.0,0.0,0.0,0.0,0.0,0.0,0.0,0.0,0.0,0.0,0.0,0.0,0.0,0.0,0.0,0.0,0.0,0.0,0.0,0.0,0.0,0.0,0.0,0.0,0.0,0.0,0.0,0.0,0.0,0.0,0.0,0.0,0.0,0.0,0.0,0.0,0.0,0.0,0.0,0.0,0.0,0.0,0.0,0.0,0.0,0.0,0.0,0.0,0.0,0.0,3.5959,4.0756,4.3733,4.4872,4.3483,4.3276,4.0653,3.4648,0.0,0.0,0.0,0.0,0.0,0.0,0.0,0.0,0.0,0.0,0.0,0.0,0.0,0.0,0.0,0.0,0.0,0.0,0.0,0.0,0.0,0.0,0.0,0.0,0.0,0.0,0.0,0.0,0.0,0.0,0.0,0.0,0.0,0.0,0.0,0.0,0.0,0.0,0.0,0.0,0.0,0.0,0.0,0.0,0.0,0.0,0.0,0.0,0.0,0.0,0.0,0.0,0.0,0.0,0.0,0.0,0.0,0.0,0.0,0.0,0.0,0.0,0.0,0.0,0.0,0.0,0.0,0.0,0.0,0.0,0.0,0.0,0.0,0.0,0.0,0.0,0.0,0.0,0.0,0.0,0.0,0.0,0.0,0.0,0.0,0.0,0.0,0.0,0.0,0.0,0.0,0.0,0.0,0.0,0.0,0.0,0.0,0.0,0.0,0.0,0.0,0.0,0.0,0.0,3.6339,4.2206,4.4389,4.5079,4.4207,4.3552,4.086,3.5387,0.0,0.0,0.0,0.0,0.0,0.0,0.0,0.0,0.0,0.0,0.0,0.0,0.0,0.0,0.0,0.0,0.0,0.0,0.0,0.0,0.0,0.0,0.0,0.0,0.0,0.0,0.0,0.0,0.0,0.0,0.0,0.0,0.0,0.0,0.0,0.0,0.0,0.0,0.0,0.0,0.0,0.0,0.0,0.0,0.0,0.0,0.0,0.0,0.0,0.0,0.0,0.0,0.0,0.0,0.0,0.0,0.0,0.0,0.0,0.0,0.0,0.0,0.0,0.0,0.0,0.0,0.0,0.0,0.0,0.0,0.0,0.0,0.0,0.0,0.0,0.0,0.0,0.0,0.0,0.0,0.0,0.0,0.0,0.0,0.0,0.0,0.0,0.0,0.0,0.0,0.0,0.0,0.0,0.0,0.0,0.0,0.0,0.0,0.0,0.0,0.0,0.0,0.0,3.5649,3.8272,4.2723,4.4147,4.4665,4.4345,4.3621,4.0929,3.5525,3.3041,0.0,0.0,0.0,0.0,0.0,0.0,0.0,0.0,0.0,0.0,0.0,0.0,0.0,0.0,0.0,0.0,0.0,0.0,0.0,0.0,0.0,0.0,0.0,0.0,0.0,0.0,0.0,0.0,0.0,0.0,0.0,0.0,0.0,0.0,0.0,0.0,0.0,0.0,0.0,0.0,0.0,0.0,0.0,0.0,0.0,0.0,0.0,0.0,0.0,0.0,0.0,0.0,0.0,0.0,0.0,0.0,0.0,0.0,0.0,0.0,0.0,0.0,0.0,0.0,0.0,0.0,0.0,0.0,0.0,0.0,0.0,0.0,0.0,0.0,0.0,0.0,0.0,0.0,0.0,0.0,0.0,0.0,0.0,0.0,0.0,0.0,0.0,0.0,0.0,0.0,0.0,0.0,0.0,0.0,0.0,0.0,0.0,0.0,0.0,0.0,0.0,0.0,3.8444,4.0584,4.293,4.4035,4.4518,4.4311,4.2965,4.0066,3.5249,3.2283,0.0,0.0,0.0,0.0,0.0,0.0,0.0,0.0,0.0,0.0,0.0,0.0,0.0,0.0,0.0,0.0,0.0,0.0,0.0,0.0,0.0,0.0,0.0,0.0,0.0,0.0,0.0,0.0,0.0,0.0,0.0,0.0,0.0,0.0,0.0,0.0,0.0,0.0,0.0,0.0,0.0,0.0,0.0,0.0,0.0,0.0,0.0,0.0,0.0,0.0,0.0,0.0,0.0,0.0,0.0,0.0,0.0,0.0,0.0,0.0,0.0,0.0,0.0,0.0,0.0,0.0,0.0,0.0,0.0,0.0,0.0,0.0,0.0,0.0,0.0,0.0,0.0,0.0,0.0,0.0,0.0,0.0,0.0,0.0,0.0,0.0,0.0,0.0,0.0,0.0,0.0,0.0,0.0,0.0,0.0,0.0,0.0,0.0,0.0,0.0,0.0,0.0,3.9341,4.2965,4.3172,4.4458,4.5044,4.438,4.0998,3.7581,3.4372,3.0041,0.0,0.0,0.0,0.0,0.0,0.0,0.0,0.0,0.0,0.0,0.0,0.0,0.0,0.0,0.0,0.0,0.0,0.0,0.0,0.0,0.0,0.0,0.0,0.0,0.0,0.0,0.0,0.0,0.0,0.0,0.0,0.0,0.0,0.0,0.0,0.0,0.0,0.0,0.0,0.0,0.0,0.0,0.0,0.0,0.0,0.0,0.0,0.0,0.0,0.0,0.0,0.0,0.0,0.0,0.0,0.0,0.0,0.0,0.0,0.0,0.0,0.0,0.0,0.0,0.0,0.0,0.0,0.0,0.0,0.0,0.0,0.0,0.0,0.0,0.0,0.0,0.0,0.0,0.0,0.0,0.0,0.0,0.0,0.0,0.0,0.0,0.0,0.0,0.0,0.0,0.0,0.0,0.0,0.0,0.0,0.0,0.0,0.0,0.0,0.0,0.0,0.0,3.803,4.124,0.0,4.4354,4.4596,4.4311,4.2102,3.8824,3.4372,0.0,0.0,0.0,0.0,0.0,0.0,0.0,0.0,0.0,0.0,0.0,0.0,0.0,0.0,0.0,0.0,0.0,0.0,0.0,0.0,0.0,0.0,0.0,0.0,0.0,0.0,0.0,0.0,0.0,0.0,0.0,0.0,0.0,0.0,0.0,0.0,0.0,0.0,0.0,0.0,0.0,0.0,0.0,0.0,0.0,0.0,0.0,0.0,0.0,0.0,0.0,0.0,0.0,0.0,0.0,0.0,0.0,0.0,0.0,0.0,0.0,0.0,0.0,0.0,0.0,0.0,0.0,0.0,0.0,0.0,0.0,0.0,0.0,0.0,0.0,0.0,0.0,0.0,0.0,0.0,0.0,0.0,0.0,0.0,0.0,0.0,0.0,0.0,0.0,0.0,0.0,0.0,0.0,0.0,0.0,0.0,0.0,0.0,0.0,0.0,0.0,0.0,3.4731,3.8043,4.117,0.0,4.4518,4.4458,4.4,4.1861,3.8491,3.3662,0.0,0.0,0.0,0.0,0.0,0.0,0.0,0.0,0.0,0.0,0.0,0.0,0.0,0.0,0.0,0.0,0.0,0.0,0.0,0.0,0.0,0.0,0.0,0.0,0.0,0.0,0.0,0.0,0.0,0.0,0.0,0.0,0.0,0.0,0.0,0.0,0.0,0.0,0.0,0.0,0.0,0.0,0.0,0.0,0.0,0.0,0.0,0.0,0.0,0.0,0.0,0.0,0.0,0.0,0.0,0.0,0.0,0.0,0.0,0.0,0.0,0.0,0.0,0.0,0.0,0.0,0.0,0.0,0.0,0.0,0.0,0.0,0.0,0.0,0.0,0.0,0.0,0.0,0.0,0.0,0.0,0.0,0.0,0.0,0.0,0.0,0.0,0.0,0.0,0.0,0.0,0.0,0.0,0.0,0.0,0.0,0.0,0.0,0.0,0.0,0.0,0.0,3.5007,3.9894,4.3483,4.4242,4.4975,4.4803,4.331,3.9721,3.5925,0.0,0.0,0.0,0.0,0.0,0.0,0.0,0.0,0.0,0.0,0.0,0.0,0.0,0.0,0.0,0.0,0.0,0.0,0.0,0.0,0.0,0.0,0.0,0.0,0.0,0.0,0.0,0.0,0.0,0.0,0.0,0.0,0.0,0.0,0.0,0.0,0.0,0.0,0.0,0.0,0.0,0.0,0.0,0.0,0.0,0.0,0.0,0.0,0.0,0.0,0.0,0.0,0.0,0.0,0.0,0.0,0.0,0.0,0.0,0.0,0.0,0.0,0.0,0.0,0.0,0.0,0.0,0.0,0.0,0.0,0.0,0.0,0.0,0.0,0.0,0.0,0.0,0.0,0.0,0.0,0.0,0.0,0.0,0.0,0.0,0.0,0.0,0.0,0.0,0.0,0.0,0.0,0.0,0.0,0.0,0.0,0.0,0.0,0.0,0.0,0.0,0.0,0.0,3.5628,4.0204,4.369,4.4941,4.5259,4.4803,4.331,4.117,3.7581,3.2145,0.0,0.0,0.0,0.0,0.0,0.0,0.0,0.0,0.0,0.0,0.0,0.0,0.0,0.0,0.0,0.0,0.0,0.0,0.0,0.0,0.0,0.0,0.0,0.0,0.0,0.0,0.0,0.0,0.0,0.0,0.0,0.0,0.0,0.0,0.0,0.0,0.0,0.0,0.0,0.0,0.0,0.0,0.0,0.0,0.0,0.0,0.0,0.0,0.0,0.0,0.0,0.0,0.0,0.0,0.0,0.0,0.0,0.0,0.0,0.0,0.0,0.0,0.0,0.0,0.0,0.0,0.0,0.0,0.0,0.0,0.0,0.0,0.0,0.0,0.0,0.0,0.0,0.0,0.0,0.0,0.0,0.0,0.0,0.0,0.0,0.0,0.0,0.0,0.0,0.0,0.0,0.0,0.0,0.0,0.0,0.0,0.0,0.0,0.0,0.0,0.0,0.0,3.5904,4.0342,4.3793,4.5225,4.5397,4.4803,4.331,4.2068,3.8893,3.3076,0.0,0.0,0.0,0.0,0.0,0.0,0.0,0.0,0.0,0.0,0.0,0.0,0.0,0.0,0.0,0.0,0.0,0.0,0.0,0.0,0.0,0.0,0.0,0.0,0.0,0.0,0.0,0.0,0.0,0.0,0.0,0.0,0.0,0.0,0.0,0.0,0.0,0.0,0.0,0.0,0.0,0.0,0.0,0.0,0.0,0.0,0.0,0.0,0.0,0.0,0.0,0.0,0.0,0.0,0.0,0.0,0.0,0.0,0.0,0.0,0.0,0.0,0.0,0.0,0.0,0.0,0.0,0.0,0.0,0.0,0.0,0.0,0.0,0.0,0.0,0.0,0.0,0.0,0.0,0.0,0.0,0.0,0.0,0.0,0.0,0.0,0.0,0.0,0.0,0.0,0.0,0.0,0.0,0.0,0.0,0.0,0.0,0.0,0.0,0.0,0.0,0.0,3.6008,4.0377,4.3793,4.5225,4.5397,4.4803,4.331,4.2482,3.979,3.4545,0.0,0.0,0.0,0.0,0.0,0.0,0.0,0.0,0.0,0.0,0.0,0.0,0.0,0.0,0.0,0.0,0.0,0.0,0.0,0.0,0.0,0.0,0.0,0.0,0.0,0.0,0.0,0.0,0.0,0.0,0.0,0.0,0.0,0.0,0.0,0.0,0.0,0.0,0.0,0.0,0.0,0.0,0.0,0.0,0.0,0.0,0.0,0.0,0.0,0.0,0.0,0.0,0.0,0.0,0.0,0.0,0.0,0.0,0.0,0.0,3.3041,0.0,0.0,0.0,0.0,0.0,0.0,0.0,0.0,0.0,0.0,0.0,0.0,0.0,0.0,0.0,0.0,0.0,0.0,0.0,0.0,0.0,0.0,0.0,0.0,0.0,0.0,0.0,0.0,0.0,0.0,0.0,0.0,0.0,0.0,0.0,0.0,0.0,0.0,0.0,0.0,0.0,3.6857,4.0722,4.3793,4.5225,4.5397,4.4803,4.331,4.2482,3.9997,3.5249,3.3352,0.0,0.0,0.0,0.0,0.0,0.0,0.0,0.0,0.0,0.0,0.0,0.0,0.0,0.0,0.0,0.0,0.0,0.0,0.0,0.0,0.0,0.0,0.0,0.0,0.0,0.0,0.0,0.0,0.0,0.0,0.0,0.0,0.0,0.0,0.0,0.0,0.0,0.0,0.0,0.0,0.0,0.0,0.0,0.0,0.0,0.0,0.0,0.0,0.0,0.0,0.0,0.0,0.0,0.0,0.0,0.0,0.0,0.0,0.0,0.0,3.5801,0.0,0.0,0.0,0.0,0.0,0.0,0.0,0.0,0.0,0.0,0.0,0.0,0.0,0.0,0.0,0.0,0.0,0.0,0.0,0.0,0.0,0.0,0.0,0.0,0.0,0.0,0.0,0.0,0.0,0.0,0.0,0.0,0.0,0.0,0.0,0.0,0.0,0.0,0.0,0.0,3.765,4.1378,4.4147,4.5259,4.5397,4.4975,4.3828,4.3034,4.1101,3.756,3.5594,0.0,0.0,0.0,0.0,0.0,0.0,0.0,0.0,0.0,0.0,0.0,0.0,0.0,0.0,0.0,0.0,0.0,0.0,0.0,0.0,0.0,0.0,0.0,0.0,0.0,0.0,0.0,0.0,0.0,0.0,0.0,0.0,0.0,0.0,0.0,0.0,0.0,0.0,0.0,0.0,0.0,0.0,0.0,0.0,0.0,0.0,0.0,0.0,0.0,0.0,0.0,0.0,0.0,4.4345,4.5389,4.6603,4.6603,4.6948,4.7355,4.3561,4.1733,4.1274,3.8456,0.0,0.0,0.0,0.0,0.0,0.0,0.0,0.0,0.0,0.0,0.0,0.0,0.0,0.0,0.0,0.0,0.0,0.0,0.0,0.0,0.0,0.0,0.0,0.0,3.9733,4.025,3.5076,0.0,0.0,0.0,0.0,0.0,0.0,0.0,0.0,0.0,0.0,0.0,3.8651,4.2102,4.4561,4.5328,4.5397,4.5113,4.438,4.3621,4.2275,4.0043,3.787,3.5801,0.0,0.0,0.0,0.0,0.0,0.0,0.0,0.0,0.0,0.0,0.0,0.0,0.0,0.0,0.0,0.0,0.0,0.0,0.0,0.0,0.0,0.0,0.0,0.0,0.0,0.0,0.0,0.0,0.0,0.0,0.0,0.0,3.4525,3.5594,0.0,0.0,0.0,0.0,0.0,0.0,0.0,0.0,0.0,0.0,0.0,0.0,0.0,4.3517,4.5389,4.6975,4.8183,4.8976,5.0355,5.1149,5.1291,5.1291,5.136,5.1429,5.0809,0.0,4.3724,4.1964,0.0,0.0,0.0,0.0,0.0,0.0,0.0,0.0,0.0,0.0,0.0,0.0,0.0,0.0,0.0,0.0,0.0,0.0,0.0,0.0,0.0,0.0,4.5044,4.3586,4.4044,4.4423,0.0,3.9618,3.6408,3.4766,3.4007,0.0,0.0,0.0,0.0,0.0,0.0,0.0,4.0308,4.2758,4.4561,4.5328,4.5397,4.5113,4.438,4.3621,4.2482,4.086,3.9181,3.787,3.6926,3.4145,0.0,0.0,0.0,0.0,0.0,0.0,0.0,0.0,0.0,0.0,0.0,0.0,0.0,0.0,0.0,0.0,0.0,0.0,0.0,0.0,0.0,0.0,0.0,0.0,0.0,0.0,0.0,0.0,0.0,3.4663,3.7806,3.7979,3.8732,3.8767,0.0,0.0,0.0,0.0,0.0,0.0,0.0,0.0,0.0,4.6286,4.7182,4.8321,4.9706,5.1252,5.239,5.3184,5.3804,5.4356,5.477,5.4322,5.4083,5.4049,5.3253,5.1321,4.8562,4.6182,4.3906,4.1802,0.0,0.0,0.0,0.0,4.0756,4.1516,4.2802,4.3216,4.3009,4.1757,0.0,0.0,0.0,0.0,0.0,0.0,0.0,4.1447,0.0,0.0,4.6424,4.5734,4.6182,4.6707,4.6803,4.4941,4.2526,0.0,3.9445,3.8065,3.4456,0.0,0.0,0.0,0.0,4.0101,4.1964,4.4207,4.5527,4.5397,4.5397,4.5259,4.4941,4.4242,4.3345,4.2275,4.1136,3.9974,3.8767,3.7042,3.5145,0.0,0.0,0.0,0.0,0.0,0.0,0.0,0.0,0.0,0.0,0.0,0.0,0.0,0.0,0.0,0.0,0.0,0.0,0.0,0.0,0.0,0.0,0.0,0.0,0.0,0.0,0.0,0.0,3.8178,4.0712,4.0227,4.2048,4.2552,0.0,0.0,0.0,0.0,0.0,0.0,4.6976,4.7886,4.9095,5.0755,5.1756,5.2632,5.3391,5.4529,5.5357,5.5908,5.5908,5.6219,5.6771,5.6184,5.5908,5.5874,5.477,5.3942,5.3115,4.97,4.7465,4.6121,4.4837,4.4345,4.4414,4.4941,4.5423,4.5975,4.77,4.8155,4.7769,4.6458,4.5519,4.438,4.1492,0.0,0.0,0.0,0.0,4.4518,4.5251,4.6458,4.7424,4.7217,4.7569,4.812,4.8672,4.8361,4.7286,0.0,4.4207,4.2861,3.9008,0.0,0.0,0.0,0.0,4.2526,4.3897,4.5699,4.6569,4.5776,4.5707,4.5604,4.5432,4.4561,4.3793,4.3241,4.2275,4.1181,4.0043,3.9284,3.7754,3.5304,0.0,0.0,0.0,0.0,0.0,0.0,0.0,0.0,0.0,0.0,0.0,0.0,0.0,0.0,0.0,0.0,0.0,0.0,0.0,0.0,0.0,0.0,0.0,0.0,0.0,0.0,0.0,0.0,0.0,4.2636,4.5901,0.0,0.0,0.0,0.0,4.6305,4.8321,5.0194,5.1595,5.2542,5.4044,5.6145,5.5671,5.577,5.6564,5.6633,5.6702,5.6736,5.6736,5.6771,5.6805,5.6771,5.6736,5.6736,5.6667,5.6598,5.6219,5.1735,4.939,4.8534,4.7775,4.7493,4.7465,4.7527,4.8459,4.9735,4.9838,4.939,4.8947,5.0321,4.8838,4.6458,4.6251,4.5182,0.0,0.0,4.6259,4.7638,4.8361,4.9217,4.9631,4.8844,4.8706,4.8741,4.8775,4.8775,4.8465,0.0,4.6906,4.5906,4.4207,0.0,4.3897,4.3897,4.463,4.5466,4.632,4.7148,4.7362,4.6631,4.6562,4.6224,4.5466,4.4078,4.3241,4.3207,4.1792,4.0929,4.086,4.0043,3.925,3.8387,3.4697,0.0,0.0,0.0,0.0,0.0,0.0,0.0,0.0,0.0,0.0,0.0,0.0,0.0,0.0,0.0,0.0,0.0,0.0,0.0,0.0,0.0,0.0,0.0,0.0,0.0,0.0,0.0,0.0,4.8129,5.0342,0.0,4.9562,5.064,5.1643,5.2139,5.3395,5.476,5.6225,5.6637,5.7175,5.7945,5.782,5.7866,5.8145,5.8211,5.8454,5.8846,5.8421,5.8454,5.8811,5.7901,5.7529,5.7495,5.7012,5.6805,5.6667,5.5046,5.3632,5.2356,5.1114,5.0602,5.0602,5.0602,5.0912,5.1425,5.1425,5.1222,5.0981,5.108,5.039,4.9424,4.8941,4.839,4.801,4.8286,4.8769,4.9252,4.9528,4.9804,4.9942,4.9666,4.9597,4.9597,4.9597,4.9597,4.9493,4.9252,4.8534,4.7562,4.6044,4.5768,4.5596,4.5113,4.6079,4.6983,4.7258,4.7948,4.7913,4.6734,4.6596,4.6259,4.5466,4.4492,4.3724,4.3241,4.1757,4.0687,4.017,3.9836,3.9112,3.7927,3.6525,3.4387,0.0,0.0,0.0,0.0,0.0,0.0,0.0,0.0,0.0,0.0,0.0,0.0,0.0,0.0,0.0,0.0,0.0,0.0,0.0,0.0,0.0,0.0,0.0,0.0,0.0,4.8119,5.0557,5.1547,5.4012,5.51,5.3769,5.4894,5.5905,5.6394,5.7127,5.822,5.9741,5.9867,6.0089,6.0575,6.0184,6.0026,6.0026,5.9765,5.9838,6.0282,5.9838,6.0046,6.067,5.9453,5.8955,5.9001,5.8205,5.7761,5.7529,5.7288,5.6564,5.5529,5.4253,5.3598,5.3325,5.3325,5.3187,5.2912,5.2701,5.2597,5.2494,5.1735,5.1494,5.1326,5.0597,5.039,5.0321,5.008,5.0183,5.0321,5.008,5.0183,5.0321,5.008,5.0011,5.0011,5.0011,5.0011,5.0011,5.0011,4.9597,4.8879,4.7941,4.7769,4.7596,4.7017,4.781,4.8493,4.8493,4.8879,4.8631,4.7148,4.6975,4.6535,4.55,4.4492,4.3724,4.3241,4.1757,4.0653,4.0112,3.9836,3.925,3.8249,3.7491,3.5752,3.2938,0.0,0.0,0.0,0.0,0.0,0.0,0.0,0.0,0.0,0.0,0.0,0.0,0.0,0.0,0.0,0.0,0.0,0.0,0.0,0.0,0.0,0.0,0.0,4.9089,5.2042,5.385,5.2793,5.6828,5.8725,5.6344,5.8326,5.9492,5.8908,5.9531,6.0575,6.2014,6.2213,6.2945,6.4279,6.2981,6.226,6.226,6.1408,6.1016,6.1016,6.1016,6.1444,6.2224,6.1373,6.1082,6.1222,6.042,5.9751,5.9047,5.8322,5.8011,5.7909,5.7116,5.6322,5.56,5.5632,5.515,5.4391,5.3667,5.3425,5.3287,5.2528,5.2222,5.2084,5.1356,5.1149,5.0976,5.0252,5.0562,5.0942,5.0218,5.0597,5.0976,5.0218,5.0045,5.0045,5.0045,5.0011,5.0011,5.0011,5.0011,5.0011,5.0011,5.0011,5.0011,5.0011,5.0011,0.0,5.0011,5.0011,4.9424,4.7907,4.7707,4.7086,4.5569,4.4044,4.3207,4.3207,4.1723,4.086,4.0894,4.0146,3.9733,3.9767,3.756,3.6042,3.5359,0.0,0.0,0.0,0.0,0.0,0.0,0.0,0.0,0.0,0.0,0.0,0.0,0.0,0.0,0.0,0.0,0.0,0.0,0.0,0.0,0.0,5.183,5.3901,5.3734,5.5597,5.7472,5.8908,6.0225,6.103,6.0895,6.2091,6.2808,6.2642,6.3345,6.3982,6.4359,6.442,6.4612,6.5028,6.419,6.3697,6.3697,6.3072,6.2928,6.3372,6.2898,6.3072,6.3697,6.3006,6.274,6.28,6.2555,6.2072,6.1352,6.0616,6.0005,5.9392,5.7529,5.6667,5.6391,5.5839,5.515,5.4494,5.4287,5.4218,5.408,5.3322,5.308,5.2942,5.2119,5.1498,5.1183,5.1498,5.1356,5.1045,5.0873,5.1356,5.1735,5.0976,5.0804,5.0804,5.0804,5.039,5.0011,5.0011,5.0011,5.0011,5.0011,5.0011,5.0011,5.0011,5.0011,0.0,5.0011,5.0011,4.9631,4.8603,4.8017,4.7293,4.6328,4.4354,4.3207,4.3207,4.1205,4.0284,4.0894,4.0687,4.0825,4.1378,3.9629,3.8851,0.0,0.0,0.0,0.0,0.0,0.0,0.0,0.0,0.0,0.0,0.0,0.0,0.0,0.0,0.0,0.0,0.0,0.0,0.0,0.0,0.0,0.0,5.6014,5.8364,5.9061,5.9648,6.0529,6.1924,6.2732,6.3319,6.3796,6.431,6.4604,6.4604,6.5044,6.5448,6.5778,6.5815,6.5962,6.6292,6.5605,6.5223,6.5223,6.4525,6.438,6.4713,6.438,6.4553,6.5223,6.4525,6.4238,6.4255,6.3932,6.3398,6.2737,6.2309,6.17,0.0,0.0,0.0,0.0,0.0,5.5357,5.4943,5.4632,5.4494,5.4425,5.4011,5.3873,5.3736,5.2942,5.2425,5.208,5.2153,5.2149,5.2011,5.1636,5.2149,5.2528,5.174,5.1563,5.1563,5.1563,5.1011,5.0459,5.0459,5.0218,0.0,5.0011,5.0011,5.0011,5.0011,5.0011,5.0011,5.0011,5.0011,4.97,4.8879,4.8396,4.7741,4.67,4.5079,0.0,0.0,0.0,4.13,4.1638,4.1845,0.0,0.0,0.0,0.0,0.0,0.0,0.0,0.0,4.2505,4.3242,0.0,0.0,0.0,0.0,0.0,0.0,0.0,0.0,0.0,0.0,0.0,0.0,0.0,0.0,0.0,0.0,5.9905,6.2548,6.4016,6.3723,6.3319,6.3074,6.4383,6.5301,6.5301,6.5375,6.5448,6.5448,6.5521,6.5888,6.6586,6.6623,0.0,0.0,0.0,6.6623,6.6649,6.5925,6.5595,6.5584,6.5595,6.5925,6.6623,6.5888,6.5623,6.5698,6.5008,6.434,6.377,6.3698,6.3167,6.2169,6.0026,5.8766,5.7934,5.6584,5.5995,5.5857,5.523,0.0,0.0,5.4758,5.4658,5.4454,5.3798,5.3552,5.3376,5.2723,5.303,5.331,5.2589,5.3004,5.3353,5.2528,5.2326,5.2326,5.2326,5.177,5.1218,5.1149,5.0562,5.0114,5.0011,5.0011,5.0011,5.0011,5.0011,5.0011,5.0011,5.0011,4.9735,4.9016,4.8844,0.0,4.6975,4.6098,4.5356,4.469,4.4108,4.3624,4.3321,4.3871,4.4464,4.5079,4.5187,4.6261,4.8419,4.9233,4.9734,4.9805,4.69,4.7035,0.0,0.0,0.0,0.0,0.0,0.0,0.0,0.0,0.0,0.0,0.0,0.0,0.0,0.0,0.0,5.9391,6.2438,6.4714,6.5044,6.6035,6.6256,6.4971,6.5118,6.5301,6.5301,6.5888,6.6256,6.6256,6.688,6.7283,6.7467,6.7467,6.754,6.7687,6.754,6.752,6.7616,6.74,6.729,6.7395,0.0,0.0,6.7467,6.7283,6.723,6.7295,6.7112,6.6728,6.6192,6.5504,6.4542,6.3298,6.13,6.0093,5.9414,5.9094,5.8627,5.8059,5.7917,5.7141,5.6199,5.6199,5.5632,5.4865,5.4726,5.4451,0.0,5.4729,5.4519,5.404,5.3604,5.4101,5.4422,5.3418,5.3184,5.3184,5.3184,5.2563,5.1808,5.1218,5.1011,5.07,5.0114,5.0011,5.0011,5.0011,5.0011,5.0011,5.0011,5.0011,4.9942,4.9804,4.9189,4.8672,4.8396,4.7543,4.6955,4.6805,4.7073,4.7203,4.7117,4.7829,4.7982,4.7527,4.8089,4.8847,4.972,5.1108,5.2341,5.3368,5.1261,5.0592,0.0,0.0,0.0,0.0,0.0,0.0,0.0,0.0,0.0,0.0,0.0,5.3775,5.5831,0.0,6.1704,6.3723,6.582,6.7326,6.765,6.8151,6.7873,6.6135,6.6256,6.6512,6.6512,6.6843,6.7126,6.7206,6.7573,6.8031,6.8478,6.8147,6.8057,6.8409,6.8057,6.7926,6.7926,6.7926,6.7952,6.803,6.7952,6.7926,6.7926,6.7926,6.7926,6.7926,6.7926,6.7757,6.7459,6.6616,6.5923,6.5223,6.3857,6.2466,6.1099,6.0311,5.9773,5.9406,5.9012,5.8422,5.7847,5.7847,5.7199,5.639,5.639,5.5971,5.5549,5.594,5.5763,5.5415,5.5249,5.5226,5.5238,5.5049,5.4747,5.4575,5.4828,5.4317,5.362,5.3212,5.2825,5.2333,5.1532,5.1392,5.1177,5.0495,5.0178,5.0092,5.0376,5.0397,5.0397,5.0397,5.0262,5.003,4.9644,4.8837,4.8338,4.8338,4.8803,4.91,4.91,4.9712,5.0061,5.0105,5.0859,5.1587,5.2229,5.3434,5.4349,5.4987,5.4464,5.4194,0.0,0.0,0.0,0.0,0.0,0.0,0.0,4.9003,5.0949,5.3555,5.6418,5.9061,6.1006,6.3381,6.572,6.7667,6.8904,6.9731,7.011,6.9821,6.8915,6.7269,6.7473,6.7867,6.8015,6.8015,6.8141,6.8394,6.8394,6.8741,6.9499,6.8945,6.882,6.9379,6.883,6.8524,6.8446,6.8524,6.8502,6.8379,6.8354,6.8243,6.8095,6.8095,6.8095,6.8095,6.8158,6.8158,6.8084,6.7481,6.7185,6.7111,6.6334,6.4982,6.3301,6.1616,6.0901,6.0684,6.0095,5.9717,5.9492,5.9492,5.8789,5.7916,5.7916,5.7402,5.6814,5.6814,5.6814,5.6789,5.6701,5.6286,5.6019,5.6491,5.6204,5.59,5.6331,5.5998,5.547,5.5169,5.4668,5.3989,5.3151,5.2901,5.2365,5.1149,5.0592,5.0453,5.091,5.0964,5.0964,5.0964,5.1322,5.1401,5.082,5.0259,4.9948,5.0042,5.0407,5.0628,5.0628,5.1167,5.1793,5.2454,5.3261,5.3995,5.462,5.5427,5.5831,5.5831,5.6675,5.6969,4.247,4.4599,4.6966,4.9297,4.9994,5.161,0.0,5.774,5.7813,6.097,6.3062,6.4457,6.4714,6.6838,6.8636,6.8894,7.0327,7.1182,7.0555,7.037,7.0027,6.9115,6.845,6.834,6.9041,6.9115,6.941,7.0138,7.0212,7.0249,7.0349,7.0275,7.0275,7.0323,7.0275,7.0291,7.0395,7.0291,6.9921,6.9346,6.9218,6.8797,6.8095,6.8095,6.8095,6.8095,6.8234,6.8284,6.8284,6.8297,6.8308,6.8234,6.7455,6.6974,6.6556,6.4636,6.3469,6.2842,6.2769,6.1911,6.0876,6.0876,5.9677,5.8249,5.8249,5.7894,5.751,5.751,5.751,5.7401,5.7116,5.7015,5.6876,5.6649,5.6544,5.6491,5.657,5.6525,5.6221,5.5434,5.5193,5.488,5.4025,5.3258,5.2493,5.1632,5.1449,5.1424,5.15,5.15,5.15,5.15,5.1551,5.1739,5.2147,5.2098,5.2268,5.2724,5.2825,5.2846,5.2846,5.3607,5.4032,5.4142,5.4913,5.5354,5.5464,5.6271,5.6675,5.6712,5.7483,5.7483,4.8196,4.9884,5.1222,5.3702,5.5354,5.7079,5.9795,6.0603,6.1447,6.3796,6.5191,6.6465,6.7941,6.9088,7.0136,7.1202,7.2049,7.2425,7.2012,7.1231,7.042,6.9529,6.8765,6.858,6.9241,6.9315,6.9673,7.0528,7.0602,7.0876,7.1472,7.1028,7.0939,7.1368,7.0976,7.0705,7.0705,7.0705,7.0583,7.0325,6.9767,6.9371,6.9001,6.8556,6.8334,6.8334,6.8902,6.8853,6.8408,6.8481,6.8481,6.8444,6.811,6.7725,6.707,6.5305,6.4406,6.4072,6.359,6.3067,6.257,6.257,6.1724,6.0599,6.012,5.949,5.8858,5.8378,5.8231,5.8209,5.806,5.7724,5.7534,5.7757,5.7545,5.7352,5.764,5.7711,5.7614,5.7167,5.7107,5.6852,5.6002,5.5577,5.5067,5.4228,5.269,5.1701,5.2054,5.2078,5.2197,5.2477,5.2522,5.2627,5.2828,5.285,5.3156,5.3827,5.3482,5.3628,5.4546,5.4473,5.462,5.5097,5.5904,5.6308,5.6308,5.7116,5.7483,5.7519,5.785,5.7813,5.1573,5.3393,5.4751,5.6932,5.9465,6.1484,6.1704,6.2842,6.4237,6.572,6.6639,6.7794,6.9694,7.0411,7.1192,7.2482,7.3024,7.3225,7.3118,7.1647,7.0387,6.9953,6.8878,6.8507,6.9307,6.9418,6.985,7.1053,7.1127,7.155,7.2481,7.1923,7.1835,7.2351,7.1872,7.1538,7.1461,7.1538,7.1478,7.1255,7.066,7.0252,7.0004,6.9187,6.8816,6.8853,6.9187,6.9038,6.8481,6.8481,6.8481,6.8481,6.8481,6.8134,6.7465,6.6017,6.5176,6.4693,6.4136,6.3788,6.3602,6.3602,6.3082,6.2301,6.1707,6.0778,5.9754,5.9181,5.8884,5.8698,5.8698,5.8341,5.8105,5.8593,5.8341,5.8082,5.8471,5.8572,5.8529,5.8422,5.8437,5.8252,5.7617,5.7359,5.699,5.6325,5.4264,5.2929,5.3335,5.3176,5.3091,5.3267,5.3272,5.3272,5.3272,5.3472,5.3818,5.4369,5.409,5.4363,5.5559,5.5244,5.5354,5.5904,5.6712,5.7152,5.7152,5.7703,5.7997,5.7997,5.8042,5.8042,5.0859,5.3802,5.7265,5.8731,6.1594,6.42,6.4971,6.5778,6.6675,6.7616,6.8452,6.9068,6.9273,7.0724,7.1876,7.1913,7.2748,7.3372,7.3372,7.1292,7.0004,7.0784,6.8778,6.7961,6.9521,6.9707,7.0375,7.2035,7.2146,7.2481,7.3324,7.3361,7.3335,7.3335,7.3335,7.3298,7.3298,7.3298,7.2952,7.2172,7.2135,7.1663,7.0821,7.0004,6.967,6.9595,6.8853,6.8518,6.8481,6.8481,6.8481,6.8481,6.8481,6.8481,6.8357,6.754,6.6179,6.4805,6.4768,6.4248,6.3602,6.3602,6.3082,6.2413,6.2376,6.1224,5.9865,5.9865,5.9292,5.8698,5.8698,5.8677,5.8677,5.8677,5.8677,5.8677,5.8677,5.8677,5.8656,5.8492,5.8508,5.8486,5.8378,5.7728,5.7174,5.7174,5.6377,5.5787,5.5787,5.5122,5.4347,5.3592,5.3481,5.3481,5.3481,5.408,5.446,5.4496,5.5162,5.5559,5.5596,5.6345,5.6748,5.6748,5.7556,5.796,5.796,5.7997,5.7997,5.7997,5.8111,5.8179,5.6168,5.8776,6.0946,6.353,6.5064,6.6171,6.6982,6.7351,6.7524,6.7255,6.6997,6.6826,6.6926,6.7926,6.9112,7.0263,7.2121,7.3398,7.3398,7.3149,7.2258,7.0301,6.9855,6.9261,6.8208,6.8593,6.9806,7.2023,7.1663,7.2184,7.4078,7.419,7.419,7.419,7.419,7.393,7.3435,7.3398,7.3287,7.299,7.2469,7.1738,7.0895,7.1218,7.0735,6.9707,6.9967,6.9484,6.8481,6.8481,6.8481,6.8481,6.8481,6.8481,6.8444,6.8208,6.7428,6.6314,6.5199,6.4619,6.4285,6.3765,6.3416,6.3119,6.2562,6.2004,6.1336,6.02,5.9717,5.9367,5.8846,5.8698,5.8698,5.8698,5.8698,5.8698,5.8698,5.8698,5.8677,5.8635,5.8635,5.8614,5.8593,5.8349,5.8016,5.746,5.6541,5.5902,5.5902,5.5681,5.5385,5.5127,5.509,5.509,5.509,5.5307,5.5692,5.6224,5.5981,5.6292,5.7398,5.7213,5.7324,5.784,5.8135,5.8282,5.8282,5.8282,5.8282,5.8282,5.8327,5.8327,5.9323,6.1546,6.3168,6.6049,6.7059,6.7393,6.7615,6.7664,6.7356,6.631,6.5607,6.5212,6.5036,6.5689,6.6937,6.8964,7.1106,7.2815,7.3707,7.4148,7.3753,7.1925,7.1664,7.1064,6.9664,6.9579,7.0212,7.1652,7.1653,7.2348,7.4067,7.4413,7.445,7.4153,7.445,7.419,7.3435,7.3398,7.3398,7.3398,7.2878,7.2332,7.1812,7.2072,7.1589,7.0623,7.0784,7.0152,6.8927,6.8927,6.8741,6.8481,6.8481,6.8481,6.8481,6.8481,6.8171,6.754,6.6142,6.5287,6.4693,6.4173,6.3802,6.3527,6.3007,6.2636,6.219,6.1113,6.0593,6.0258,5.9738,5.9367,5.9144,5.9144,5.8921,5.8698,5.8698,5.8698,5.8698,5.8698,5.8698,5.8698,5.8698,5.8698,5.8512,5.8029,5.7348,5.6673,5.6117,5.6302,5.6339,5.608,5.6043,5.6043,5.6043,5.6261,5.6647,5.7201,5.6937,5.7285,5.8356,5.7913,5.7876,5.8393,5.8393,5.8393,5.8393,5.8393,5.8393,5.8393,5.8437,5.8459,6.0418,6.235,6.4187,6.6457,6.7541,6.7837,6.7024,6.6802,6.631,6.4705,6.4359,6.4109,6.3319,6.401,6.5436,6.785,6.9806,7.1875,7.4316,7.4498,7.4605,7.5281,7.4003,7.3226,7.355,7.2541,7.1666,7.1194,7.215,7.3044,7.3613,7.4331,7.438,7.3647,7.4316,7.4316,7.3473,7.3435,7.3398,7.3398,7.3398,7.3398,7.3398,7.2618,7.2246,7.2172,7.1329,7.0487,6.9707,6.9707,6.9224,6.8481,6.8481,6.8481,6.8481,6.8481,6.8481,6.8394,6.7651,6.6277,6.4842,6.4805,6.4248,6.3602,6.3602,6.3082,6.245,6.2413,6.1856,6.1261,6.1224,6.0593,5.994,5.9924,5.9329,5.8772,5.8735,5.8698,5.8698,5.8698,5.8698,5.8698,5.8698,5.8698,5.8698,5.8698,5.8698,5.8141,5.6617,5.71,5.7286,5.6506,5.6432,5.6432,5.6432,5.6998,5.7381,5.7381,5.8036,5.8415,5.8415,5.8415,5.8415,5.8459,5.8415,5.8415,5.8459,5.8415,5.8415,5.8415,5.8486,5.8492,6.3729,6.5838,6.7443,6.858,6.8185,6.7295,6.6479,6.5811,6.455,6.1678,6.1084,6.029,5.7674,6.0407,6.3416,6.4642,6.9608,7.3695,7.4969,7.6934,7.7663,7.6019,7.5982,7.5645,7.4576,7.5038,7.5188,7.4719,7.3233,7.3762,7.6957,7.6768,7.6586,7.6693,7.6256,7.5483,7.4327,7.3696,7.3398,7.3398,7.3398,7.3398,7.3398,7.3212,7.2767,7.2209,7.1961,7.1032,6.9707,6.9707,6.9224,6.8481,6.8481,6.8481,6.8481,6.8481,6.8481,6.8444,6.8283,6.7131,6.5682,6.5013,6.4248,6.3602,6.3602,6.3453,6.3193,6.2562,6.2264,6.1967,6.1373,6.1038,6.0704,6.0051,5.9717,5.9441,5.8846,5.8698,5.8698,5.8698,5.8698,5.8698,5.8698,5.8698,5.8698,5.8698,5.8698,5.8549,5.8141,5.8289,5.8326,5.8103,5.8103,5.8103,5.8103,5.8248,5.8359,5.8359,5.8503,5.8614,5.8614,5.8614,5.8723,5.8968,5.8743,5.8743,5.9025,5.8743,5.8614,5.8614,5.8635,5.8656,6.5811,6.7468,6.8593,6.8964,6.7913,6.6388,6.4828,6.3527,6.1744,5.8438,5.7749,5.71,5.4871,5.7658,6.089,6.2784,6.804,7.2703,7.4972,7.7706,7.9051,7.8064,7.831,7.816,7.7108,7.7449,7.7717,7.768,7.5855,7.5627,7.7779,7.7796,7.7517,7.7025,7.6874,7.6019,7.4325,7.3687,7.3398,7.3398,7.3398,7.3398,7.3398,7.3398,7.3175,7.2729,7.2729,7.1998,7.0772,7.04,6.9744,6.8964,6.863,6.8589,6.8763,6.8763,6.89,6.9041,6.9041,6.8216,6.6952,6.5746,6.4828,6.4085,6.3691,6.3602,6.3527,6.3044,6.2933,6.2822,6.2376,6.2004,6.1521,6.0667,6.0163,5.968,5.8884,5.8698,5.8698,5.8698,5.8698,5.8698,5.8698,5.8805,5.8865,5.8719,5.8984,5.9102,5.8927,5.8945,5.8945,5.8945,5.9064,5.9178,5.9178,5.9178,5.9178,5.9178,5.9178,5.9178,5.9178,5.9178,5.929,5.9467,5.929,5.929,5.9467,5.9102,5.8945,5.8925,5.8781,5.8884,6.702,6.806,6.8593,6.8394,6.7205,6.5385,6.2673,6.0778,5.8624,5.5243,5.4611,5.4388,5.3348,5.5468,5.8446,6.1608,6.6057,7.0583,7.4877,7.7508,7.9394,8.0389,8.0503,8.0361,8.0023,7.9625,7.9518,7.9946,7.8935,7.8159,7.7736,7.8266,7.7865,7.6306,7.6755,7.609,7.4124,7.3678,7.3501,7.3501,7.3424,7.3398,7.3398,7.3398,7.3398,7.3398,7.3398,7.2952,7.2135,7.1403,7.0524,6.9657,6.8987,6.8898,6.9112,6.9155,6.9388,6.9702,6.9702,6.9247,6.8395,6.679,6.5634,6.4733,6.3915,6.3647,6.3602,6.3602,6.3602,6.3602,6.3602,6.3082,6.2339,6.1475,6.0673,5.9812,5.8946,5.8739,5.8698,5.8698,5.8698,5.8719,5.876,5.9006,5.9103,5.8865,5.9399,5.9656,5.9325,5.9289,5.9289,5.9289,5.9588,5.9809,5.9809,5.9809,5.9809,5.9809,5.9809,5.9809,5.9809,5.9809,5.9842,5.9874,5.9842,5.9842,5.9874,5.9485,5.9289,5.9289,5.9079,5.9384,6.7874,6.8853,6.915,6.7837,6.6797,6.5088,6.1224,5.9069,5.6803,5.2828,5.2568,5.2345,5.0153,5.3644,5.7716,6.0416,6.5477,7.0806,7.5702,7.7641,7.9207,8.0767,8.0959,8.0953,8.09,8.0815,8.0799,8.0862,8.0661,8.052,8.0433,7.9879,7.8939,7.7606,7.6632,7.5649,7.4602,7.4124,7.3893,7.3869,7.3566,7.3398,7.3398,7.3398,7.3398,7.3398,7.3398,0.0,7.2209,7.206,7.1069,6.9719,6.9924,6.9626,6.9134,6.9468,6.9645,6.9702,6.9702,6.9626,6.9228,6.7562,6.6232,6.5141,6.4333,6.3873,6.3602,6.3602,6.3602,6.3602,6.3602,6.3527,6.3096,6.1888,6.1293,6.0603,5.9363,5.8905,5.8698,5.8698,5.8698,5.8801,5.9083,5.9159,5.9289,5.9592,5.9727,5.9755,5.9689,5.9689,5.9689,5.9689,5.9777,5.9809,5.9809,5.9809,5.9809,5.9809,5.9809,5.9809,5.9809,5.9809,5.9953,6.0208,5.9953,5.9953,6.0223,5.9852,5.9689,5.9711,6.032,6.0664,6.806,6.9076,6.941,6.8221,6.6662,6.4233,5.9701,5.6729,5.4017,5.0785,5.0079,4.9819,4.9039,5.2128,5.5593,5.818,6.226,6.7232,7.317,7.5088,7.7015,8.0054,8.0823,8.1093,8.1093,8.1093,8.1093,8.1093,8.1093,8.1093,8.1093,8.0285,7.9515,7.8892,7.7606,7.656,7.5685,7.5267,7.4695,7.4009,7.3811,7.3579,7.3398,7.3398,7.3398,7.3398,7.3398,7.3292,7.3067,7.2459,7.1725,7.0953,7.048,7.0043,6.9758,6.9941,7.0133,7.032,7.032,7.032,7.0053,6.8371,6.7131,6.6087,6.4841,6.4331,6.4154,6.4154,6.4029,6.3937,6.3937,6.3937,6.3642,6.2573,6.1713,6.0792,5.9731,5.9399,5.9215,5.9006,5.8947,5.8947,5.8927,5.9252,5.9502,5.9485,5.9962,6.0265,6.0091,6.0223,6.0251,6.0091,6.0223,6.0321,6.0321,6.0321,6.0321,6.0321,6.0321,6.0321,6.0321,6.0321,6.0376,6.0559,6.039,6.039,6.0559,6.0657,6.0456,6.0114,6.1175,6.1662,6.754,6.8704,6.9187,6.8246,6.6364,6.349,5.8466,5.4912,5.2009,4.9531,4.8389,4.8087,4.8861,5.104,5.3569,5.6316,5.9155,6.3513,7.0455,7.2624,7.5091,7.9323,8.0554,8.1093,8.1093,8.1093,8.1093,8.1093,8.0939,8.09,8.1093,8.0285,7.9708,7.9515,7.8377,7.7343,7.648,7.6065,7.5329,7.4287,7.4087,7.3835,7.3515,7.345,7.3398,7.3398,7.3398,7.3628,7.3911,7.2795,7.2289,7.2108,7.0976,7.046,7.032,7.04,7.0622,7.0898,7.0898,7.0898,7.0667,6.9167,6.8067,6.7023,6.5352,6.4769,6.4699,6.4699,6.452,6.431,6.431,6.431,6.4047,6.2993,6.1908,6.0871,5.9977,5.9809,5.9727,5.9397,5.9343,5.927,5.9064,5.9502,5.982,5.9568,6.0255,6.071,6.0455,6.0622,6.071,6.0455,6.0622,6.0781,6.0781,6.0781,6.0858,6.105,6.0896,6.0858,6.105,6.1089,6.0973,6.0781,6.0973,6.1089,6.1089,6.1275,6.1193,6.0964,6.2033,6.2595,6.5868,6.7465,6.8246,6.6722,6.5571,6.3372,5.7997,5.4813,5.2265,4.984,4.8865,4.864,4.9227,5.0623,5.2743,5.6089,5.8348,6.2322,6.9896,7.2423,7.5091,7.9323,8.0554,8.1093,8.1093,8.1093,8.1093,8.1093,8.0362,8.0246,8.1054,8.0285,7.9438,7.8631,7.7793,7.6932,7.6047,7.5599,7.5277,7.5165,7.4396,7.3986,7.394,7.3566,7.3398,7.3398,7.3398,7.3628,0.0,7.3077,7.2542,7.2167,7.1591,7.0925,7.0353,7.0719,7.0871,7.0898,7.0898,7.0898,7.0744,6.986,6.8767,6.7445,6.5749,6.5009,6.4699,6.4699,6.4681,6.4646,6.4646,6.4646,6.4229,6.2639,6.1856,6.1148,6.0042,5.9809,5.9809,5.9777,5.9723,5.982,6.0121,6.0223,6.0335,6.061,6.0734,6.0781,6.0757,6.0769,6.0781,6.0757,6.0769,6.0781,6.0781,6.0781,6.1127,6.1947,6.1243,6.1127,6.1947,6.1985,6.1601,6.0819,6.1601,6.1985,6.1985,6.1219,6.1591,6.3052,6.3143,6.363,6.4582,6.6537,6.7439,6.6,6.4625,6.2375,5.7418,5.3956,5.1405,4.9962,4.8648,4.8172,4.9424,5.0228,5.167,5.4562,5.5405,5.8011,6.4666,6.6628,6.9513,7.5322,7.7207,7.8823,8.09,8.1093,8.1093,8.1093,8.0785,8.0516,8.0323,7.9477,7.9092,7.9285,7.8438,7.763,7.6784,7.6586,7.6104,7.531,7.4708,7.4265,7.3986,7.3591,7.3515,7.3763,7.3763,7.3868,0.0,7.3972,7.325,7.2199,7.227,7.1603,7.069,7.0857,7.0898,7.0898,7.0898,7.0898,7.0783,6.9975,6.9009,6.7927,6.6724,6.5925,6.5403,6.5403,6.5253,6.5057,6.5057,6.5057,6.4686,6.3203,6.273,6.217,6.0723,6.039,6.0335,6.015,6.0106,6.0091,6.003,6.0179,6.0335,6.0494,6.0685,6.0781,6.0781,6.0781,6.0781,6.0781,6.0781,6.0781,6.0781,6.0781,6.1166,6.2062,6.1793,6.1973,6.2781,6.282,6.2666,6.232,6.2666,6.282,6.282,6.3012,6.3166,6.332,6.4397,6.4782,6.2678,6.4748,6.5792,6.4923,6.3519,6.1205,5.7058,5.3504,5.0884,5.0075,4.8656,4.8007,4.9607,5.0147,5.1009,5.305,5.3492,5.5588,6.1293,6.3243,6.632,7.2399,7.4399,7.6515,7.9669,8.0669,8.1093,8.1093,8.0631,8.0169,7.9823,7.8515,7.8169,7.9015,7.8477,7.7746,7.6899,7.6899,7.6448,7.5501,7.5094,7.4708,7.4374,7.3977,7.3954,7.4199,7.3913,7.4058,0.0,7.3934,7.3289,7.2577,7.2326,7.1697,7.0898,7.0898,7.0898,7.0898,7.0898,7.0898,7.0783,6.9975,6.9129,6.8244,6.7359,6.6551,6.5897,6.5897,6.5715,6.547,6.547,6.547,6.5106,6.3655,6.3308,6.2858,6.1166,6.0781,6.0734,6.0507,6.0468,6.0362,6.015,6.0293,6.0468,6.0468,6.0634,6.0781,6.0781,6.0781,6.0781,6.0781,6.0781,6.0781,6.0781,6.0781,6.1166,6.2062,6.187,6.2204,6.3281,6.3308,6.3308,6.3308,6.3551,6.3666,6.3705,6.4051,6.4166,6.4089,6.5051,6.532,5.9777,6.173,6.3009,6.3328,6.215,6.0113,5.7101,5.3811,5.119,5.0347,4.9081,4.851,4.9935,5.0472,5.0971,5.1808,5.3356,5.628,6.137,6.4282,6.7436,7.1706,7.2976,7.4514,7.7092,7.9631,8.1093,8.1093,7.9477,7.89,7.9746,7.74,7.6438,7.7284,7.7323,7.6899,7.6015,7.6015,7.6015,7.6,7.5518,7.531,7.5292,7.4846,7.4705,7.4629,7.3775,7.4125,0.0,7.258,7.2294,7.3308,7.1591,7.0898,7.0898,7.0898,7.0898,7.0898,7.0898,7.0898,7.0783,6.9975,6.9129,6.8244,6.7359,6.6551,6.5897,6.5897,6.5897,6.5897,6.5897,6.5897,6.5474,6.3692,6.3308,6.2858,6.1166,6.0781,6.0781,6.0781,6.0781,6.0781,6.0781,6.0781,6.0781,6.0781,6.0781,6.0781,6.0781,6.0781,6.0781,6.0781,6.0781,6.0781,6.0781,6.0781,6.1166,6.2062,6.1281,6.155,6.3231,6.3308,6.3308,6.3308,6.4166,6.4589,6.4589,6.3743,6.4205,6.5859,6.5013,6.5051,5.5249,5.6866,5.793,5.7104,5.6507,5.5486,5.3046,5.1233,4.9967,4.9708,4.8808,4.8606,5.0228,5.0624,5.152,5.4087,5.4972,5.6703,6.0666,6.3397,6.659,7.0821,7.5668,7.9015,7.9823,8.0092,8.0208,8.0208,7.9131,7.8361,7.8092,7.7323,7.7015,7.7284,7.6707,7.6284,7.6015,7.6015,7.6015,7.5976,7.5518,7.531,7.5254,7.4276,7.3972,7.4236,7.3359,7.3072,7.3176,7.2931,7.2414,7.1745,7.1783,7.1398,7.0898,7.0898,7.0898,7.0898,7.0898,7.0898,7.0783,6.9975,6.9129,6.8244,6.7359,6.6551,6.5897,6.5897,6.5897,6.5897,6.5897,6.5897,6.559,6.4474,6.3743,6.3012,6.1897,6.1216,6.0781,6.0781,6.0781,6.0781,6.0781,6.0781,6.0781,6.0781,6.0781,6.0781,6.0781,6.0781,6.0781,6.0781,6.0781,6.0781,6.0781,6.0781,6.1166,6.2062,6.2358,6.3012,6.4128,6.4743,6.5089,6.5089,6.5359,6.5474,6.5474,6.5205,6.5359,6.5897,6.5628,6.5628,5.2237,5.3689,5.452,5.381,5.3386,5.2706,5.1057,4.9779,4.8894,4.8894,4.8471,4.8548,4.9933,5.0481,5.1366,5.3472,5.4626,5.6319,5.9435,6.2589,6.6167,7.0398,7.5515,7.8707,7.8707,7.9054,7.9323,7.9323,7.8515,7.7823,7.7323,7.6976,7.6823,7.6823,7.6284,7.6015,7.6015,7.6015,7.6015,7.6015,7.5702,7.5551,7.5551,7.4396,7.407,7.4248,7.3083,7.2632,0.0,7.2591,7.2091,7.1398,7.1629,7.136,7.0898,7.0898,7.0898,7.0898,7.0898,7.0898,7.0706,6.959,6.8398,6.7359,6.6821,6.6282,6.5897,6.5897,6.5897,6.5897,6.5897,6.5897,6.5667,6.482,6.3935,6.3089,6.2293,6.1408,6.0781,6.0781,6.0781,6.0781,6.0781,6.0781,6.0781,6.0781,6.0781,6.0935,6.1243,6.1012,6.105,6.1666,6.1166,6.0935,6.1243,6.0973,6.1012,6.1601,6.2397,6.3243,6.4089,6.4936,6.5551,6.5897,6.5897,6.5897,6.5897,6.5897,6.5897,6.5897,6.5897,6.5897,0.0,5.1684,5.2344,5.2602,5.2077,5.1308,5.051,4.9125,0.0,4.8009,4.8009,4.8317,4.9394,5.0125,5.075,5.1174,5.3241,5.5665,5.828,6.2397,6.6705,7.086,7.3476,7.4976,7.4976,7.7053,7.84,7.84,7.7669,7.7207,7.7207,7.6438,7.6015,7.6015,7.6015,7.6015,7.6015,7.6015,7.6015,7.6015,7.6015,7.5976,7.5861,7.5014,7.4591,0.0,7.2822,7.2552,7.3206,7.1591,7.136,7.2014,7.1206,7.0898,7.0898,7.0898,7.0898,7.0898,7.0898,7.086,7.0552,6.8859,6.7205,6.5897,6.5897,6.5897,6.5897,6.5897,6.5897,6.5897,6.5897,6.5897,6.5705,6.4897,6.4051,6.3166,6.237,6.1512,6.0858,6.0819,6.0781,6.0781,6.0781,6.0781,6.0781,6.0781,6.0781,6.1089,6.1985,6.1331,6.1435,6.3128,6.1858,6.1243,6.2101,6.1408,6.0896,6.0896,6.1755,6.2589,6.3346,6.4243,6.5051,6.5859,6.5897,6.5897,6.5897,6.5897,6.5897,6.5897,6.5897,6.5897,4.6791,0.0,4.8126,4.7538,4.774,4.7855,0.0,4.7009,4.7192,4.7192,4.7192,4.8038,5.0808,5.0433,5.1202,5.578,5.7011,5.8511,6.1704,6.6898,7.1745,7.5361,7.6861,7.7592,7.7592,7.7592,7.7592,7.7592,7.6784,7.6322,7.6322,7.6092,7.6015,7.6015,7.6015,7.6015,7.6015,7.6015,7.6015,7.6015,7.6015,7.5668,7.4976,7.4168,7.3437,7.2745,7.1668,7.1321,7.1475,7.1052,7.1014,7.1206,7.0975,7.0898,7.0898,7.0898,7.0898,7.0898,7.0898,7.0514,6.9706,6.7975,6.6705,6.5897,6.5897,6.5897,6.5897,6.5897,6.5897,6.5897,6.5897,6.5897,6.5859,6.5628,6.4936,6.4051,6.3205,6.2358,6.1601,6.0935,6.0781,6.0781,6.0781,6.0781,6.0781,6.0781,6.0781,6.1089,6.1985,6.1331,6.1435,6.3128,6.2397,6.2127,6.2935,6.2281,6.1793,6.1793,6.3205,6.4089,6.4282,6.5128,6.5705,6.5897,6.5897,6.5897,6.5897,6.5897,6.5897,6.5897,6.5897,6.5897,4.5133,4.6471,4.7932,4.7471,4.7702,4.7932,4.7432,4.6817,4.6317,4.6317,4.6932,4.8125,5.0356,5.0971,5.2318,5.5972,5.7857,6.0589,6.5551,6.9667,7.3322,7.6322,7.7092,7.7361,7.7361,7.6938,7.6707,7.6707,7.6284,7.6015,7.6015,7.6015,7.6015,7.6015,7.6015,7.6015,7.6015,7.6015,7.6015,7.6015,7.5592,7.5168,7.4668,7.3437,7.2629,7.2129,7.1283,7.0898,7.0898,7.0898,7.0898,7.0898,7.0898,7.0667,7.0398,7.0744,7.0398,6.9821,7.0206,6.9552,6.8359,6.7398,6.6551,6.5897,6.5897,6.5897,6.5897,6.5897,6.5897,6.5897,6.5897,6.5897,6.5897,6.5897,6.4936,6.3858,6.3385,6.2358,6.1358,6.0896,6.0781,6.0781,6.0781,6.0781,6.0781,6.0781,6.0781,6.1089,6.1985,6.1331,6.1435,6.3128,6.2589,6.2435,6.3243,6.3281,6.3089,6.2666,6.3512,6.4166,6.4589,6.5436,6.5897,6.5897,6.5897,6.5897,6.5897,6.5897,6.5897,6.5897,6.5897,6.5897,4.4778,4.7201,4.9663,4.9163,4.9317,4.951,4.924,4.7509,4.5979,4.5979,4.7201,4.8663,4.9933,5.1933,5.3895,5.5395,5.8357,6.2743,6.9167,7.1283,7.3129,7.5707,7.6015,7.6015,7.6015,7.6015,7.6015,7.6015,7.6015,7.6015,7.6015,7.6015,7.6015,7.6015,7.6015,7.5938,7.5784,7.5784,7.5784,7.5784,7.4938,7.4437,7.4284,7.286,7.2129,7.1937,7.1206,7.0898,7.0898,7.0898,7.0898,7.0898,7.0744,7.0283,6.9783,7.0321,6.9629,6.8513,6.909,6.8321,6.709,6.6974,6.6436,6.5897,6.5897,6.5897,6.5897,6.5897,6.5897,6.5897,6.5897,6.5897,6.5897,6.5897,6.4782,6.3628,6.3346,6.2166,6.1089,6.0858,6.0781,6.0781,6.0781,6.0781,6.0781,6.0781,6.0781,6.1089,6.1985,6.1331,6.1435,6.3128,6.2589,6.2474,6.3435,6.4051,6.4205,6.3743,6.3705,6.4051,6.4782,6.5513,6.5897,6.5897,6.5897,6.5897,6.5897,6.5897,6.5897,6.5897,6.5897,6.5897,4.597,4.8962,5.0808,4.8,4.8894,5.0087,4.8625,4.8009,4.774,4.774,4.8509,5.0125,5.3164,5.4049,5.5742,6.0215,6.3166,6.6513,7.1168,7.2052,7.3129,7.5707,7.6015,7.6015,7.6015,7.6015,7.6015,7.6015,7.6015,7.6015,7.6015,7.6015,7.6015,7.6015,7.6015,7.5668,7.4899,7.4899,7.4899,7.4899,7.4091,7.3283,7.2591,7.2322,7.1783,7.1091,7.0975,7.0898,7.0898,7.0898,7.0898,7.0821,7.0167,6.9821,6.9629,6.9013,6.8615,6.8321,6.7705,6.7321,6.6974,6.632,6.6013,6.5897,6.5897,6.5897,6.5897,6.5897,6.5897,6.5897,6.5897,6.5897,6.5897,6.5897,6.5705,6.5089,6.3628,6.3089,6.2512,6.1089,6.0781,6.0781,6.0781,6.0781,6.0781,6.0781,6.0781,6.1089,6.1985,6.1331,6.1435,6.3128,6.2589,6.2704,6.4282,6.3858,6.4089,6.5436,6.5513,6.5551,6.5705,6.582,6.5897,6.5897,6.5897,6.5897,6.5897,6.5897,6.5897,6.5897,6.5897,6.5897,4.4547,4.7625,5.0279,4.9202,5.1548,5.3905,5.3087,5.1856,5.0856,5.0856,5.1548,5.2779,5.478,5.5934,5.8088,6.2704,6.5166,6.7705,7.1014,7.2322,7.3514,7.513,7.5707,7.6015,7.6015,7.6015,7.6015,7.6015,7.6015,7.6015,7.6015,7.6015,7.5784,7.5322,7.5284,7.4899,7.4053,7.3591,7.3591,7.4053,7.3206,7.2591,7.2168,7.1706,7.1283,7.0898,7.0898,7.0898,7.0898,7.0898,7.0898,7.0821,7.0014,6.9398,6.8859,6.7513,6.7321,6.759,6.6744,6.6436,6.6397,6.6013,6.5897,6.5897,6.5897,6.5897,6.5897,6.5897,6.5897,6.5897,6.5897,6.5897,6.5897,6.5897,6.5166,6.4282,6.3462,6.2589,6.1704,6.0935,6.0781,6.0781,6.0781,6.0781,6.0781,6.0781,6.0781,6.0935,6.137,6.105,6.1281,6.2512,6.232,6.2781,6.4474,6.4243,6.4359,6.5166,6.5628,6.5897,6.5897,6.5897,6.5897,6.5897,6.5897,6.5897,6.5897,6.5897,6.5897,6.5897,6.5897,6.5897,4.3739,4.6355,4.9163,5.0625,5.3395,5.6022,5.683,5.5011,5.3356,5.3972,5.478,5.5588,5.6203,5.8204,6.0973,6.4589,6.659,6.8513,7.086,7.236,7.3514,7.4322,7.5014,7.5399,7.5399,7.5399,7.5476,7.5668,7.5515,7.5515,7.5707,7.5515,7.513,7.4437,7.4437,7.4053,7.3206,7.2514,7.2552,7.3206,7.2322,7.1898,7.186,7.1206,7.0898,7.0898,7.0898,7.0898,7.0898,7.0706,7.0629,7.0514,6.9475,6.859,6.7667,6.6359,6.6282,6.6744,6.609,6.5897,6.5897,6.5897,6.5897,6.5897,6.5897,6.5897,6.5897,6.5897,6.5897,6.5897,6.5897,6.5897,6.5897,6.5897,6.4705,6.3551,6.3346,6.2127,6.105,6.0819,6.0973,6.1089,6.1089,6.1089,6.1089,6.1089,6.0935,6.0858,6.1089,6.1089,6.1435,6.2281,6.2358,6.2974,6.4474,6.4782,6.4897,6.4897,6.5513,6.5897,6.5897,6.5897,6.5897,6.5897,6.5897,6.5897,6.5897,6.5897,6.5897,6.5897,6.5897,6.5897,4.5547,4.6846,4.7846,5.1,5.2038,5.3087,5.6291,5.5011,5.3857,5.6252,5.7434,5.805,5.8088,6.1435,6.4743,6.6628,6.8398,7.0129,7.186,7.2206,7.2629,7.3476,7.363,7.3668,7.3668,7.3668,7.4014,7.4745,7.4091,7.4014,7.4745,7.4091,7.3668,7.3591,7.3591,7.3168,7.2283,7.2206,7.2206,7.2283,7.1398,7.0975,7.0975,7.0937,7.0898,7.0898,7.0898,7.0898,7.0821,7.009,6.9783,6.9629,6.7936,6.6782,6.6051,6.5936,6.5936,6.5974,6.5897,6.5897,6.5897,6.5897,6.5897,6.5897,6.5897,6.5897,6.5897,6.5897,6.5897,6.5897,6.5897,6.5897,6.5897,6.5897,6.5205,6.4282,6.3462,6.2627,6.1793,6.0973,6.1447,6.2024,6.2024,6.2024,6.2024,6.2024,6.132,6.1089,6.1908,6.2024,6.232,6.3128,6.3205,6.3589,6.4512,6.532,6.582,6.582,6.5859,6.5897,6.5897,6.5897,6.5897,6.5897,6.5897,6.5897,6.5897,6.5897,6.5897,6.5897,6.5897,6.5897,4.3803,4.6047,4.8202,5.0587,5.1933,5.3472,5.6329,5.7473,5.8357,5.9869,6.0819,6.1281,6.0742,6.2397,6.4166,6.5359,6.7436,6.9321,7.0475,7.1552,7.2322,7.2629,7.3168,7.3514,7.3514,7.3514,7.363,7.3937,7.3668,7.386,7.4668,7.4399,7.4014,7.3514,7.3514,7.2822,7.1398,7.1398,7.1398,7.1398,7.1052,7.0898,7.0898,7.0898,7.0898,7.086,7.036,7.0167,7.009,6.9244,6.8898,6.8783,6.7552,6.659,6.5897,6.5897,6.5897,6.5897,6.5897,6.5897,6.5897,6.5897,6.5897,6.5897,6.5897,6.5897,6.5897,6.5897,6.5897,6.5897,6.5897,6.5897,6.5897,6.5897,6.482,6.3705,6.3346,6.2243,6.1166,6.0858,6.105,6.1447,6.2024,6.2101,6.2101,6.2101,6.1831,6.1716,6.2062,6.2101,6.2627,6.3974,6.4589,6.482,6.4628,6.5397,6.5667,6.5128,6.559,6.5897,6.5897,6.5897,6.5897,6.5897,6.5897,6.5897,6.5897,6.5897,6.5897,6.5897,6.5897,6.5897,4.3442,4.5778,4.8202,5.0212,5.1972,5.3933,5.678,5.8742,6.0473,6.2127,6.2704,6.282,6.2512,6.2935,6.3666,6.482,6.6936,6.8706,6.959,7.0898,7.1783,7.1783,7.2322,7.2668,7.2668,7.2668,7.2783,7.3091,7.2822,7.3053,7.386,7.3668,7.3245,7.2734,7.2696,7.2132,7.0965,7.0965,7.0965,7.0965,7.0965,7.0939,7.0898,7.0898,7.0898,7.086,7.0052,6.9706,6.9629,6.8475,6.7859,6.7552,6.6936,6.6359,6.5897,6.5897,6.5897,6.5897,6.5897,6.5897,6.5897,6.5897,6.5897,6.5897,6.5897,6.5897,6.5897,6.5897,6.5705,6.5474,6.5474,6.5474,6.5474,6.5474,6.4166,6.2935,6.2935,6.1781,6.0781,6.0781,6.1012,6.1473,6.232,6.2293,6.2293,6.282,6.2447,6.2293,6.2832,6.2897,6.3435,6.4859,6.5551,6.5667,6.5051,6.5551,6.5628,6.5051,6.5551,6.5782,6.5513,6.5743,6.5897,6.5897,6.5897,6.5897,6.5897,6.5897,6.5897,6.5897,6.5897,6.5897,4.5137,4.624,4.7548,5.0058,5.1972,5.4126,5.755,5.8319,5.9281,6.2627,6.2666,6.2358,6.3166,6.3308,6.3897,6.559,6.7282,6.8706,6.9552,7.036,7.086,7.0898,7.0898,7.0898,7.0898,7.0898,7.1245,7.2129,7.1398,7.1283,7.2182,7.136,7.0925,7.1005,7.1005,7.103,7.1106,7.1093,7.1093,7.1106,7.1093,7.103,7.0898,7.0898,7.0898,7.086,7.0052,6.9667,6.9552,6.7782,6.6628,6.5897,6.5897,6.5897,6.5897,6.5897,6.5897,6.5897,6.5897,6.5897,6.5897,6.5897,6.5897,6.5897,6.5897,6.5897,6.5897,6.5897,6.5243,6.4589,6.4589,6.4589,6.4589,6.4589,6.332,6.2101,6.2101,6.1408,6.0781,6.0781,6.1512,6.232,6.3166,6.2627,6.2678,6.432,6.3166,6.2716,6.4397,6.4628,6.4936,6.582,6.5897,6.5897,6.5897,6.5897,6.5897,6.5897,6.5897,6.5513,6.4666,6.5436,6.5897,6.5897,6.5897,6.5897,6.5897,6.5897,6.5897,6.5897,6.5897,6.5897,4.3986,4.6249,4.8971,5.0366,5.3328,5.628,5.7934,5.9704,6.1743,6.4551,6.4436,6.3935,6.4166,6.4205,6.4397,6.4897,6.6397,6.759,6.7821,6.8629,6.9425,7.0041,7.017,7.0426,7.1005,7.1043,7.1159,7.1429,7.1197,7.1429,7.2277,7.2084,7.1981,7.1994,7.1994,7.1698,7.1106,7.0527,7.0527,7.1093,7.0527,7.0541,7.1043,7.1043,7.0735,7.0157,6.9309,6.8576,6.7921,6.6803,6.6186,6.5955,6.5955,6.5955,6.5955,6.5955,6.5955,6.5955,6.5955,6.5955,6.5955,6.5955,6.597,6.5984,6.5982,6.551,6.4987,6.5036,6.4395,6.3705,6.3705,6.3281,6.2974,6.3551,6.2858,6.2101,6.2101,6.1408,6.0781,6.0781,6.1012,6.1473,6.232,6.2255,6.2255,6.2793,6.2897,6.3358,6.4474,6.5128,6.559,6.5859,6.5897,6.5897,6.5897,6.5897,6.5628,6.5013,6.5551,6.5782,6.5513,6.5743,6.5897,6.5897,6.5897,6.5897,6.5897,6.5897,6.5897,6.5897,6.5897,6.5897,4.5634,4.8265,5.1299,5.2887,5.543,5.7934,5.9473,6.1012,6.2716,6.4936,6.4705,6.432,6.4974,6.482,6.4717,6.5088,6.6281,6.7141,6.7166,6.7973,6.873,6.927,6.9345,6.9562,7.0064,7.0103,7.0103,7.0103,7.045,7.072,7.0874,7.1221,7.1272,7.0949,7.0949,7.0691,7.0212,6.971,6.971,7.0174,6.971,6.971,7.0212,7.0501,7.018,6.9331,6.8482,6.7595,6.6734,6.6233,6.6001,6.6001,6.6001,6.6001,6.6001,6.6001,6.6001,6.5963,6.5616,6.55,6.5461,6.5114,6.5014,6.5003,6.4999,6.4606,6.4174,6.4209,6.3581,6.2852,6.2852,6.2275,6.184,6.2639,6.2204,6.1601,6.1601,6.1166,6.0781,6.0781,6.0781,6.1089,6.1947,6.1831,6.182,6.2474,6.3281,6.4128,6.5013,6.5282,6.5397,6.5397,6.5397,6.5397,6.5397,6.5705,6.5667,6.5166,6.5282,6.5551,6.5897,6.5897,6.5897,6.5897,6.5897,6.5897,6.5897,6.5897,6.5897,6.5897,6.5897,6.5897,4.8607,5.1147,5.3735,5.6405,5.7814,5.9127,6.1447,6.1985,6.2486,6.414,6.3858,6.3794,6.5371,6.5025,6.478,6.5611,6.6471,6.6984,6.7043,6.7838,6.8401,6.8517,6.8502,6.8552,6.8606,6.8645,6.8633,6.861,6.9343,6.9459,6.8648,6.9381,6.9444,6.8729,6.869,6.8762,6.8816,6.8738,6.8738,6.8816,6.8738,6.87,6.8689,6.9467,6.9304,6.8455,6.7568,6.6757,6.6024,6.5947,6.5909,6.5909,6.5831,6.5831,6.5909,6.5831,6.5831,6.5793,6.4982,6.4712,6.4558,6.3786,6.3516,6.3505,6.3516,6.3428,6.3389,6.3389,6.2772,6.2105,6.2105,6.1527,6.1158,6.1828,6.1381,6.0843,6.0793,6.0793,6.0793,6.0781,6.0781,6.105,6.187,6.132,6.1358,6.3051,6.3974,6.4782,6.5667,6.5089,6.4589,6.4474,6.4474,6.4474,6.4474,6.5282,6.5782,6.5782,6.5051,6.4974,6.5859,6.582,6.582,6.5897,6.5897,6.5859,6.5782,6.5782,6.5743,6.5667,6.5743,6.5782,4.6412,4.9421,5.3022,5.5431,5.816,6.0408,6.1031,6.1158,6.162,6.3315,6.3507,6.3519,6.395,6.3846,6.3808,6.3984,6.4756,6.5334,6.5346,6.6167,6.7065,6.7724,6.7915,6.8193,6.8765,6.8825,6.88,6.8745,6.8928,6.8966,6.8773,6.8928,6.8977,6.8794,6.8794,6.8794,6.8816,6.8119,6.8119,6.8777,6.8119,6.7771,6.781,6.8629,6.8541,6.769,6.6801,6.6337,6.6105,6.5497,6.5227,6.5149,6.4453,6.4608,6.5149,6.4453,6.4647,6.5111,6.4221,6.3951,6.3912,6.3719,6.3611,6.358,6.3631,6.3117,6.2502,6.2555,6.1916,6.1257,6.1257,6.1141,6.1025,6.1197,6.107,6.0944,6.09,6.0888,6.0877,6.0793,6.0781,6.0858,6.105,6.0935,6.1358,6.3051,6.3474,6.3897,6.4782,6.4705,6.4359,6.3666,6.3589,6.3589,6.3589,6.4397,6.4897,6.4897,6.4705,6.4974,6.5859,6.5243,6.5205,6.5897,6.5897,6.5551,6.4897,6.4897,6.4551,6.3897,6.4551,6.4897,4.7023,5.0085,5.3474,5.6697,5.9165,6.0793,6.0827,6.0888,6.1153,6.2062,6.2574,6.2959,6.3417,6.3494,6.3505,6.3538,6.3979,6.428,6.43,6.4831,6.5524,6.6386,6.654,6.6914,6.7703,6.7814,6.7786,6.7736,6.8079,6.8103,6.7685,6.7977,6.8003,6.7578,6.7578,6.7578,6.7578,6.7114,6.7114,6.7539,6.7075,6.6882,6.6882,6.7346,6.7307,6.6843,6.5992,6.5644,6.5566,6.4715,6.4377,6.4338,6.3874,6.399,6.4338,6.3874,6.399,6.4261,6.3362,6.3091,6.3013,6.2588,6.2414,6.2394,6.2424,6.2085,6.1697,6.1727,6.1408,6.1031,6.1031,6.1031,6.1031,6.1031,6.1029,6.0987,6.0955,6.0944,6.0944,6.0911,6.0911,6.1026,6.1412,6.1774,6.2329,6.3214,6.3678,6.4089,6.4551,6.4243,6.3666,6.282,6.2743,6.2743,6.2743,6.3474,6.4166,6.4589,6.3858,6.3974,6.5243,6.4051,6.4205,6.5859,6.5897,6.5474,6.4589,6.4589,6.4166,6.3308,6.3782,6.4205,4.7225,5.0572,5.4021,5.8259,5.9969,6.0627,6.0793,6.0877,6.0933,6.0997,6.1548,6.2204,6.2948,6.3102,6.3085,6.3176,6.335,6.351,6.358,6.3819,6.4252,6.5012,6.5108,6.5385,6.6113,6.6191,6.6137,6.6135,6.6807,6.6912,6.6198,6.6854,6.6959,6.6224,6.6185,6.6147,6.5992,6.5992,6.5915,6.576,6.576,6.576,6.576,6.576,6.5837,6.5953,6.5141,6.4803,6.4725,6.3835,6.3487,6.3449,6.3333,6.3333,6.3449,6.3333,6.3371,6.3362,6.2472,6.2201,6.2046,6.135,6.1118,6.1118,6.1118,6.1118,6.1118,6.1118,6.1118,6.1118,6.1118,6.1118,6.1118,6.1118,6.1051,6.1018,6.1008,6.1008,6.1008,6.0997,6.0987,6.1267,6.205,6.2739,6.3245,6.3388,6.3957,6.4345,6.4203,6.3537,6.2793,6.1997,6.187,6.187,6.187,6.2627,6.3397,6.4128,6.287,6.2781,6.432,6.2897,6.3178,6.5397,6.5436,6.5013,6.4166,6.4166,6.3705,6.2858,6.3012,6.3474,4.2464,4.7373,5.3137,5.7534,5.9163,5.9869,6.0696,6.09,6.0905,6.0972,6.1108,6.1195,6.1399,6.1408,6.1408,6.1418,6.2095,6.2632,6.2757,6.348,6.4051,6.4236,6.4358,6.4443,6.4445,6.444,6.4345,6.4181,6.4955,6.5389,6.5199,6.5935,6.6301,6.6185,6.6185,6.5876,6.518,6.5141,6.4803,6.4029,6.4029,6.4029,6.4029,6.4029,6.4454,6.5102,6.4261,6.3874,6.3797,6.2936,6.2588,6.2511,6.1737,6.193,6.2472,6.1737,6.193,6.2433,6.1582,6.1273,6.1234,6.1157,6.1118,6.1118,6.1118,6.1118,6.1118,6.1118,6.1118,6.1118,6.1118,6.1118,6.1118,6.1118,6.1109,6.108,6.1002,6.0992,6.1021,6.0997,6.0987,6.1267,6.205,6.2271,6.2607,6.3378,6.3599,6.3356,6.2624,6.2348,6.194,6.1169,6.1008,6.0973,6.0973,6.1743,6.2332,6.2447,6.2216,6.2512,6.3435,6.2589,6.2589,6.3628,6.3666,6.3243,6.2447,6.2447,6.1973,6.1166,6.1897,6.2332,4.35,4.7855,5.2155,5.5991,5.752,5.8457,5.986,6.0201,6.037,6.0876,6.1022,6.1051,6.107,6.1118,6.1118,6.1118,6.1524,6.1856,6.1912,6.2368,6.2906,6.3428,6.3553,6.3749,6.4172,6.4211,6.4161,6.4076,6.4325,6.4461,6.444,6.4683,6.4793,6.4793,6.4793,6.4638,6.43,6.4261,6.4068,6.3719,6.3719,6.3719,6.3681,6.3168,6.3439,6.4222,6.3362,6.2975,6.2897,6.2046,6.166,6.1621,6.1234,6.135,6.1621,6.1234,6.135,6.1621,6.1234,6.1118,6.1118,6.1118,6.1118,6.1118,6.1118,6.1118,6.1118,6.1118,6.1118,6.1118,6.1118,6.1118,6.1118,6.1118,6.1118,6.107,6.1051,6.1041,6.108,6.1051,6.1437,6.1746,6.1592,6.2344,6.2941,6.2853,6.3207,6.3186,6.2298,6.2161,6.1841,6.1032,6.0911,6.0877,6.0877,6.1189,6.1601,6.2062,6.1639,6.1743,6.2589,6.182,6.155,6.1897,6.282,6.2897,6.2101,6.2101,6.1639,6.0819,6.1166,6.1639,4.3547,4.6971,4.9673,5.3472,5.5406,5.6802,5.8588,5.9325,5.9878,6.0567,6.0916,6.106,6.1118,6.1116,6.1152,6.1152,6.1272,6.1422,6.1443,6.1573,6.1913,6.2578,6.2656,6.293,6.3594,6.3633,6.3633,6.3631,6.3641,6.3658,6.3631,6.3665,6.3719,6.3719,6.3719,6.3603,6.3362,6.3129,6.3062,6.3062,6.3062,6.3062,6.3013,6.2356,6.2433,6.3013,6.2356,6.2085,6.2008,6.1389,6.1118,6.1118,6.1118,6.1118,6.1118,6.1118,6.1118,6.1118,6.1118,6.1118,6.1118,6.1118,6.1118,6.1118,6.1118,6.1118,6.1118,6.1118,6.1118,6.1118,6.1118,6.1118,6.1118,6.1118,6.1118,6.1118,6.1118,6.1118,6.1118,6.1118,6.1621,6.193,6.1505,6.2472,6.307,6.2413,6.2836,6.292,6.2032,6.1906,6.1674,6.1057,6.0965,6.0933,6.0933,6.0888,6.1135,6.1778,6.1189,6.1112,6.1755,6.1127,6.0781,6.0781,6.205,6.2358,6.1793,6.1793,6.1435,6.0781,6.0781,6.1127,3.9438,4.2124,4.4701,4.9711,5.2818,5.5098,5.6845,5.8445,5.9633,5.9823,6.0471,6.1022,6.1109,6.1189,6.1296,6.1296,6.1334,6.1443,6.1554,6.1605,6.1662,6.1758,6.1758,6.1797,6.1836,6.1836,6.1794,6.1768,6.2399,6.2725,6.2677,6.3318,6.3719,6.3719,6.3719,6.3284,6.2472,6.166,6.1234,6.1234,6.1234,6.1234,6.1234,6.1195,6.1195,6.1234,6.1195,6.1157,6.1157,6.1118,6.1118,6.1118,6.1118,6.1118,6.1118,6.1118,6.1118,6.1118,6.1118,6.1118,6.1118,6.1118,6.1118,6.1118,6.1118,6.1118,6.1118,6.1118,6.1118,6.1118,6.1118,6.1118,6.1118,6.1118,6.1118,6.1118,6.1118,6.1118,6.1118,6.1118,6.1157,6.1427,6.2201,6.2385,6.2462,6.2385,6.2424,6.2153,6.1263,6.1109,6.1041,6.1002,6.099,6.0987,6.0987,6.0987,6.0965,6.0949,6.09,6.0877,6.0858,6.0819,6.0781,6.0781,6.0896,6.0896,6.0858,6.0858,6.0819,6.0781,6.0781,6.0819,3.7276,3.97,4.2401,4.6441,4.896,5.1077,5.3359,5.5673,5.7448,5.8055,5.9311,6.0287,6.0344,6.0786,6.1181,6.1289,6.134,6.1448,6.1598,6.1626,6.1677,6.1719,6.1719,6.1679,6.1627,6.1626,6.1571,6.1467,6.1684,6.1784,6.1776,6.1923,6.2046,6.2046,6.2046,6.1892,6.1582,6.1273,6.1118,6.1118,6.1118,6.1118,6.1118,6.1118,6.1118,6.1118,6.1118,6.1118,6.1118,6.1118,6.1118,6.1118,6.1118,6.1118,6.1118,6.1118,6.1118,6.1118,6.1118,6.1118,6.1118,6.1118,6.1118,6.1118,6.1118,6.1118,6.1118,6.1118,6.1118,6.1118,6.1118,6.1118,6.1118,6.1118,6.1118,6.1118,6.1118,6.1118,6.1118,6.1118,6.1118,6.1195,6.1505,6.1582,6.1582,6.1582,6.1582,6.1466,6.1157,6.106,6.1051,6.1051,6.1041,6.101,6.101,6.1018,6.0987,6.0965,6.0933,6.09,6.0877,6.0804,6.0781,6.0781,6.0781,6.0781,6.0781,6.0781,6.0781,6.0781,6.0781,6.0781,3.5391,3.77,4.0554,4.4248,4.6052,4.7752,5.0928,5.324,5.5023,5.6227,5.783,5.9106,5.9416,5.988,6.0511,6.1227,6.1426,6.1512,6.1621,6.1677,6.1719,6.1719,6.1719,6.1677,6.161,6.1605,6.1543,6.1422,6.1343,6.131,6.131,6.1186,6.1118,6.1118,6.1118,6.1118,6.1118,6.1118,6.1118,6.1118,6.1118,6.1118,6.1118,6.1118,6.1118,6.1118,6.1118,6.1118,6.1118,6.1118,6.1118,6.1118,6.1118,6.1118,6.1118,6.1118,6.1118,6.1118,6.1118,6.1118,6.1118,6.1118,6.1118,6.1118,6.1118,6.1118,6.1118,6.1118,6.1118,6.1118,6.1118,6.1118,6.1118,6.1118,6.1118,6.1118,6.1118,6.1118,6.1118,6.1118,6.1118,6.1118,6.1118,6.1118,6.1118,6.1118,6.1118,6.1118,6.1118,6.1118,6.1118,6.1118,6.1051,6.1032,6.1032,6.1031,6.1029,6.0997,6.0955,6.0922,6.0877,6.0804,6.0781,6.0781,6.0781,6.0781,6.0781,6.0781,6.0781,6.0781,6.0781,6.0781,0.0,0.0,0.0,4.3047,4.4157,4.5354,4.9577,5.1241,5.2442,5.4263,5.5973,5.7443,5.8333,5.8535,5.9165,6.1027,6.1493,6.164,6.164,6.164,6.168,6.1719,6.1719,6.1677,6.1607,6.1603,6.1537,6.1412,6.1337,6.1303,6.1303,6.1178,6.1118,6.1118,6.1118,6.1118,6.1118,6.1118,6.1118,6.1118,6.1118,6.1118,6.1118,6.1118,6.1118,6.1118,6.1118,6.1118,6.1118,6.1118,6.1118,6.1118,6.1118,6.1118,6.1118,6.1118,6.1118,6.1118,6.1118,6.1118,6.1118,6.1118,6.1118,6.1118,6.1118,6.1118,6.1118,6.1118,6.1118,6.1118,6.1118,6.1118,6.1118,6.1118,6.1118,6.1118,6.1118,6.1118,6.1118,6.1118,6.1118,6.1118,6.1118,6.1118,6.1118,6.1118,6.1118,6.1118,6.1118,6.1118,6.1118,6.1118,6.1118,6.1118,6.1118,6.1118,6.107,6.1008,6.0997,6.0944,6.0793,6.0793,6.0793,6.0781,6.0781,6.0781,6.0781,6.0781,6.0781,6.0781,6.0781,6.0781,3.3468,0.0,0.0,0.0,0.0,0.0,0.0,4.6066,4.8268,5.0635,5.2453,5.4233,5.636,5.7327,5.8208,5.9406,5.9623,5.9904,6.0604,6.0739,6.0976,6.164,6.1719,6.1633,6.1467,6.1452,6.1383,0.0,6.1186,6.1161,6.1161,6.1107,6.1118,6.1118,6.1118,6.1118,6.1118,6.1118,6.1118,6.1118,6.1118,6.1118,6.1118,6.1118,6.1118,6.1118,6.1118,6.1118,6.1118,6.1118,6.1118,6.1118,6.1118,6.1118,6.1118,6.1118,6.1118,6.1118,6.1118,6.1118,6.1118,6.1118,6.1118,6.1118,6.1118,6.1118,6.1118,6.1118,6.1118,6.1118,6.1118,6.1118,6.1118,6.1118,6.1118,6.1118,6.1118,6.1118,6.1118,6.1118,6.1118,6.1118,6.1118,6.1118,6.1118,6.1118,6.1118,6.1118,6.1118,6.1118,6.1118,6.1118,6.1118,6.1118,6.1118,6.1118,6.1109,6.107,6.1041,6.0972,6.0941,6.0938,6.0933,6.0888,6.0888,6.0866,6.0781,6.0781,6.0781,6.0781,6.0781,6.0781,3.4853,3.6084,3.8053,3.9129,0.0,0.0,4.2946,4.4225,4.5645,0.0,5.021,5.1718,5.3536,5.463,5.5488,5.6036,5.6792,5.7875,5.9592,5.988,6.0078,6.0586,6.0937,6.1083,6.0885,6.1179,6.1316,6.1107,6.1118,6.1118,6.1118,6.1118,6.1118,6.1118,6.1118,6.1118,6.1118,6.1118,6.1118,6.1118,6.1118,6.1118,6.1118,6.1118,6.1118,6.1118,6.1118,6.1118,6.1118,6.1118,6.1118,6.1118,6.1118,6.1118,6.1118,6.1118,6.1118,6.1118,6.1118,6.1118,6.1118,6.1118,6.1118,6.1118,6.1118,6.1118,6.1118,6.1118,6.1118,6.1118,6.1118,6.1118,6.1118,6.1118,6.1118,6.1118,6.1118,6.1118,6.1118,6.1118,6.1118,6.1118,6.1118,6.1118,6.1118,6.1118,6.1118,6.1118,6.1118,6.1118,6.1118,6.1118,6.1118,6.1118,6.1118,6.1118,6.1109,6.1051,6.1022,6.0992,6.101,6.1008,6.0976,6.0944,6.0944,6.0933,6.09,6.0843,6.0781,6.0781,6.0781,6.0781,3.7353,3.8315,4.01,4.2179,4.1169,0.0,4.4143,4.3947,4.3866,0.0,4.8159,4.9049,5.0124,5.1076,5.1724,5.1979,5.3536,5.5711,5.8513,5.8984,5.9101,5.918,5.9804,6.0181,5.9984,6.0658,6.1032,6.0836,6.0809,6.0809,6.0809,6.0809,6.0809,6.0809,6.0809,6.0809,6.0809,6.0809,6.0886,6.0963,6.0963,6.1002,6.1118,6.1118,6.1118,6.1118,6.1118,6.1118,6.1118,6.1118,6.1118,6.1118,6.1118,6.1118,6.1118,6.1118,6.1118,6.1118,6.1118,6.1118,6.1118,6.1118,6.1118,6.1118,6.1118,6.1118,6.1118,6.1118,6.1118,6.1118,6.1118,6.1118,6.1118,6.1118,6.1118,6.1118,6.1118,6.1118,6.1118,6.1118,6.1118,6.1118,6.1118,6.1118,6.1118,6.1118,6.1118,6.1118,6.1118,6.1118,6.1118,6.1118,6.1118,6.1118,6.1118,6.1118,6.106,6.1012,6.1012,6.1031,6.1008,6.1008,6.1008,6.0997,6.0997,6.0987,6.0987,6.0888,6.0804,6.0804,6.0804,6.0804,4.0008,4.0508,4.1093,4.0246,4.0714,0.0,3.994,4.0514,4.1474,0.0,4.2441,4.3447,4.6348,4.7598,4.8638,5.0114,5.1905,5.4018,5.6655,5.7691,5.8398,5.9101,5.925,5.9254,5.9122,5.9193,5.9177,5.9086,5.9068,5.9068,5.9068,5.9068,5.9068,5.9068,5.9068,5.9068,5.9068,5.9068,5.9455,6.0112,6.0112,6.046,6.1118,6.1118,6.1118,6.1118,6.1118,6.1118,6.1118,6.1118,6.1118,6.1118,6.1118,6.1118,6.1118,6.1118,6.1118,6.1118,6.1118,6.1118,6.1118,6.1118,6.1118,6.1118,6.1118,6.1118,6.1118,6.1118,6.1118,6.1118,6.1118,6.1118,6.1118,6.1118,6.1118,6.1118,6.1118,6.1118,6.1118,6.1118,6.1118,6.1118,6.1118,6.1118,6.1118,6.1118,6.1118,6.1118,6.1118,6.1118,6.1118,6.1118,6.1118,6.1118,6.1118,6.1118,6.107,6.106,6.106,6.1099,6.109,6.109,6.107,6.0992,6.1018,6.0987,6.0987,6.0965,6.0955,6.0955,6.0955,6.0955,4.1967,4.2317,4.2799,4.1865,0.0,0.0,0.0,4.072,4.1094,4.2376,4.1964,4.2202,4.4794,4.5628,4.6341,4.7743,4.978,5.1537,5.2476,5.4521,5.6133,5.6562,5.6903,5.725,5.7559,5.7926,5.8256,5.8583,5.8613,5.8613,5.8613,5.8613,5.8613,5.8613,5.8613,5.8613,5.8613,5.8613,5.8797,5.9261,5.9261,5.9455,5.988,6.0306,6.0499,6.0538,6.0925,6.1118,6.1118,6.1118,6.1118,6.1118,6.1118,6.1118,6.1118,6.1118,6.1118,6.1118,6.1118,6.1118,6.1118,6.1118,6.1118,6.1118,6.1118,6.1118,6.1118,6.1118,6.1118,6.1118,6.1118,6.1118,6.1118,6.1118,6.1118,6.1118,6.1118,6.1118,6.1118,6.1118,6.1118,6.1118,6.1118,6.1118,6.1118,6.1118,6.1118,6.1118,6.1118,6.1118,6.1118,6.1118,6.1118,6.1118,6.1118,6.1118,6.1118,6.1118,6.1118,6.1118,6.1118,6.1118,6.107,6.1041,6.1051,6.1041,6.1041,6.1041,6.1049,6.0987,6.0987,6.0987,0.0,0.0,4.4636,0.0,0.0,4.2734,0.0,0.0,0.0,4.2974,4.2221,0.0,0.0,0.0,0.0,4.4909,0.0,0.0,0.0,5.0445,0.0,5.3202,5.3922,5.4729,5.5485,5.5958,5.6636,5.7538,5.7452,5.7529,5.783,5.8023,5.8101,5.8101,5.8101,5.8101,5.8101,5.8101,5.8178,5.8333,5.8333,5.8449,5.8613,5.9339,5.9648,5.9687,6.0499,6.0886,6.0886,6.1041,6.1118,6.1118,6.1118,6.1118,6.1118,6.1118,6.1118,6.1118,6.1118,6.1118,6.1118,6.1118,6.1118,6.1118,6.1118,6.1118,6.1118,6.1118,6.1118,6.1118,6.1118,6.1118,6.1118,6.1118,6.1118,6.1118,6.1118,6.1118,6.1118,6.1118,6.1118,6.1118,6.1118,6.1118,6.1118,6.1118,6.1118,6.1118,6.1118,6.1118,6.1118,6.1118,6.1118,6.1118,6.1118,6.1118,6.1118,6.1118,6.1118,6.1118,6.1118,6.1118,6.1118,6.1118,6.1118,6.1118,6.1118,6.1118,6.107,6.1029,6.1029,6.1029,0.0,0.0,0.0,0.0,4.4829,0.0,0.0,0.0,4.1306,3.9334,0.0,0.0,0.0,0.0,0.0,0.0,0.0,0.0,4.4328,4.5783,4.7877,5.0255,5.114,5.195,5.2823,5.2143,5.2322,5.397,5.3351,5.3614,5.5161,5.5896,5.6321,5.6321,5.6321,5.6321,5.6321,5.6321,5.667,5.7434,5.7434,5.7869,5.8613,5.869,5.8767,5.8806,5.9648,6.0035,6.0074,6.0809,6.1118,6.1118,6.1118,6.1118,6.1118,6.1118,6.1118,6.1118,6.1118,6.1118,6.1118,6.1118,6.1118,6.1118,6.1118,6.1118,6.1118,6.1118,6.1118,6.1118,6.1118,6.1118,6.1118,6.1118,6.1118,6.1118,6.1118,6.1118,6.1118,6.1118,6.1118,6.1118,6.1118,6.1118,6.1118,6.1118,6.1118,6.1118,6.1118,6.1118,6.1118,6.1118,6.1118,6.1118,6.1118,6.1118,6.1118,6.1118,6.1118,6.1118,6.1118,6.1118,6.1118,6.1118,6.1118,6.1118,6.1118,6.1118,6.1109,6.1099,6.1099,6.1099,0.0,0.0,0.0,0.0,0.0,0.0,4.1584,0.0,4.1087,0.0,0.0,0.0,0.0,0.0,0.0,0.0,4.2077,0.0,0.0,0.0,4.4218,4.7432,0.0,0.0,5.0706,5.0012,5.0171,5.1873,5.1215,5.1718,5.3923,5.4851,5.5509,5.6012,5.6012,5.6012,5.6012,5.6012,5.6158,5.6545,5.6545,5.6747,5.7095,5.7637,5.7869,5.7907,5.8758,5.9416,5.9919,6.0267,6.0692,6.1118,6.1118,6.1118,6.1118,6.1118,6.1118,6.1118,6.1118,6.1118,6.1118,6.1118,6.1118,6.1118,6.1118,6.1118,6.1118,6.1118,6.1118,6.1118,6.1118,6.1118,6.1118,6.1118,6.1118,6.1118,6.1118,6.1118,6.1118,6.1118,6.1118,6.1118,6.1118,6.1118,6.1118,6.1118,6.1118,6.1118,6.1118,6.1118,6.1118,6.1118,6.1118,6.1118,6.1118,6.1118,6.1118,6.1118,6.1118,6.1118,6.1118,6.1118,6.1118,6.1118,6.1118,6.1118,6.1118,6.1118,6.1118,6.1118,6.1118,6.1118,4.5572,0.0,0.0,0.0,0.0,0.0,0.0,0.0,0.0,0.0,0.0,0.0,0.0,0.0,0.0,0.0,0.0,4.0191,0.0,3.9301,0.0,0.0,0.0,0.0,0.0,4.7308,4.754,4.9707,4.8894,4.9629,5.2647,5.3846,5.4813,5.5664,5.5896,5.6012,5.6012,5.6012,5.6012,5.6012,5.6012,5.6012,5.6012,5.6661,5.6932,5.697,5.7869,5.8604,5.9223,5.9455,5.988,6.0422,6.0422,6.0422,6.046,6.0925,6.1118,6.1118,6.1118,6.1118,6.1118,6.1118,6.1118,6.1118,6.1118,6.1116,6.1161,6.1161,6.1156,6.1189,6.1189,6.1189,6.1181,6.1169,6.1161,6.1161,6.1161,6.1161,6.1161,6.1161,6.1161,6.1143,6.1127,6.1118,6.1118,6.1118,6.1118,6.1118,6.1118,6.1118,6.1118,6.1118,6.1118,6.1118,6.1118,6.1118,6.1118,6.1118,6.1118,6.1118,6.1118,6.1118,6.1118,6.1118,6.1118,6.1118,6.1118,6.1118,6.1118,6.1118,6.1118,6.1118,0.0,0.0,0.0,4.3867,0.0,0.0,0.0,0.0,4.1738,0.0,0.0,0.0,0.0,0.0,0.0,0.0,0.0,0.0,0.0,0.0,0.0,0.0,0.0,0.0,0.0,4.3208,4.3595,4.696,4.5684,4.6566,5.0743,5.2608,5.3923,5.4813,5.5586,5.6012,5.6012,5.6012,5.6012,5.6012,5.6012,5.6012,5.6012,5.6051,5.6051,5.6089,5.697,5.7357,5.7434,5.8294,5.8651,5.869,5.869,5.869,5.8874,6.0499,6.1118,6.1118,6.1118,6.1118,6.1118,6.1118,6.1118,6.1118,6.1118,6.1212,6.1303,6.1303,6.1355,6.1403,6.1403,6.1403,6.1378,6.1291,6.1303,6.1303,6.1303,6.1303,6.1303,6.1303,6.1303,6.1252,6.1107,6.1118,6.1118,6.1118,6.1118,6.1118,6.1118,6.1118,6.1118,6.1118,6.1118,6.1118,6.1118,6.1118,6.1118,6.1118,6.1118,6.1118,6.1118,6.1118,6.1118,6.1118,6.1118,6.1118,6.1118,6.1118,6.1118,6.1118,6.1118,6.1118,0.0,0.0,4.6466,4.4583,0.0,0.0,0.0,0.0,0.0,0.0,0.0,0.0,0.0,0.0,0.0,0.0,0.0,0.0,0.0,0.0,0.0,0.0,0.0,0.0,0.0,4.1545,4.2164,4.4407,4.4059,4.5336,4.9049,5.0867,5.2453,5.3884,5.4774,5.547,5.6012,5.6012,5.6012,5.6012,5.6012,5.6012,5.6012,5.6012,5.6012,5.6012,5.6313,5.6777,5.7318,5.7637,5.8062,5.8613,5.8613,5.8613,5.869,5.9223,5.9803,6.0383,6.0925,6.1118,6.1118,6.1118,6.1169,6.1229,6.1229,6.1291,6.1356,6.1356,6.1383,6.1412,6.1412,6.1412,6.1403,6.1367,6.1356,6.1356,6.1356,6.1356,6.1356,6.1356,6.1331,6.1289,6.1237,6.1161,6.1118,6.1118,6.1118,6.1118,6.1118,6.1118,6.1118,6.1118,6.1118,6.1118,6.1118,6.1118,6.1118,6.1118,6.1118,6.1118,6.1118,6.1118,6.1118,6.1118,6.1118,6.1118,6.1118,6.1118,6.1118,6.1118,6.1118,6.1118,4.5764,4.6136,0.0,4.4928,4.4594,0.0,4.2396,0.0,4.2241,0.0,0.0,0.0,0.0,0.0,0.0,0.0,0.0,0.0,0.0,3.5588,0.0,0.0,0.0,0.0,0.0,3.9694,4.0191,4.3092,4.2473,4.3711,4.7734,4.9552,5.1138,5.2531,5.373,5.4581,5.5122,5.5122,5.5122,5.5122,5.5122,5.5277,5.5586,5.5586,5.5741,5.6012,5.6012,5.6313,5.6854,5.6854,5.7172,5.7675,5.7675,5.7675,5.7753,5.8372,5.8952,5.9493,6.0035,6.0228,6.0267,6.0576,6.0743,6.0849,6.1211,6.1361,6.1422,6.1452,6.1481,6.1501,6.1501,6.1501,6.1495,6.1467,6.1463,6.1463,6.1463,6.1463,6.1463,6.1463,6.1456,6.1384,6.1324,6.1221,6.1161,6.1127,6.1118,6.1118,6.1118,6.1118,6.1118,6.1118,6.1118,6.1118,6.1118,6.1118,6.1118,6.1118,6.1118,6.1118,6.1118,6.1118,6.1118,6.1118,6.1118,6.1118,6.1118,6.1118,6.1118,6.1118,6.1118,6.1118]}]]